     2              OBSERVATION DATA    GPS                 RINEX VERSION / TYPE
teqc 2000Jul20 Karen Wendt 20030408 21:40:03UTC             PGM / RUN BY / DATE
                                                            COMMENT
L2: 1 -> 1; 150 -> 5; 250 -> 9                              COMMENT
L2: 1 -> 1; 150 -> 5; 250 -> 9                              COMMENT
L2: 1 -> 1; 150 -> 5; 250 -> 9                              COMMENT
L2: 1 -> 1; 150 -> 5; 250 -> 9                              COMMENT
L2: 1 -> 1; 150 -> 5; 250 -> 9                              COMMENT
L2: 1 -> 1; 150 -> 5; 250 -> 9                              COMMENT
L2: 1 -> 1; 150 -> 5; 250 -> 9                              COMMENT
L2: 1 -> 1; 150 -> 5; 250 -> 9                              COMMENT
L2: 1 -> 1; 150 -> 5; 250 -> 9                              COMMENT
L2: 1 -> 1; 150 -> 5; 250 -> 9                              COMMENT
L2: 1 -> 1; 150 -> 5; 250 -> 9                              COMMENT
L2: 1 -> 1; 150 -> 5; 250 -> 9                              COMMENT
L2: 1 -> 1; 150 -> 5; 250 -> 9                              COMMENT
L2: 1 -> 1; 150 -> 5; 250 -> 9                              COMMENT
Original Marker Name: pigg Pig_NCER                         COMMENT
Campaign Name: USGS 2003                                    COMMENT
4-Character Station Name: PIGG                              COMMENT
6-Character Antenna Code: DMRCHT                            COMMENT
Vertical Measurement Point: BCR                             COMMENT
Vertical Offset to Rinex Ref. Point: 0.0348                 COMMENT
Radial Measurement Point: ECF                               COMMENT
Radial Offset to Rinex Ref. Point: 0.1897                   COMMENT
Antenna Height from Field Measurement: 1.4990 m             COMMENT
Additional Antenna Identification Info.:                    COMMENT
Turborogue and Ashtech Choke Ring                           COMMENT
Original XYZ: -2619771.9113 -4455966.8138 3725436.7198      COMMENT
New XYZ position is based on association with SCEC monument COMMENT
E1F1N4L4+0011. Position of that monument is believed to be  COMMENT
valid to within 1 m horizontally; vertical accuracy         COMMENT
should be no worse than 3-times this value.                 COMMENT
                                                            COMMENT
Revised Rinex header created by UCSD GPS archive for        COMMENT
GSAC on 17-Jul-2003 (2003:198) 21:06:17 GMT                 COMMENT
For assistance contact dagnew@ucsd.edu                      COMMENT
or anderson@python.ucsd.edu                                 COMMENT
                                                            COMMENT
PIG                                                         MARKER NAME
CHS US GEOLOGICAL SURVEY                                    OBSERVER / AGENCY
ZE120023208 RECEIVER UNKNOWN ZC00                           REC # / TYPE / VERS
CR619992805 DORNE-MARGOL. TYPE T                            ANT # / TYPE
 -2619783.9635 -4455936.4371  3725421.3501                  APPROX POSITION XYZ
        1.4521        0.0000        0.0000                  ANTENNA: DELTA H/E/N
     1     1     0                                          WAVELENGTH FACT L1/2
     5    C1    L1    L2    P1    P2                        # / TYPES OF OBSERV
    30                                                      INTERVAL
  2003     4     3     0     0    0.000000                  TIME OF FIRST OBS
  2003     4     3    17    53    0.000000                  TIME OF LAST OBS
                                                            END OF HEADER
 03  4  3  0  0  0.0000000  0  8G14G 3G 9G31G15G23G18G17
  22384363.743   -15817313.55543 -12279983.25142  22384366.799    22384367.938
  22010982.600   -12230767.76243  -9523267.98242  22010984.929    22010984.576
  24109290.895    -3314490.03243  -2551265.96542  24109293.786    24109299.059
  23872906.305    -3398282.40243  -2427437.69042  23872908.689    23872910.543
  20242399.661   -23111937.81544 -17966938.13342  20242401.231    20242399.706
  21253192.329   -22324156.02943 -17379382.09042  21253194.415    21253192.889
  20604496.884   -27794082.02344 -21604647.20942  20604499.017    20604495.961
  21465208.993   -22352610.70243 -17379846.70442  21465210.280    21465210.098
 03  4  3  0  0 30.0000000  0  8G14G 3G 9G31G15G23G18G17
  22365585.725   -15915991.83643 -12356875.15242  22365588.763    22365589.856
  22002511.685   -12275282.98643  -9557955.11442  22002513.997    22002513.463
  24098712.956    -3370076.74943  -2594580.03742  24098715.913    24098721.043
  23856624.762    -3483841.32543  -2494106.86042  23856627.367    23856629.091
  20241370.472   -23117346.11144 -17971152.36742  20241372.064    20241370.575
  21261026.699   -22282986.14143 -17347301.66642  21261028.772    21261027.213
  20609915.109   -27765608.79444 -21582460.27442  20609917.262    20609914.184
  21473810.952   -22307407.91643 -17344623.77142  21473812.195    21473811.874
 03  4  3  0  1  0.0000000  0  8G14G 3G 9G31G15G23G18G17
  22346860.544   -16014392.02543 -12433550.36442  22346863.650    22346864.635
  21994137.284   -12319290.21143  -9592246.38542  21994139.604    21994139.169
  24088200.215    -3425320.62743  -2637626.94942  24088203.225    24088208.116
  23840408.215    -3569059.41043  -2560510.39042  23840410.831    23840412.348
  20240403.293   -23122428.49444 -17975112.64942  20240404.926    20240403.454
  21268892.752   -22241650.12444 -17315091.78142  21268894.789    21268893.129
  20615384.023   -27736869.60144 -21560066.09942  20615386.134    20615383.116
  21482469.066   -22261909.14843 -17309170.20842  21482470.373    21482469.939
 03  4  3  0  1 30.0000000  0  8G14G 3G 9G31G15G23G18G17
  22328191.562   -16112496.66543 -12509995.31242  22328194.652    22328195.669
  21985862.598   -12362772.95943  -9626128.97042  21985864.937    21985864.661
  24077755.991    -3480203.64843  -2680392.66542  24077758.966    24077763.829
  23824259.757    -3653919.42543  -2626634.95042  23824262.335    23824263.665
  20239501.139   -23127169.14344 -17978806.64242  20239502.751    20239501.293
  21276792.914   -22200134.40544 -17282741.87342  21276794.991    21276793.286
  20620906.078   -27707850.90044 -21537454.12242  20620908.216    20620905.223
  21491186.518   -22216098.98743 -17273474.01442  21491187.818    21491187.316
 03  4  3  0  2  0.0000000  0  8G14G 3G 9G31G15G23G18G17
  22309574.624   -16210328.79943 -12586227.89442  22309577.652    22309578.605
  21977683.206   -12405755.70343  -9659621.94242  21977685.497    21977685.361
  24067376.299    -3534748.63543  -2722894.99942  24067379.257    24067383.866
  23808175.154    -3738444.32143  -2692498.37942  23808177.719    23808178.746
  20238659.438   -23131592.69244 -17982253.55042  20238661.019    20238659.424
  21284722.163   -22158466.16644 -17250273.10842  21284724.280    21284722.492
  20626476.152   -27678579.81444 -21514645.48742  20626478.304    20626475.360
  21499958.209   -22170003.34343 -17237555.34342  21499959.537    21499959.157
 03  4  3  0  2 30.0000000  0  8G14G 3G 9G31G15G23G18G17
  22291017.256   -16307848.29143 -12662216.86742  22291020.339    22291021.040
  21969606.550   -12448199.34243  -9692694.85142  21969608.799    21969608.536
  24057068.769    -3588915.09343  -2765102.36242  24057071.774    24057076.083
  23792162.063    -3822593.93043  -2758069.39842  23792164.722    23792165.300
  20237885.375   -23135660.43744 -17985423.19542  20237886.923    20237885.312
  21292687.268   -22116609.03243 -17217657.14842  21292689.383    21292687.643
  20632101.185   -27649020.11944 -21491611.95442  20632103.361    20632100.375
  21508791.434   -22123584.15843 -17201384.55242  21508792.740    21508792.394
 03  4  3  0  3  0.0000000  0  8G14G 3G 9G31G15G23G18G17
  22272509.333   -16405107.16243 -12738002.75842  22272512.552    22272513.019
  21961622.256   -12490157.03743  -9725389.09742  21961624.546    21961624.115
  24046823.531    -3642754.76343  -2807055.10342  24046826.545    24046830.560
  23776210.173    -3906420.56643  -2823388.72642  23776212.893    23776213.689
  20237168.737   -23139426.10544 -17988357.45042  20237170.295    20237168.677
  21300677.586   -22074619.26343 -17184937.83642  21300679.724    21300678.025
  20637770.448   -27619227.82644 -21468397.16842  20637772.609    20637769.664
  21517675.932   -22076895.41943 -17165003.74042  21517677.234    21517676.882
 03  4  3  0  3 30.0000000  0  8G14G 3G 9G31G15G23G18G17
  22254058.252   -16502066.98243 -12813555.63642  22254061.546    22254061.899
  21953737.359   -12531591.75043  -9757675.81542  21953739.669    21953739.243
  24036647.447    -3696228.65143  -2848722.82242  24036650.561    24036654.625
  23760327.118    -3989885.71743  -2888426.35442  23760329.746    23760330.870
  20236516.670   -23142852.65444 -17991027.46642  20236518.229    20236516.562
  21308699.851   -22032462.16343 -17152088.13642  21308701.951    21308700.245
  20643490.566   -27589168.25344 -21444974.11442  20643492.684    20643489.786
  21526618.740   -22029900.75943 -17128384.55142  21526620.009    21526619.652
 03  4  3  0  4  0.0000000  0  8G14G 3G 9G31G15G23G18G17
  22235666.046   -16598718.34143 -12888868.15642  22235669.251    22235669.524
  21945953.777   -12572494.67443  -9789548.15942  21945956.107    21945955.654
  24026542.788    -3749326.58143  -2890097.61642  24026545.965    24026550.046
  23744514.492    -4072979.74443  -2953174.77442  23744517.178    23744518.645
  20235930.750   -23145931.59244 -17993426.61042  20235932.308    20235930.594
  21316754.981   -21990131.87943 -17119103.49942  21316757.089    21316755.413
  20649262.716   -27558835.46144 -21421338.15442  20649264.819    20649261.858
  21535621.083   -21982592.80543 -17091521.24042  21535622.342    21535622.165
 03  4  3  0  4 30.0000000  0  8G14G 3G 9G31G15G23G18G17
  22217332.039   -16695062.76843 -12963941.52142  22217335.380    22217335.538
  21938270.819   -12612868.65843  -9821008.32742  21938273.214    21938272.718
  24016509.517    -3802050.32443  -2931180.82842  24016512.712    24016516.787
  23728772.400    -4155704.38443  -3017635.38342  23728774.973    23728776.734
  20235410.335   -23148666.59444 -17995557.75942  20235411.894    20235410.090
  21324842.000   -21947634.36543 -17085988.54042  21324844.104    21324842.417
  20655085.742   -27528235.21744 -21397493.79042  20655087.856    20655084.820
  21544682.332   -21934975.91143 -17054417.18642  21544683.572    21544683.421
 03  4  3  0  5  0.0000000  0  8G14G 3G 9G31G15G23G18G17
  22199055.588   -16791105.30343 -13038779.64242  22199058.865    22199058.946
  21930687.270   -12652720.08643  -9852061.31442  21930689.653    21930689.163
  24006546.727    -3854404.58843  -2971976.12942  24006549.897    24006553.870
  23713099.761    -4238064.98743  -3081812.34942  23713102.188    23713103.861
  20234954.010   -23151064.29844 -17997426.07142  20234955.585    20234953.773
  21332959.141   -21904978.64043 -17052750.30242  21332961.278    21332959.502
  20660957.983   -27497376.45444 -21373447.98442  20660960.105    20660956.975
  21553801.004   -21887057.36543 -17017078.09942  21553802.238    21553802.060
 03  4  3  0  5 30.0000000  0  8G14G 3G 9G31G15G23G18G17
  22180835.551   -16886850.91843 -13113386.40942  22180838.758    22180838.825
  21923202.083   -12692055.12443  -9882711.93142  21923204.402    21923203.745
  23996653.597    -3906393.83343  -3012486.99642  23996656.663    23996660.539
  23697495.008    -4320066.36343  -3145709.37542  23697497.568    23697499.446
  20234560.801   -23153130.98544 -17999036.45142  20234562.369    20234560.490
  21341104.726   -21862173.32043 -17019395.49142  21341106.852    21341105.106
  20666877.666   -27466268.13744 -21349207.72242  20666879.827    20666876.682
  21562975.691   -21838844.29443 -16979509.50342  21562976.937    21562976.778
 03  4  3  0  6  0.0000000  0  8G14G 3G 9G31G15G23G18G17
  22162680.282   -16982256.19843 -13187727.97442  22162683.469    22162683.599
  21915823.093   -12730831.37343  -9912927.13242  21915825.503    21915824.788
  23986837.778    -3957974.18043  -3052679.30442  23986840.872    23986845.129
  23681967.169    -4401665.03443  -3209292.60142  23681969.757    23681971.692
  20234238.439   -23154824.68144 -18000356.17942  20234240.029    20234238.210
  21349286.285   -21819178.66543 -16985893.15442  21349288.417    21349286.761
  20672852.508   -27434870.28144 -21324741.85042  20672854.676    20672851.533
  21572214.266   -21790295.50143 -16941679.31042  21572215.532    21572215.423
 03  4  3  0  6 30.0000000  0  8G14G 3G 9G31G15G23G18G17
  22144581.465   -17077365.23343 -13261838.70542  22144584.560    22144584.771
  21908541.774   -12769094.38543  -9942742.39442  21908544.208    21908543.544
  23977091.478    -4009189.48143  -3092587.13642  23977094.625    23977099.003
  23666507.446    -4482905.28643  -3272596.53242  23666510.061    23666512.118
  20233978.452   -23156191.02644 -18001420.83842  20233980.092    20233978.211
  21357494.668   -21776042.73343 -16952280.72842  21357496.831    21357495.272
  20678873.256   -27403230.84444 -21300087.72342  20678875.434    20678872.325
  21581507.906   -21741457.08943 -16903623.43242  21581509.194    21581509.175
 03  4  3  0  7  0.0000000  0  8G14G 3G 9G31G15G23G18G17
  22126544.656   -17172148.36943 -13335695.50042  22126547.730    22126548.063
  21901363.581   -12806815.65843  -9972135.52842  21901365.942    21901365.425
  23967420.516    -4060009.93643  -3132187.23942  23967423.512    23967427.840
  23651121.899    -4563757.47643  -3335598.08842  23651124.492    23651126.140
  20233786.033   -23157201.85844 -18002208.47242  20233787.675    20233785.846
  21365734.929   -21732740.02443 -16918538.33742  21365737.055    21365735.494
  20684944.835   -27371324.39444 -21275225.53642  20684946.996    20684943.916
  21590861.873   -21692301.71643 -16865320.57242  21590863.166    21590863.055
 03  4  3  0  7 30.0000000  0  8G14G 3G 9G31G15G23G18G17
  22108563.053   -17266641.63043 -13409326.42042  22108566.118    22108566.458
  21894281.399   -12844032.32543 -10001135.46742  21894283.685    21894283.198
  23957817.906    -4110470.90243  -3171507.23942  23957820.821    23957824.907
  23635803.357    -4644257.69143  -3398325.37942  23635805.852    23635807.095
  20233654.180   -23157894.66744 -18002748.29742  20233655.788    20233654.021
  21373999.356   -21689310.07143 -16884696.81342  21374001.493    21373999.974
  20691059.662   -27339190.43344 -21250186.07942  20691061.815    20691058.803
  21600268.977   -21642867.47243 -16826800.43942  21600270.295    21600270.106
 03  4  3  0  8  0.0000000  0  8G14G 3G 9G31G15G23G18G17
  22090642.641   -17360814.26043 -13482707.49242  22090645.619    22090645.842
  21887300.984   -12880714.87843 -10029719.23442  21887303.258    21887302.618
  23948289.837    -4160541.47243  -3210523.08442  23948292.719    23948296.499
  23620557.252    -4724375.22743  -3460754.46342  23620559.874    23620560.960
  20233588.408   -23158240.09844 -18003017.43542  20233589.994    20233588.270
  21382293.203   -21645725.99943 -16850735.19842  21382295.326    21382293.737
  20697222.945   -27306802.37344 -21224948.62142  20697225.073    20697222.046
  21609734.365   -21593126.17043 -16788041.02142  21609735.709    21609735.529
 03  4  3  0  8 30.0000000  0  8G14G 3G 9G31G15G23G18G17
  22072785.004   -17454655.63543 -13555830.44242  22072788.053    22072788.203
  21880423.984   -12916853.80743 -10057879.38042  21880426.307    21880425.615
  23938837.994    -4210210.21743  -3249225.78142  23938840.916    23938844.897
  23605386.178    -4804099.23943  -3522876.93742  23605388.706    23605389.742
  20233590.520   -23158228.95144 -18003008.72742  20233592.062    20233590.372
  21390617.628   -21601980.82443 -16816648.04242  21390619.772    21390618.096
  20703435.915   -27274152.90544 -21199507.46342  20703438.044    20703434.981
  21619259.964   -21543068.74043 -16749035.26142  21619261.272    21619261.291
 03  4  3  0  9  0.0000000  0  8G14G 3G 9G31G15G23G18G17
  22054990.862   -17548162.98943 -13628693.12842  22054993.984    22054994.135
  21873650.538   -12952447.95943 -10085615.02842  21873652.892    21873652.306
  23929463.255    -4259474.63543  -3287613.45042  23929466.103    23929469.874
  23590290.441    -4883427.25943  -3584690.80242  23590292.877    23590294.172
  20233660.642   -23157859.90144 -18002721.13742  20233662.192    20233660.573
  21398972.422   -21558075.91843 -16782436.42842  21398974.538    21398972.875
  20709698.364   -27241243.11444 -21173863.46542  20709700.500    20709697.500
  21628845.793   -21492695.10143 -16709783.11542  21628847.082    21628847.292
 03  4  3  0  9 30.0000000  0  8G14G 3G 9G31G15G23G18G17
  22037260.357   -17641337.12643 -13701296.16042  22037263.331    22037263.481
  21866980.441   -12987499.36243 -10112927.75042  21866982.720    21866982.208
  23920165.367    -4308335.00643  -3325686.26542  23920168.262    23920171.924
  23575270.001    -4962360.12243  -3646196.80042  23575272.446    23575273.833
  20233798.484   -23157135.66644 -18002156.77242  20233799.992    20233798.353
  21407356.747   -21514015.79343 -16748103.85142  21407358.839    21407357.201
  20716009.543   -27208077.91044 -21148020.42842  20716011.644    20716008.616
  21638491.171   -21442008.45743 -16670287.06742  21638492.449    21638492.699
 03  4  3  0 10  0.0000000  0  8G14G 3G 9G31G15G23G18G17
  22019588.916   -17734199.39543 -13773656.17742  22019592.062    22019592.159
  21860409.258   -13022030.71343 -10139835.25442  21860411.510    21860411.037
  23910940.096    -4356812.51343  -3363460.75442  23910943.126    23910946.932
  23560320.764    -5040919.09043  -3707411.45942  23560323.241    23560324.485
  20233999.565   -23156078.66744 -18001333.10842  20234001.093    20233999.497
  21415765.888   -21469825.27143 -16713669.68242  21415767.992    21415766.373
  20722364.502   -27174682.12444 -21121997.73342  20722366.647    20722363.657
  21648191.685   -21391032.17643 -16630565.33542  21648192.970    21648193.180
 03  4  3  0 10 30.0000000  0  8G14G 3G 9G31G15G23G18G17
  22001980.976   -17826729.40743 -13845757.29142  22001984.070    22001984.083
  21853940.732   -13056022.87143 -10166322.58842  21853942.956    21853942.468
  23901791.686    -4404886.39843  -3400920.77842  23901794.737    23901798.595
  23545446.356    -5119083.84543  -3768318.93342  23545448.870    23545450.137
  20234267.647   -23154670.06444 -18000235.47742  20234269.156    20234267.478
  21424203.044   -21425487.86043 -16679121.05042  21424205.119    21424203.523
  20728766.554   -27141039.22644 -21095782.47742  20728768.678    20728765.633
  21657950.660   -21339748.26443 -16590603.87042  21657951.907    21657952.224
 03  4  3  0 11  0.0000000  0  8G14G 3G 9G31G15G23G18G17
  21984441.920   -17918897.18843 -13917576.15042  21984444.962    21984444.940
  21847580.419   -13089447.16743 -10192367.44042  21847582.617    21847581.932
  23892725.930    -4452526.39543  -3438042.65342  23892728.948    23892732.727
  23530652.297    -5196824.63343  -3828896.05042  23530654.872    23530656.307
  20234607.955   -23152881.37044 -17998841.66442  20234609.498    20234607.789
  21432673.119   -21380977.51343 -16644437.66642  21432675.240    21432673.601
  20735220.597   -27107123.04944 -21069354.27342  20735222.754    20735219.631
  21667773.586   -21288128.60343 -16550380.79642  21667774.785    21667775.154
 03  4  3  0 11 30.0000000  0  8G14G 3G 9G31G15G23G18G17
  21966962.202   -18010752.88843 -13989151.83142  21966965.271    21966965.176
  21841318.246   -13122355.05243 -10218009.90542  21841320.468    21841319.561
  23883733.574    -4499782.30343  -3474865.19742  23883736.651    23883740.157
  23515929.896    -5274191.45743  -3889181.76542  23515932.343    23515933.819
  20235010.878   -23150764.17144 -17997191.87142  20235012.403    20235010.601
  21441165.885   -21336348.00943 -16609661.42642  21441168.052    21441166.280
  20741716.420   -27072987.52044 -21042755.13842  20741718.576    20741715.410
  21677650.430   -21236225.81643 -16509937.11442  21677651.617    21677651.848
 03  4  3  0 12  0.0000000  0  8G14G 3G 9G31G15G23G18G17
  21949545.405   -18102278.48843 -14060470.28342  21949548.494    21949548.288
  21835157.378   -13154729.88143 -10243236.98642  21835159.654    21835158.747
  23874817.601    -4546635.85443  -3511374.23742  23874820.687    23874823.900
  23501282.217    -5351166.25443  -3949161.99042  23501284.631    23501285.961
  20235479.312   -23148301.94144 -17995273.22942  20235480.857    20235479.112
  21449684.000   -21291584.87643 -16574781.06642  21449686.179    21449684.427
  20748256.749   -27038617.90644 -21015973.61242  20748258.896    20748255.753
  21687584.276   -21184023.61943 -16469260.11042  21687585.465    21687585.589
 03  4  3  0 12 30.0000000  0  8G14G 3G 9G31G15G23G18G17
  21932193.470   -18193462.76843 -14131522.77742  21932196.565    21932196.397
  21829100.035   -13186561.44143 -10268040.75342  21829102.297    21829101.359
  23865980.248    -4593075.29043  -3547560.59742  23865983.397    23865986.494
  23486711.096    -5427737.84243  -4008828.05042  23486713.501    23486714.639
  20236015.401   -23145484.75544 -17993077.99342  20236016.941    20236015.183
  21458228.990   -21246680.47943 -16539790.62542  21458231.148    21458229.458
  20754843.017   -27004006.70344 -20989003.82542  20754845.189    20754842.039
  21697576.586   -21131513.23543 -16428342.95542  21697577.846    21697578.103
 03  4  3  0 13  0.0000000  0  8G14G 3G 9G31G15G23G18G17
  21914909.881   -18284287.48143 -14202295.08942  21914913.008    21914912.884
  21823149.246   -13217833.02243 -10292408.17442  21823151.510    21823150.533
  23857225.269    -4639082.20543  -3583409.96842  23857228.439    23857231.470
  23472219.986    -5503888.06143  -4068165.75842  23472222.508    23472223.442
  20236622.207   -23142295.88644 -17990593.13542  20236623.742    20236621.984
  21466803.609   -21201620.22443 -16504678.73542  21466805.727    21466804.221
  20761478.042   -26969139.51744 -20961834.58642  20761480.232    20761477.069
  21707630.723   -21078678.59643 -16387173.12542  21707631.937    21707632.329
 03  4  3  0 13 30.0000000  0  8G14G 3G 9G31G15G23G18G17
  21897690.359   -18374776.23143 -14272805.62042  21897693.359    21897693.182
  21817300.142   -13248569.66443 -10316358.75642  21817302.378    21817301.545
  23848548.195    -4684680.03943  -3618940.57042  23848551.391    23848554.413
  23457804.589    -5579640.50243  -4127193.53842  23457807.008    23457807.981
  20237295.043   -23138760.45044 -17987838.22542  20237296.590    20237294.787
  21475402.691   -21156431.56043 -16469466.78642  21475404.759    21475403.365
  20768156.510   -26934043.81244 -20934487.27842  20768158.697    20768155.502
  21717741.679   -21025545.83043 -16345771.02542  21717742.859    21717743.082
 03  4  3  0 14  0.0000000  0  8G14G 3G 9G31G15G23G18G17
  21880536.905   -18464917.35643 -14343045.28142  21880539.896    21880539.655
  21811554.827   -13278761.17643 -10339884.56442  21811557.050    21811556.286
  23839951.320    -4729856.88643  -3654143.12242  23839954.457    23839957.508
  23443467.215    -5654983.62643  -4185902.34442  23443469.620    23443470.530
  20238035.717   -23134868.12544 -17984805.22542  20238037.299    20238035.392
  21484027.749   -21111106.57343 -16434148.61442  21484029.824    21484028.455
  20774880.057   -26898711.48644 -20906955.57842  20774882.250    20774879.011
  21727911.173   -20972105.36543 -16304129.14842  21727912.435    21727912.295
 03  4  3  0 14 30.0000000  0  8G14G 3G 9G31G15G23G18G17
  21863449.757   -18554710.06943 -14413013.45442  21863452.791    21863452.468
  21805913.276   -13308407.98243 -10362985.94742  21805915.493    21805914.686
  23831434.726    -4774611.73843  -3689016.82142  23831437.911    23831440.659
  23429207.884    -5729916.73643  -4244291.64042  23429210.389    23429211.319
  20238844.177   -23130619.65644 -17981494.69742  20238845.770    20238843.864
  21492678.307   -21065647.90043 -16398726.27442  21492680.391    21492678.944
  20781647.953   -26863145.56044 -20879241.85242  20781650.137    20781646.934
  21738138.817   -20918358.90743 -16262248.81842  21738140.099    21738139.991
 03  4  3  0 15  0.0000000  0  8G14G 3G 9G31G15G23G18G17
  21846427.966   -18644159.59243 -14482714.20042  21846431.045    21846430.664
  21800373.949   -13337516.97943 -10385668.22942  21800376.178    21800375.374
  23822997.390    -4818949.35043  -3723565.39042  23823000.598    23823003.163
  23415025.745    -5804444.78343  -4302365.33842  23415028.289    23415029.146
  20239719.197   -23126021.42644 -17977911.63842  20239720.806    20239718.922
  21501352.603   -21020064.26343 -16363206.55442  21501354.712    21501353.241
  20788458.704   -26827354.62944 -20851352.79942  20788460.888    20788457.690
  21748423.320   -20864313.20543 -16220135.29742  21748424.605    21748424.610
 03  4  3  0 15 30.0000000  0  8G14G 3G 9G31G15G23G18G17
  21829480.296   -18733218.99343 -14552110.96742  21829483.409    21829482.889
  21794945.678   -13366042.76543 -10407896.07742  21794947.912    21794947.034
  23814648.205    -4862822.81743  -3757752.31142  23814651.368    23814654.175
  23400929.341    -5878521.24343  -4360087.10942  23400931.940    23400932.890
  20240669.345   -23121028.30044 -17974020.86442  20240670.941    20240669.111
  21510058.914   -20974312.55843 -16327555.87142  21510061.012    21510059.471
  20795320.607   -26791295.41744 -20823254.69942  20795322.751    20795319.542
  21758773.412   -20809924.03243 -16177754.18642  21758774.665    21758774.521
 03  4  3  0 16  0.0000000  0  8G14G 3G 9G31G15G23G18G17
  21812597.745   -18821937.68243 -14621242.23142  21812600.723    21812600.061
  21789618.818   -13394035.70143 -10429708.71342  21789621.089    21789620.027
  23806378.241    -4906280.95743  -3791615.61142  23806381.293    23806384.167
  23386909.433    -5952195.21343  -4417495.25242  23386912.105    23386913.136
  20241684.990   -23115690.75644 -17969861.71242  20241686.561    20241684.798
  21518787.115   -20928445.42643 -16291815.25542  21518789.224    21518787.667
  20802223.445   -26755020.78744 -20794988.75342  20802225.576    20802222.380
  21769178.871   -20755242.58743 -16135145.29542  21769180.192    21769180.055
 03  4  3  0 16 30.0000000  0  8G14G 3G 9G31G15G23G18G17
  21795782.580   -18910301.71443 -14690097.14642  21795785.529    21795784.750
  21784395.575   -13421483.90243 -10451096.88642  21784397.840    21784396.717
  23798190.175    -4949309.90743  -3825144.47542  23798193.142    23798195.866
  23372968.757    -6025453.17043  -4474579.22542  23372971.428    23372972.406
  20242768.534   -23109996.67044 -17965424.73442  20242770.071    20242768.280
  21527539.248   -20882452.74343 -16255976.80442  21527541.353    21527539.782
  20809169.071   -26718521.08244 -20766547.41842  20809171.227    20809167.980
  21779642.220   -20700257.70843 -16092299.97742  21779643.463    21779643.464
 03  4  3  0 17  0.0000000  0  8G14G 3G 9G31G15G23G18G17
  21779041.479   -18998275.61543 -14758648.05842  21779044.502    21779043.696
  21779282.437   -13448353.08543 -10472033.87442  21779284.745    21779283.697
  23790090.251    -4991873.66543  -3858310.87842  23790093.174    23790096.182
  23359113.962    -6098259.55143  -4531311.33342  23359116.733    23359117.557
  20243926.478   -23103911.69944 -17960683.18042  20243928.012    20243926.152
  21536321.328   -20836302.51543 -16220015.58842  21536323.429    21536321.803
  20816163.707   -26681763.90044 -20737905.45842  20816165.860    20816162.583
  21790169.699   -20644935.82143 -16049192.04642  21790170.976    21790170.972
 03  4  3  0 17 30.0000000  0  8G14G 3G 9G31G15G23G18G17
  21762367.843   -19085895.64243 -14826923.22942  21762370.875    21762369.992
  21774272.406   -13474680.57643 -10492548.74742  21774274.694    21774273.776
  23782072.288    -5034008.06643  -3891142.72442  23782075.187    23782078.029
  23345338.219    -6170650.43243  -4587719.67442  23345340.941    23345341.911
  20245151.621   -23097473.21244 -17955666.16142  20245153.164    20245151.296
  21545125.785   -20790034.32543 -16183962.45242  21545127.885    21545126.324
  20823199.804   -26644788.85244 -20709093.72742  20823202.007    20823198.665
  21800753.889   -20589315.07743 -16005851.23842  21800755.195    21800755.256
 03  4  3  0 18  0.0000000  0  8G14G 3G 9G31G15G23G18G17
  21745764.037   -19173148.23443 -14894912.08642  21745767.103    21745766.152
  21769367.812   -13500454.54843 -10512632.32042  21769370.098    21769369.108
  23774138.828    -5075699.50743  -3923629.35442  23774141.770    23774143.972
  23331644.161    -6242612.32443  -4643793.73842  23331646.829    23331647.931
  20246446.366   -23090669.19844 -17950364.31042  20246447.907    20246446.039
  21553954.707   -20743638.22743 -16147809.65242  21553956.779    21553955.221
  20830279.227   -26607586.17544 -20680104.62642  20830281.442    20830278.106
  21811397.261   -20533384.30543 -15962268.86042  21811398.549    21811398.670
 03  4  3  0 18 30.0000000  0  8G14G 3G 9G31G15G23G18G17
  21729225.913   -19260056.21043 -14962632.40842  21729228.948    21729227.885
  21764563.780   -13525699.47143 -10532303.64342  21764566.064    21764565.075
  23766285.077    -5116970.91643  -3955788.71042  23766288.092    23766290.210
  23318027.422    -6314168.37243  -4699551.56542  23318030.080    23318031.102
  20247806.068   -23083524.20244 -17944796.77042  20247807.605    20247805.674
  21562802.856   -20697140.74043 -16111577.84442  21562804.956    21562803.378
  20837396.943   -26570182.30344 -20650958.74842  20837399.165    20837395.871
  21822094.718   -20477168.92243 -15918464.69542  21822096.069    21822096.160
 03  4  3  0 19  0.0000000  0  8G14G 3G 9G31G15G23G18G17
  21712762.251   -19346572.35643 -15030047.41542  21712765.330    21712764.284
  21759869.232   -13550369.61443 -10551527.09342  21759871.477    21759870.398
  23758520.096    -5157774.48943  -3987583.51942  23758523.290    23758525.356
  23304496.971    -6385271.12443  -4754956.19442  23304499.518    23304500.492
  20249239.380   -23075991.84744 -17938927.38242  20249240.964    20249239.002
  21571678.673   -20650497.76543 -16075232.67242  21571680.797    21571679.250
  20844561.388   -26532533.34044 -20621621.89042  20844563.569    20844560.269
  21832854.914   -20420623.52743 -15874403.39842  21832856.212    21832856.272
 03  4  3  0 19 30.0000000  0  8G14G 3G 9G31G15G23G18G17
  21696366.714   -19432730.49143 -15097183.46342  21696369.768    21696368.860
  21755277.294   -13574500.15743 -10570330.06542  21755279.573    21755278.499
  23750837.988    -5198143.90243  -4019040.00742  23750841.197    23750843.212
  23291046.419    -6455954.50443  -4810034.04442  23291048.958    23291049.895
  20250739.652   -23068107.62444 -17932783.81342  20250741.232    20250739.331
  21580575.229   -20603746.59643 -16038803.18642  21580577.318    21580575.700
  20851765.324   -26494676.53644 -20592123.07342  20851767.560    20851764.241
  21843671.189   -20363783.85943 -15830112.80342  21843672.432    21843672.477
 03  4  3  0 20  0.0000000  0  8G14G 3G 9G31G15G23G18G17
  21680043.482   -19518509.39543 -15164023.99642  21680046.445    21680045.577
  21750791.738   -13598071.70543 -10588697.46042  21750794.041    21750792.983
  23743242.299    -5238057.78243  -4050141.56742  23743245.560    23743247.656
  23277679.497    -6526197.35243  -4864768.60942  23277682.183    23277683.050
  20252310.661   -23059851.93044 -17926350.79242  20252312.220    20252310.301
  21589495.557   -20556869.64843 -16002275.69542  21589497.678    21589496.111
  20859012.041   -26456594.41744 -20562448.69642  20859014.311    20859011.093
  21854546.969   -20306631.42543 -15785578.47142  21854548.183    21854548.406
 03  4  3  0 20 30.0000000  0  8G14G 3G 9G31G15G23G18G17
  21663795.167   -19603893.84943 -15230557.18242  21663798.176    21663797.300
  21746415.043   -13621070.74243 -10606618.74542  21746417.378    21746416.441
  23735736.417    -5277500.85843  -4080876.25042  23735739.656    23735741.655
  23264399.313    -6595984.77743  -4919148.29942  23264401.875    23264402.840
  20253954.963   -23051210.93044 -17919617.53342  20253956.477    20253954.618
  21598442.083   -20509855.10843 -15965640.98142  21598444.202    21598442.697
  20866303.891   -26418275.45344 -20532589.75242  20866306.120    20866302.937
  21865484.663   -20249153.38643 -15740790.41742  21865485.911    21865486.319
 03  4  3  0 21  0.0000000  0  8G14G 3G 9G31G15G23G18G17
  21647620.678   -19688890.42843 -15296788.12542  21647623.646    21647622.805
  21742145.907   -13643504.88043 -10624099.85042  21742148.212    21742147.243
  23728318.977    -5316479.29643  -4111248.84942  23728322.142    23728323.937
  23251204.607    -6665323.04243  -4973178.00742  23251207.132    23251208.048
  20255671.109   -23042192.40844 -17912590.09942  20255672.618    20255670.780
  21607412.964   -20462712.77643 -15928906.69642  21607415.074    21607413.643
  20873638.940   -26379729.45944 -20502553.90642  20873641.151    20873637.983
  21876482.827   -20191357.87743 -15695754.99842  21876484.093    21876484.368
 03  4  3  0 21 30.0000000  0  8G14G 3G 9G31G15G23G18G17
  21631520.796   -19773495.64043 -15362714.11342  21631523.732    21631522.848
  21737984.753   -13665372.07643 -10641139.19542  21737986.958    21737985.928
  23720990.449    -5354989.15943  -4141256.34342  23720993.703    23720995.352
  23238096.052    -6734208.52743  -5026854.88442  23238098.596    23238099.362
  20257459.546   -23032794.02244 -17905266.66842  20257461.032    20257459.168
  21616408.341   -20415442.36643 -15892072.60242  21616410.423    21616408.939
  20881017.216   -26340956.25044 -20472341.01042  20881019.425    20881016.214
  21887541.541   -20133243.85143 -15650471.39142  21887542.771    21887542.943
 03  4  3  0 22  0.0000000  0  8G14G 3G 9G31G15G23G18G17
  21615491.053   -19857732.20143 -15428352.83542  21615493.987    21615492.951
  21733926.780   -13686696.86043 -10657755.87142  21733928.883    21733927.947
  23713747.165    -5393053.25543  -4170916.48342  23713750.284    23713751.818
  23225069.171    -6802664.21743  -5080196.86742  23225071.707    23225072.322
  20259315.736   -23023039.87944 -17897666.03042  20259317.194    20259315.322
  21625422.961   -20368070.16843 -15855159.19742  21625425.064    21625423.583
  20888433.736   -26301982.16744 -20441971.58642  20888435.892    20888432.719
  21898656.270   -20074835.95743 -15604958.79642  21898657.448    21898657.665
 03  4  3  0 22 30.0000000  0  8G14G 3G 9G31G15G23G18G17
  21599536.715   -19941572.39743 -15493682.70842  21599539.624    21599538.422
  21729977.015   -13707453.08743 -10673929.52742  21729979.145    21729978.105
  23706593.754    -5430643.67743  -4200207.56842  23706596.924    23706598.524
  23212129.472    -6870662.46043  -5133182.43242  23212131.949    23212132.338
  20261244.524   -23012903.80944 -17889767.78242  20261246.003    20261244.131
  21634461.545   -20320571.84643 -15818147.51842  21634463.643    21634462.243
  20895893.103   -26262782.88344 -20411426.67542  20895895.240    20895892.135
  21909831.639   -20016108.70243 -15559197.33242  21909832.837    21909833.161
 03  4  3  0 23  0.0000000  0  8G14G 3G 9G31G15G23G18G17
  21583651.815   -20025047.18043 -15558727.84742  21583654.777    21583653.471
  21726129.153   -13727673.49943 -10689685.67742  21726131.339    21726130.185
  23699524.447    -5467791.16543  -4229153.51142  23699527.600    23699529.461
  23199270.817    -6938234.23943  -5185835.67342  23199273.349    23199273.782
  20263239.865   -23002418.12544 -17881597.11042  20263241.347    20263239.431
  21643517.722   -20272981.43743 -15781064.06942  21643519.806    21643518.374
  20903388.746   -26223392.57944 -20380732.92542  20903390.905    20903387.887
  21921061.513   -19957095.50643 -15513213.06742  21921062.712    21921063.020
 03  4  3  0 23 30.0000000  0  8G14G 3G 9G31G15G23G18G17
  21567844.932   -20108112.52143 -15623453.93942  21567847.858    21567846.528
  21722391.426   -13747315.26143 -10704990.91442  21722393.603    21722392.470
  23692548.197    -5504451.77643  -4257720.02942  23692551.370    23692552.861
  23186501.848    -7005335.60043  -5238122.33542  23186504.350    23186504.901
  20265309.906   -22991540.13244 -17873120.75042  20265311.409    20265309.399
  21652599.125   -20225258.37743 -15743877.26942  21652601.189    21652599.663
  20910928.592   -26183770.71244 -20349858.73442  20910930.739    20910927.624
  21932353.995   -19897754.09443 -15466973.05542  21932355.162    21932355.364
 03  4  3  0 24  0.0000000  0  8G14G 3G 9G31G15G23G18G17
  21552109.998   -20190799.68143 -15687885.34642  21552112.962    21552111.546
  21718757.487   -13766411.49743 -10719871.05842  21718759.679    21718758.671
  23685658.598    -5540656.25443  -4285931.14242  23685661.759    23685663.192
  23173816.511    -7071997.61543  -5290066.67142  23173819.059    23173819.560
  20267448.350   -22980302.20544 -17864363.91442  20267449.882    20267447.865
  21661699.257   -20177437.03443 -15706613.87742  21661701.320    21661699.761
  20918505.871   -26143951.87144 -20318831.06942  20918508.047    20918504.804
  21943702.250   -19838117.63343 -15420503.12242  21943703.547    21943703.861
 03  4  3  0 24 30.0000000  0  8G14G 3G 9G31G15G23G18G17
  21536450.885   -20273088.06343 -15752006.01842  21536453.863    21536452.393
  21715230.964   -13784943.32743 -10734311.41842  21715233.178    21715232.217
  23678859.618    -5576384.00743  -4313770.82642  23678862.734    23678864.295
  23161218.464    -7138200.03743  -5341652.88242  23161221.039    23161221.524
  20269659.039   -22968685.23844 -17855311.72742  20269660.558    20269658.538
  21670821.270   -20129500.26543 -15669260.54242  21670823.359    21670821.814
  20926123.854   -26103918.91844 -20287636.54942  20926126.043    20926122.764
  21955110.328   -19778168.60643 -15373789.64542  21955111.557    21955111.757
 03  4  3  0 25  0.0000000  0  8G14G 3G 9G31G15G23G18G17
  21520872.996   -20354949.96643 -15815794.36442  21520875.900    21520874.438
  21711816.755   -13802884.75943 -10748291.72742  21711818.956    21711818.000
  23672156.795    -5611607.18743  -4341217.29342  23672159.891    23672161.488
  23148712.850    -7203914.98943  -5392859.21842  23148715.364    23148716.161
  20271946.808   -22956662.79544 -17845943.57742  20271948.325    20271946.362
  21679970.068   -20081423.52043 -15631798.13742  21679972.148    21679970.456
  20933787.233   -26063647.48644 -20256256.20542  20933789.384    20933786.240
  21966582.664   -19717881.11543 -15326812.43742  21966583.948    21966584.014
 03  4  3  0 25 30.0000000  0  8G14G 3G 9G31G15G23G18G17
  21505372.477   -20436405.10943 -15879265.75642  21505375.372    21505373.905
  21708510.852   -13820257.11543 -10761828.59942  21708513.040    21708512.063
  23665546.206    -5646345.34343  -4368285.82542  23665549.168    23665550.931
  23136296.753    -7269162.33743  -5443701.22642  23136299.039    23136299.711
  20274307.824   -22944255.89644 -17836275.85042  20274309.304    20274307.336
  21689140.990   -20033229.77743 -15594244.56942  21689143.109    21689141.370
  20941491.640   -26023160.42444 -20224707.83142  20941493.800    20941490.743
  21978115.314   -19657276.76443 -15279588.30642  21978116.560    21978116.786
 03  4  3  0 26  0.0000000  0  8G14G 3G 9G31G15G23G18G17
  21489948.014   -20517460.61643 -15942425.74642  21489950.887    21489949.445
  21705311.783   -13837069.06643 -10774928.80042  21705313.908    21705312.758
  23659026.565    -5680605.55143  -4394981.91242  23659029.468    23659031.252
  23123968.322    -7333949.38743  -5494184.55342  23123970.684    23123971.070
  20276740.226   -22931473.08344 -17826315.19742  20276741.717    20276739.837
  21698332.226   -19984929.43143 -15556607.94142  21698334.337    21698332.652
  20949235.048   -25982468.57744 -20192999.89042  20949237.200    20949234.173
  21989706.509   -19596365.19143 -15232124.79642  21989707.785    21989707.998
 03  4  3  0 26 30.0000000  0  8G14G 3G 9G31G15G23G18G17
  21474599.672   -20598116.29143 -16005274.18142  21474602.564    21474601.142
  21702218.819   -13853322.20943 -10787593.55442  21702221.009    21702219.796
  23652597.847    -5714387.28143  -4421305.18642  23652600.626    23652602.401
  23111727.520    -7398275.79343  -5544308.93642  23111729.855    23111730.043
  20279244.079   -22918315.34344 -17816062.39542  20279245.530    20279243.655
  21707543.200   -19936525.33043 -15518890.46742  21707545.322    21707543.642
  20957016.980   -25941574.64444 -20161134.47542  20957019.132    20957016.034
  22001355.799   -19535148.45943 -15184423.50042  22001357.034    22001357.171
 03  4  3  0 27  0.0000000  0  8G14G 3G 9G31G15G23G18G17
  21459324.504   -20678387.17943 -16067822.78042  21459327.419    21459326.025
  21699229.193   -13869033.01143 -10799835.69742  21699231.383    21699230.233
  23646257.496    -5747705.33543  -4447267.11842  23646260.175    23646261.805
  23099571.301    -7462156.72043  -5594086.17342  23099573.543    23099573.776
  20281816.148   -22904799.03244 -17805530.18742  20281817.607    20281815.801
  21716770.501   -19888035.60143 -15481106.26042  21716772.638    21716770.927
  20964833.855   -25900496.84244 -20129125.78542  20964836.050    20964832.827
  22013059.693   -19473643.26243 -15136497.42542  22013060.964    22013061.258
 03  4  3  0 27 30.0000000  0  8G14G 3G 9G31G15G23G18G17
  21444125.546   -20758257.40343 -16130059.18542  21444128.458    21444127.051
  21696345.324   -13884187.48143 -10811644.33642  21696347.505    21696346.519
  23640008.209    -5780543.97843  -4472855.50542  23640010.943    23640012.691
  23087502.889    -7525576.34143  -5643503.97042  23087505.239    23087505.355
  20284459.140   -22890909.71644 -17794707.32242  20284460.658    20284458.790
  21726016.520   -19839447.75443 -15443245.60442  21726018.627    21726016.864
  20972687.996   -25859222.91444 -20096964.28342  20972690.199    20972686.988
  22024821.426   -19411836.23543 -15088336.17042  22024822.632    22024822.793
 03  4  3  0 28  0.0000000  0  8G14G 3G 9G31G15G23G18G17
  21429010.686   -20837686.57043 -16191951.89842  21429013.543    21429012.034
  21693574.747   -13898746.65043 -10822989.10142  21693576.942    21693575.984
  23633858.009    -5812862.56443  -4498038.68142  23633860.671    23633862.521
  23075529.949    -7588494.28343  -5692530.83842  23075532.418    23075532.408
  20287180.637   -22876608.13144 -17783563.20642  20287182.169    20287180.325
  21735288.385   -19790724.26943 -15405279.25042  21735290.489    21735288.562
  20980586.640   -25817715.44444 -20064620.79142  20980588.804    20980585.479
  22036647.771   -19349688.78643 -15039909.64842  22036648.950    22036649.069
 03  4  3  0 28 30.0000000  0  8G14G 3G 9G31G15G23G18G17
  21413974.083   -20916703.81443 -16253523.64142  21413976.994    21413975.425
  21690911.639   -13912741.83543 -10833894.40242  21690913.800    21690912.723
  23627801.206    -5844690.20043  -4522839.29442  23627803.892    23627805.817
  23063647.020    -7650939.77043  -5741189.54842  23063649.465    23063649.564
  20289974.732   -22861924.81144 -17772121.64242  20289976.305    20289974.369
  21744579.737   -19741897.54743 -15367232.46042  21744581.881    21744580.003
  20988523.466   -25776006.99644 -20032120.69742  20988525.605    20988522.239
  22048532.814   -19287232.15843 -14991242.19742  22048533.933    22048534.236
 03  4  3  0 29  0.0000000  0  8G14G 3G 9G31G15G23G18G17
  21399011.731   -20995330.80043 -16314791.28642  21399014.656    21399013.024
  21688351.368   -13926196.22243 -10844378.31042  21688353.549    21688352.319
  23621833.987    -5876048.26743  -4547274.00842  23621836.671    23621838.577
  23051849.583    -7712934.53243  -5789497.04642  23051852.060    23051852.489
  20292837.207   -22846882.61644 -17760400.43542  20292838.798    20292836.772
  21753886.076   -19692992.16143 -15329124.37542  21753888.198    21753886.358
  20996493.777   -25734122.10944 -19999483.11942  20996495.907    20996492.652
  22060472.252   -19224490.74743 -14942352.84942  22060473.312    22060473.567
 03  4  3  0 29 30.0000000  0  8G14G 3G 9G31G15G23G18G17
  21384130.567   -21073531.06243 -16375726.43042  21384133.480    21384131.819
  21685900.465   -13939075.20843 -10854413.85042  21685902.721    21685901.498
  23615963.162    -5906900.52543  -4571314.57942  23615965.823    23615967.293
  23040145.109    -7774442.04643  -5837424.91342  23040147.524    23040147.982
  20295774.534   -22831446.59044 -17748372.34442  20295776.133    20295774.078
  21763213.774   -19643974.75743 -15290929.01242  21763215.878    21763214.032
  21004504.016   -25692027.82444 -19966682.37842  21004506.121    21004502.917
  22072472.189   -19161429.77043 -14893214.49842  22072473.348    22072473.722
 03  4  3  0 30  0.0000000  0  8G14G 3G 9G31G15G23G18G17
  21369330.084   -21151308.41743 -16436332.02742  21369332.918    21369331.109
  21683558.068   -13951384.15943 -10864005.20242  21683560.318    21683559.160
  23610187.542    -5937250.42443  -4594963.68742  23610190.338    23610191.870
  23028532.574    -7835466.29943  -5884976.21942  23028534.923    23028535.294
  20298785.922   -22815621.74344 -17736041.27542  20298787.470    20298785.431
  21772561.480   -19594852.14343 -15252651.65842  21772563.606    21772561.811
  21012552.855   -25649731.01444 -19933723.82042  21012554.981    21012551.738
  22084532.120   -19098055.02343 -14843831.65142  22084533.179    22084533.637
 03  4  3  0 30 30.0000000  0  8G14G 3G 9G31G15G23G18G17
  21354607.566   -21228675.07343 -16496617.60742  21354610.493    21354608.551
  21681321.527   -13963137.28343 -10873163.44942  21681323.793    21681322.682
  23604505.289    -5967110.21943  -4618230.90642  23604508.111    23604509.593
  23017009.589    -7896019.54243  -5932160.51442  23017011.955    23017012.118
  20301868.683   -22799421.64444 -17723417.81342  20301870.242    20301868.151
  21781926.336   -19545639.52743 -15214304.18142  21781928.440    21781926.816
  21020637.338   -25607247.16744 -19900619.53042  21020639.438    21020636.264
  22096648.984   -19034380.90143 -14794215.52442  22096649.972    22096650.520
 03  4  3  0 31  0.0000000  0  8G14G 3G 9G31G15G23G18G17
  21339972.976   -21305579.44843 -16556542.97342  21339975.891    21339973.994
  21679200.243   -13974284.34943 -10881849.43842  21679202.516    21679201.464
  23598925.993    -5996427.78043  -4641075.59742  23598928.772    23598930.562
  23005586.211    -7956049.96543  -5978937.37742  23005588.480    23005588.571
  20305032.512   -22782795.53544 -17710462.39442  20305034.043    20305031.961
  21791317.710   -19496287.92043 -15175848.39242  21791319.808    21791318.125
  21028766.717   -25564527.31744 -19867331.32842  21028768.827    21028765.617
  22108832.061   -18970357.88043 -14744327.51742  22108833.053    22108833.757
 03  4  3  0 31 30.0000000  0  8G14G 3G 9G31G15G23G18G17
  21325418.576   -21382063.14543 -16616140.53142  21325421.429    21325419.586
  21677186.010   -13984868.96143 -10890097.15142  21677188.219    21677187.195
  23593442.068    -6025245.02443  -4663530.45542  23593444.780    23593446.695
  22994254.301    -8015599.55643  -6025339.55442  22994256.659    22994256.672
  20308269.195   -22765786.55744 -17697208.63842  20308270.718    20308268.720
  21800726.890   -19446842.29143 -15137319.34442  21800728.995    21800727.337
  21036932.391   -25521616.37244 -19833894.22942  21036934.516    21036931.321
  22121073.353   -18906030.20543 -14694202.13942  22121074.368    22121074.888
 03  4  3  0 32  0.0000000  0  8G14G 3G 9G31G15G23G18G17
  21310946.856   -21458111.65143 -16675398.99342  21310949.748    21310947.983
  21675281.264   -13994878.55843 -10897896.81842  21675283.405    21675282.211
  23588056.296    -6053547.65943  -4685584.27442  23588058.838    23588060.577
  22983016.492    -8074653.99843  -6071355.90742  22983018.970    22983018.894
  20311581.323   -22748381.56444 -17683646.30342  20311582.827    20311580.765
  21810156.130   -19397291.11243 -15098708.04242  21810158.201    21810156.636
  21045136.534   -25478503.25744 -19800299.60042  21045138.640    21045135.370
  22133374.855   -18841385.01843 -14643829.34042  22133375.938    22133376.608
 03  4  3  0 32 30.0000000  0  8G14G 3G 9G31G15G23G18G17
  21296552.960   -21533751.14543 -16734338.74442  21296555.810    21296554.090
  21673480.508   -14004340.99843 -10905270.11542  21673482.667    21673481.448
  23582763.503    -6081361.63243  -4707257.35142  23582766.107    23582767.558
  22971867.951    -8133239.27343  -6117006.69642  22971870.495    22971870.296
  20314963.486   -22730607.84744 -17669796.65242  20314965.010    20314963.005
  21819599.984   -19347663.27643 -15060037.02142  21819602.007    21819600.467
  21053373.640   -25435216.96944 -19766570.02642  21053375.729    21053372.352
  22145731.480   -18776450.77343 -14593231.29942  22145732.589    22145733.411
 03  4  3  0 33  0.0000000  0  8G14G 3G 9G31G15G23G18G17
  21282236.136   -21608986.03043 -16792963.21742  21282238.976    21282237.213
  21671782.885   -14013262.35243 -10912221.79542  21671785.094    21671783.793
  23577562.790    -6108691.23343  -4728553.01742  23577565.549    23577566.472
  22960807.800    -8191359.80443  -6162295.31842  22960810.394    22960810.156
  20318414.857   -22712471.02644 -17655664.05642  20318416.336    20318414.356
  21829057.075   -19297966.16943 -15021312.00842  21829059.087    21829057.549
  21061642.298   -25391764.74043 -19732711.15042  21061644.386    21061641.055
  22158142.040   -18711233.87643 -14542413.00942  22158143.115    22158143.844
 03  4  3  0 33 30.0000000  0  8G14G 3G 9G31G15G23G18G17
  21268001.353   -21683790.36043 -16851252.19242  21268004.151    21268002.330
  21670192.600   -14021618.55443 -10918733.08342  21670194.875    21670193.706
  23572459.376    -6135510.59843  -4749451.06742  23572462.060    23572462.388
  22949841.073    -8248989.81843  -6207201.74242  22949843.647    22949843.405
  20321939.926   -22693946.55044 -17641229.39642  20321941.438    20321939.457
  21838531.711   -19248176.80443 -14982515.10842  21838533.732    21838532.141
  21069946.760   -25348123.89943 -19698705.30542  21069948.839    21069945.686
  22170610.728   -18645710.28443 -14491355.74642  22170611.833    22170612.432
 03  4  3  0 34  0.0000000  0  8G14G 3G 9G31G15G23G18G17
  21253851.670   -21758147.26643 -16909192.52142  21253854.471    21253852.559
  21668712.940   -14029394.74643 -10924792.43442  21668715.135    21668713.859
  23567455.848    -6161802.40143  -4769938.14242  23567458.613    23567459.235
  22938970.789    -8306112.52543  -6251712.84342  22938973.339    22938973.288
  20325541.799   -22675018.56644 -17626480.31142  20325543.337    20325541.324
  21848026.558   -19198281.01743 -14943635.29042  21848028.590    21848026.989
  21078289.891   -25304280.47344 -19664541.60642  21078291.941    21078288.832
  22183140.602   -18579865.44943 -14440048.15342  22183141.677    22183142.325
 03  4  3  0 34 30.0000000  0  8G14G 3G 9G31G15G23G18G17
  21239791.551   -21832032.81943 -16966765.56842  21239794.372    21239792.447
  21667347.763   -14036568.77343 -10930382.56642  21667349.948    21667348.619
  23562557.681    -6187543.02343  -4789995.66442  23562560.517    23562561.012
  22928201.757    -8362704.01343  -6295810.02242  22928204.221    22928204.182
  20329224.771   -22655664.33144 -17611399.08042  20329226.298    20329224.280
  21857545.727   -19148257.65243 -14904656.05342  21857547.770    21857546.145
  21086675.539   -25260213.60844 -19630203.80042  21086677.598    21086674.499
  22195735.948   -18513677.37743 -14388473.10342  22195736.973    22195737.610
 03  4  3  0 35  0.0000000  0  8G14G 3G 9G31G15G23G18G17
  21225814.234   -21905483.83243 -17024000.01342  21225817.075    21225815.084
  21666089.889   -14043179.26243 -10935533.58442  21666092.013    21666090.702
  23557757.303    -6212769.20943  -4809652.34142  23557760.196    23557760.592
  22917526.903    -8418801.28543  -6339522.10442  22917529.376    22917529.290
  20332981.583   -22635922.05444 -17596015.47142  20332983.086    20332981.138
  21867081.548   -19098146.54943 -14865608.44942  21867083.613    21867081.957
  21095096.063   -25215963.08444 -19595722.87942  21095098.169    21095095.142
  22208388.927   -18447185.00043 -14336660.90642  22208390.054    22208390.799
 03  4  3  0 35 30.0000000  0  8G14G 3G 9G31G15G23G18G17
  21211920.448   -21978495.53743 -17080892.14142  21211923.351    21211921.303
  21664939.615   -14049223.17243 -10940243.08842  21664941.802    21664940.674
  23553055.496    -6237476.11443  -4828904.35942  23553058.434    23553058.677
  22906946.913    -8474399.61843  -6382845.39742  22906949.373    22906949.296
  20336812.909   -22615788.12044 -17580326.68042  20336814.422    20336812.526
  21876634.561   -19047945.56343 -14826490.80542  21876636.594    21876634.839
  21103552.107   -25171526.91544 -19561097.29842  21103554.217    21103551.056
  22221100.595   -18380385.68543 -14284609.55342  22221101.788    22221102.391
 03  4  3  0 36  0.0000000  0  8G14G 3G 9G31G15G23G18G17
  21198104.756   -22051096.35843 -17137464.10342  21198107.680    21198105.660
  21663891.608   -14054730.84343 -10944534.76142  21663893.760    21663892.648
  23548446.902    -6261692.23343  -4847773.98642  23548449.889    23548450.223
  22896456.192    -8529527.39843  -6425802.01842  22896458.683    22896458.756
  20340713.169   -22595291.87844 -17564355.56142  20340714.659    20340712.866
  21886198.666   -18997685.92443 -14787327.46142  21886200.730    21886198.962
  21112037.465   -25126936.63044 -19526351.63642  21112039.597    21112036.295
  22233864.723   -18313310.26743 -14232343.07942  22233866.035    22233866.444
 03  4  3  0 36 30.0000000  0  8G14G 3G 9G31G15G23G18G17
  21184380.759   -22123216.24843 -17193661.31042  21184383.620    21184381.550
  21662958.607   -14059634.11843 -10948355.47242  21662960.773    21662959.627
  23543945.407    -6285347.48743  -4866206.52842  23543948.238    23543948.352
  22886068.405    -8584114.83843  -6468337.58542  22886070.774    22886070.961
  20344695.524   -22574364.67644 -17548048.63542  20344696.964    20344695.176
  21895786.660   -18947300.32943 -14748065.96042  21895788.766    21895787.057
  21120564.879   -25082125.02844 -19491433.51342  21120567.034    21120563.664
  22246694.214   -18245890.53643 -14179808.27942  22246695.568    22246696.079
 03  4  3  0 37  0.0000000  0  8G14G 3G 9G31G15G23G18G17
  21170738.366   -22194906.83343 -17249524.00242  21170741.221    21170739.182
  21662130.287   -14063986.54043 -10951746.94842  21662132.479    21662131.338
  23539540.930    -6308493.60543  -4884242.30942  23539543.650    23539543.478
  22875773.560    -8638213.48943  -6510492.30442  22875776.004    22875776.211
  20348749.721   -22553059.42444 -17531447.12042  20348751.215    20348749.403
  21905388.254   -18896843.07243 -14708748.63442  21905390.371    21905388.707
  21129124.000   -25037146.52444 -19456385.33242  21129126.163    21129122.772
  22259579.332   -18178179.62843 -14127046.60742  22259580.701    22259581.170
 03  4  3  0 37 30.0000000  0  8G14G 3G 9G31G15G23G18G17
  21157177.407   -22266169.55943 -17305053.29842  21157180.218    21157178.239
  21661406.221   -14067791.19543 -10954711.60042  21661408.362    21661407.226
  23535233.020    -6331131.76743  -4901882.30542  23535235.627    23535235.900
  22865571.849    -8691824.73543  -6552267.22542  22865574.243    22865574.399
  20352875.455   -22531378.51144 -17514552.89042  20352876.972    20352875.132
  21915002.919   -18846318.06843 -14669378.51042  21915005.003    21915003.272
  21137714.021   -24992005.31844 -19421210.37842  21137716.181    21137712.897
  22272519.137   -18110181.16443 -14074060.86942  22272520.462    22272521.049
 03  4  3  0 38  0.0000000  0  8G14G 3G 9G31G15G23G18G17
  21143706.031   -22336962.12143 -17360216.22142  21143708.793    21143706.752
  21660794.091   -14071007.88543 -10957218.08442  21660796.237    21660795.125
  23531029.849    -6353219.71043  -4919093.58642  23531032.537    23531032.779
  22855470.539    -8744906.54343  -6593629.59242  22855473.002    22855473.308
  20357080.493   -22509281.09144 -17497334.11242  20357082.045    20357080.122
  21924637.990   -18795685.81443 -14629924.81942  21924640.071    21924638.270
  21146342.476   -24946662.29044 -19385878.15942  21146344.649    21146341.389
  22285521.043   -18041855.11843 -14020819.85842  22285522.352    22285523.244
 03  4  3  0 38 30.0000000  0  8G14G 3G 9G31G15G23G18G17
  21130318.876   -22407311.71943 -17415033.98442  21130321.616    21130319.600
  21660288.305   -14073665.81843 -10959289.17842  21660290.459    21660289.258
  23526925.553    -6374784.86743  -4935897.52742  23526928.405    23526928.696
  22845465.066    -8797486.24143  -6634600.72642  22845467.461    22845467.710
  20361359.336   -22486795.38144 -17479812.77042  20361360.931    20361358.955
  21934287.705   -18744976.30743 -14590410.93442  21934289.815    21934287.973
  21155003.693   -24901147.25044 -19350411.89942  21155005.865    21155002.636
  22298579.896   -17973230.76643 -13967346.39942  22298581.068    22298582.143
 03  4  3  0 39  0.0000000  0  8G14G 3G 9G31G15G23G18G17
  21117023.667   -22477178.37543 -17469475.42742  21117026.389    21117024.356
  21659896.079   -14075727.01843 -10960895.28642  21659898.280    21659896.992
  23522928.733    -6395787.48943  -4952263.10842  23522931.475    23522932.200
  22835562.681    -8849524.03043  -6675149.57642  22835565.054    22835565.061
  20365719.442   -22463882.76844 -17461958.77842  20365721.015    20365719.057
  21943959.239   -18694152.17043 -14550807.72142  21943961.330    21943959.478
  21163704.718   -24855423.15544 -19314782.73242  21163706.867    21163703.583
  22311702.630   -17904270.31443 -13913611.05942  22311703.823    22311704.945
 03  4  3  0 39 30.0000000  0  8G14G 3G 9G31G15G23G18G17
  21103814.649   -22546592.19944 -17523564.00942  21103817.369    21103815.273
  21659611.377   -14077223.27243 -10962061.16442  21659613.535    21659612.291
  23519033.344    -6416257.25543  -4968213.49942  23519036.015    23519036.965
  22825757.585    -8901049.73043  -6715299.38642  22825760.060    22825759.839
  20370154.952   -22440574.30144 -17443796.33042  20370156.501    20370154.454
  21953646.294   -18643245.79843 -14511140.43642  21953648.373    21953646.631
  21172439.322   -24809522.62944 -19279016.09042  21172441.451    21172438.201
  22324883.563   -17835005.37943 -13859638.47342  22324884.673    22324885.580
 03  4  3  0 40  0.0000000  0  8G14G 3G 9G31G15G23G18G17
  21090693.964   -22615541.23243 -17577290.42342  21090696.754    21090694.626
  21659436.106   -14078144.41043 -10962778.90742  21659438.242    21659437.003
  23515241.834    -6436182.11943  -4983739.30042  23515244.419    23515245.508
  22816052.136    -8952051.65343  -6755041.06542  22816054.647    22816054.349
  20374667.823   -22416858.98044 -17425316.85542  20374669.371    20374667.298
  21963350.879   -18592247.83943 -14471401.78242  21963352.929    21963351.276
  21181209.297   -24763436.34744 -19243104.70242  21181211.395    21181208.128
  22338123.863   -17765426.34543 -13805421.08742  22338125.117    22338125.984
 03  4  3  0 40 30.0000000  0  8G14G 3G 9G31G15G23G18G17
  21077652.078   -22684076.34244 -17630694.29842  21077654.882    21077652.712
  21659360.130   -14078543.47243 -10963089.83942  21659362.303    21659361.022
  23511544.219    -6455613.25643  -4998880.35842  23511546.807    23511547.895
  22806436.597    -9002580.74943  -6794414.31342  22806439.108    22806438.834
  20379248.140   -22392789.15544 -17406561.13942  20379249.694    20379247.603
  21973062.792   -18541211.82843 -14431633.46542  21973064.825    21973063.232
  21190004.254   -24717218.12144 -19207090.49842  21190006.362    21190003.180
  22351414.189   -17695585.97043 -13751000.08742  22351415.306    22351416.119
 03  4  3  0 41  0.0000000  0  8G14G 3G 9G31G15G23G18G17
  21064699.684   -22752141.27143 -17683731.79242  21064702.473    21064700.191
  21659393.825   -14078365.99943 -10962951.52542  21659396.039    21659394.749
  23507951.144    -6474494.62643  -5013593.02142  23507953.808    23507954.794
  22796921.920    -9052580.89543  -6833375.39142  22796924.340    22796924.021
  20383906.477   -22368309.75044 -17387486.28242  20383908.027    20383905.863
  21982792.102   -18490084.04643 -14391793.64742  21982794.194    21982792.592
  21198834.607   -24670814.35744 -19170931.71542  21198836.672    21198833.542
  22364764.344   -17625430.02643 -13696333.18942  22364765.636    22364766.317
 03  4  3  0 41 30.0000000  0  8G14G 3G 9G31G15G23G18G17
  21051836.976   -22819734.92444 -17736402.06642  21051839.742    21051837.396
  21659536.940   -14077613.20343 -10962364.90542  21659539.195    21659538.016
  23504462.895    -6492825.08343  -5027876.36642  23504465.488    23504466.551
  22787507.888    -9102051.22343  -6871923.60942  22787510.347    22787510.037
  20388642.579   -22343421.06644 -17368092.49742  20388644.140    20388642.070
  21992538.563   -18438866.00743 -14351883.49542  21992540.688    21992539.118
  21207699.880   -24624226.81544 -19134629.73042  21207701.962    21207698.889
  22378174.465   -17554959.83343 -13641421.42842  22378175.753    22378176.352
 03  4  3  0 42  0.0000000  0  8G14G 3G 9G31G15G23G18G17
  21039062.604   -22886864.25443 -17788710.53142  21039065.396    21039063.002
  21659788.091   -14076293.49343 -10961336.54342  21659790.297    21659789.153
  23501078.552    -6510611.55143  -5041735.79042  23501081.089    23501081.651
  22778193.496    -9150998.48043  -6910064.21842  22778195.899    22778195.580
  20393455.172   -22318130.78444 -17348385.76742  20393456.679    20393454.698
  22002300.572   -18387566.75243 -14311910.06142  22002302.628    22002301.040
  21216598.448   -24577464.57744 -19098191.62342  21216600.537    21216597.469
  22391642.999   -17484183.58843 -13586271.18842  22391644.315    22391644.641
 03  4  3  0 42 30.0000000  0  8G14G 3G 9G31G15G23G18G17
  21026375.483   -22953535.13744 -17840661.75842  21026378.260    21026375.850
  21660145.467   -14074415.08843 -10959872.84342  21660147.688    21660146.500
  23497795.898    -6527860.09743  -5055176.11842  23497798.424    23497799.401
  22768977.383    -9199428.97443  -6947802.15942  22768979.849    22768979.546
  20398342.921   -22292445.73744 -17328371.44542  20398344.403    20398342.374
  22012076.251   -18336194.97043 -14271880.10742  22012078.351    22012076.704
  21225528.568   -24530536.62544 -19061624.38642  21225530.715    21225527.577
  22405167.772   -17413109.84243 -13530889.11742  22405169.007    22405169.520
 03  4  3  0 43  0.0000000  0  8G14G 3G 9G31G15G23G18G17
  21013777.233   -23019738.91844 -17892249.01442  21013780.027    21013777.633
  21660610.450   -14071971.47243 -10957968.71042  21660612.637    21660611.466
  23494617.499    -6544562.47343  -5068190.84942  23494619.918    23494621.050
  22759861.330    -9247334.19843  -6985130.79942  22759863.843    22759863.557
  20403307.140   -22266358.63444 -17308043.83642  20403308.612    20403306.530
  22021866.902   -18284744.44343 -14231788.80142  22021869.009    22021867.387
  21234491.393   -24483437.04444 -19024923.40442  21234493.556    21234490.281
  22418750.522   -17341732.05343 -13475270.13442  22418751.710    22418752.256
 03  4  3  0 43 30.0000000  0  8G14G 3G 9G31G15G23G18G17
  21001276.225   -23085432.22344 -17943438.48642  21001278.955    21001276.462
  21661190.981   -14068920.85943 -10955591.59442  21661193.137    21661191.949
  23491551.484    -6560674.96543  -5080745.89642  23491553.825    23491554.746
  22750853.530    -9294670.53243  -7022016.17742  22750856.088    22750855.703
  20408355.838   -22239827.11244 -17287369.92142  20408357.331    20408355.323
  22031680.427   -18233173.86943 -14191603.93342  22031682.527    22031680.945
  21243494.566   -24436124.82644 -18988056.74042  21243496.733    21243493.458
  22432399.158   -17270008.28743 -13419381.56642  22432400.385    22432400.998
 03  4  3  0 44  0.0000000  0  8G14G 3G 9G31G15G23G18G17
  20988862.874   -23150663.87444 -17994268.24142  20988865.653    20988863.200
  21661877.405   -14065314.11943 -10952781.14542  21661879.603    21661878.238
  23488587.966    -6576246.42843  -5092879.40042  23488590.237    23488591.641
  22741944.658    -9341487.06843  -7058496.50742  22741947.181    22741946.658
  20413479.766   -22212900.93744 -17266388.48442  20413481.259    20413479.185
  22041507.197   -18181534.47543 -14151365.44642  22041509.246    22041507.620
  21252528.416   -24388651.32744 -18951064.39642  21252530.592    21252527.384
  22446103.978   -17197989.21043 -13363262.87842  22446105.094    22446105.912
 03  4  3  0 44 30.0000000  0  8G14G 3G 9G31G15G23G18G17
  20976537.547   -23215433.90644 -18044738.28642  20976540.304    20976537.822
  21662669.107   -14061153.24943 -10949538.90742  21662671.334    21662670.040
  23485727.938    -6591277.20943  -5104591.60342  23485730.232    23485731.307
  22733134.629    -9387783.86843  -7094571.86642  22733137.067    22733136.488
  20418678.483   -22185581.39744 -17245100.52642  20418679.937    20418677.923
  22051346.461   -18129828.73243 -14111075.24942  22051348.557    22051346.904
  21261592.515   -24341019.06844 -18913948.35142  21261594.685    21261591.446
  22459864.518   -17125676.80543 -13306915.60742  22459865.706    22459866.535
 03  4  3  0 45  0.0000000  0  8G14G 3G 9G31G15G23G18G17
  20964299.398   -23279745.43244 -18094851.05742  20964302.202    20964299.578
  21663565.335   -14056443.62143 -10945869.06742  21663567.521    21663566.294
  23482970.077    -6605770.67743  -5115885.14942  23482972.309    23482973.306
  22724422.644    -9433564.40043  -7130244.91542  22724425.137    22724424.567
  20423951.247   -22157872.85544 -17223509.44942  20423952.714    20423950.646
  22061197.288   -18078062.18843 -14070737.68642  22061199.426    22061197.824
  21270685.734   -24293233.61244 -18876712.93042  21270687.904    21270684.714
  22473680.140   -17053076.23543 -13250343.82542  22473681.243    22473682.019
 03  4  3  0 45 30.0000000  0  8G14G 3G 9G31G15G23G18G17
  20952149.905   -23343590.56643 -18144600.41142  20952152.771    20952150.082
  21664567.008   -14051179.41343 -10941767.08542  21664569.229    21664568.068
  23480315.520    -6619718.98843  -5126753.88142  23480318.019    23480318.960
  22715810.597    -9478820.89943  -7165509.63042  22715813.051    22715812.337
  20429299.366   -22129768.55844 -17201609.99042  20429300.821    20429298.787
  22071060.715   -18026229.27743 -14030348.39842  22071062.882    22071061.286
  21279809.064   -24245290.02843 -18839354.29042  21279811.238    21279808.097
  22487551.598   -16980181.82443 -13193543.06442  22487552.669    22487553.524
 03  4  3  0 46  0.0000000  0  8G14G 3G 9G31G15G23G18G17
  20940092.736   -23406951.07144 -18193972.13242  20940095.569    20940092.845
  21665677.522   -14045343.88643 -10937219.92842  21665679.674    21665678.475
  23477768.521    -6633103.75543  -5137183.46742  23477770.996    23477771.819
  22707301.805    -9523534.79543  -7200351.56942  22707304.274    22707303.463
  20434726.036   -22101250.88644 -17179388.41842  20434727.535    20434725.579
  22080939.942   -17974313.54343 -13989894.57242  22080942.067    22080940.477
  21288965.704   -24197171.94444 -18801859.68242  21288967.879    21288964.689
  22501481.829   -16906977.16443 -13136500.54242  22501482.968    22501483.868
 03  4  3  0 46 30.0000000  0  8G14G 3G 9G31G15G23G18G17
  20928128.848   -23469821.41644 -18242961.91242  20928131.681    20928128.943
  21666897.333   -14038934.04843 -10932225.26442  21666899.486    21666898.166
  23475329.708    -6645919.70543  -5147169.79142  23475332.236    23475333.012
  22698897.318    -9567701.02043  -7234766.75142  22698899.627    22698898.863
  20440232.257   -22072315.65244 -17156841.48142  20440233.718    20440231.749
  22090835.472   -17922312.03143 -13949373.89442  22090837.580    22090836.019
  21298156.106   -24148876.49644 -18764226.87542  21298158.321    21298155.058
  22515472.195   -16833458.50143 -13079213.37042  22515473.198    22515473.953
 03  4  3  0 47  0.0000000  0  8G14G 3G 9G31G15G23G18G17
  20916254.013   -23532223.83444 -18291587.07242  20916256.856    20916254.113
  21668221.789   -14031973.97643 -10926801.84442  21668224.020    21668222.576
  23472994.755    -6658189.24243  -5156730.39742  23472997.443    23472998.157
  22690592.610    -9611341.89843  -7268772.56242  22690594.904    22690594.204
  20445813.487   -22042985.99444 -17133987.19442  20445814.958    20445812.892
  22100742.767   -17870249.21043 -13908805.46342  22100744.821    22100743.298
  21307375.457   -24100428.41243 -18726475.12042  21307377.677    21307374.407
  22529517.587   -16759650.23443 -13021700.50342  22529518.712    22529519.334
 03  4  3  0 47 30.0000000  0  8G14G 3G 9G31G15G23G18G17
  20904469.826   -23594149.58744 -18339840.81342  20904472.667    20904469.962
  21669652.300   -14024457.07443 -10920944.52942  21669654.458    21669653.056
  23470765.647    -6669903.67243  -5165858.41142  23470768.273    23470768.871
  22682389.601    -9654448.80543  -7302362.29842  22682391.813    22682391.265
  20451471.215   -22013254.37044 -17110819.68942  20451472.698    20451470.632
  22110662.892   -17818118.40743 -13868184.06842  22110664.996    22110663.457
  21316625.008   -24051821.22243 -18688599.39342  21316627.176    21316624.012
  22543619.092   -16685545.41843 -12963956.55642  22543620.337    22543621.172
 03  4  3  0 48  0.0000000  0  8G14G 3G 9G31G15G23G18G17
  20892781.030   -23655574.43244 -18387704.22942  20892783.841    20892781.115
  21671192.954   -14016360.84243 -10914635.79242  21671195.137    21671193.759
  23468646.716    -6681039.12943  -5174535.24742  23468649.412    23468649.694
  22674292.708    -9696997.60243  -7335517.13542  22674295.000    22674294.466
  20457209.836   -21983097.73044 -17087320.99742  20457211.330    20457209.258
  22120600.233   -17765897.55843 -13827492.49742  22120602.311    22120600.716
  21325909.180   -24003033.30644 -18650582.83542  21325911.295    21325908.136
  22557781.528   -16611121.46943 -12905963.94842  22557782.642    22557783.825
 03  4  3  0 48 30.0000000  0  8G14G 3G 9G31G15G23G18G17
  20881188.192   -23716494.12743 -18435174.03142  20881191.009    20881188.411
  21672844.243   -14007683.15443 -10907873.97042  21672846.405    21672845.087
  23466638.452    -6691591.33143  -5182757.63342  23466641.149    23466641.511
  22666302.805    -9738984.12943  -7368233.85742  22666305.089    22666304.658
  20463029.989   -21952512.64144 -17063488.46042  20463031.490    20463029.372
  22130555.051   -17713584.47243 -13786729.05142  22130557.135    22130555.500
  21335227.951   -23954062.67243 -18612423.89842  21335230.114    21335226.891
  22572005.140   -16536375.99743 -12847720.81442  22572006.201    22572007.625
 03  4  3  0 49  0.0000000  0  8G14G 3G 9G31G15G23G18G17
  20869682.375   -23776957.63044 -18482288.35342  20869685.133    20869682.456
  21674596.488   -13998474.89643 -10900698.72042  21674598.649    21674597.319
  23464731.737    -6701609.36443  -5190563.85642  23464734.389    23464735.029
  22658410.789    -9780457.45743  -7400550.68342  22658413.087    22658412.384
  20468922.082   -21921549.17844 -17039361.07842  20468923.620    20468921.508
  22140517.733   -17661230.21543 -13745933.50942  22140519.812    22140518.159
  21344571.768   -23904960.41243 -18574162.41042  21344573.945    21344570.647
  22586280.248   -16461360.13043 -12789266.96942  22586281.351    22586282.835
 03  4  3  0 49 30.0000000  0  8G14G 3G 9G31G15G23G18G17
  20858268.250   -23836939.14544 -18529027.09342  20858271.014    20858268.243
  21676454.091   -13988712.85943 -10893091.95042  21676456.266    21676454.991
  23462931.978    -6711067.99543  -5197934.15442  23462934.564    23462935.127
  22650621.212    -9821392.18043  -7432447.84142  22650623.584    22650622.615
  20474891.015   -21890182.64444 -17014919.62342  20474892.563    20474890.332
  22150492.642   -17608811.33143 -13705087.63742  22150494.717    22150493.123
  21353945.182   -23855703.32843 -18535780.27642  21353947.339    21353943.906
  22600611.173   -16386050.05943 -12730583.89642  22600612.226    22600613.943
 03  4  3  0 50  0.0000000  0  8G14G 3G 9G31G15G23G18G17
  20846945.868   -23896438.40644 -18575390.06242  20846948.665    20846945.815
  21678416.890   -13978398.58343 -10885054.86942  21678419.007    21678417.739
  23461238.403    -6719966.81343  -5204868.24442  23461241.078    23461241.548
  22642934.059    -9861787.96943  -7463925.03142  22642936.443    22642935.543
  20480936.365   -21858413.67244 -16990164.57142  20480937.928    20480935.749
  22160479.571   -17556329.54043 -13664192.75142  22160481.678    22160480.149
  21363347.476   -23806293.40943 -18497279.04942  21363349.673    21363346.283
  22614998.208   -16310447.03143 -12671672.54442  22614999.170    22615000.869
 03  4  3  0 50 30.0000000  0  8G14G 3G 9G31G15G23G18G17
  20835718.583   -23955437.26943 -18621363.10942  20835721.414    20835718.578
  21680487.737   -13967516.06243 -10876574.98742  21680489.863    21680488.575
  23459655.030    -6728288.11743  -5211352.30442  23459657.551    23459658.028
  22635352.945    -9901626.86743  -7494968.27542  22635355.325    22635354.555
  20487061.604   -21826225.14544 -16965082.59442  20487063.142    20487061.073
  22170481.677   -17503768.50943 -13623236.11142  22170483.795    22170482.176
  21372782.055   -23756714.30943 -18458645.99542  21372784.241    21372780.850
  22629443.977   -16234535.08143 -12612520.46442  22629445.078    22629446.480
 03  4  3  0 51  0.0000000  0  8G14G 3G 9G31G15G23G18G17
  20824585.766   -24013940.45244 -18666949.91542  20824588.543    20824585.633
  21682665.571   -13956071.75443 -10867657.34942  21682667.688    21682666.331
  23458180.437    -6736036.55143  -5217390.02642  23458183.047    23458183.680
  22627876.676    -9940913.66443  -7525581.28842  22627879.047    22627878.458
  20493265.621   -21793622.68544 -16939678.07942  20493267.088    20493265.070
  22180497.505   -17451135.05443 -13582223.03742  22180499.651    22180497.926
  21382247.433   -23706973.33243 -18419886.79942  21382249.617    21382246.230
  22643947.159   -16158320.68843 -12553132.71342  22643948.332    22643949.461
 03  4  3  0 51 30.0000000  0  8G14G 3G 9G31G15G23G18G17
  20813544.951   -24071960.56144 -18712160.29242  20813547.724    20813544.756
  21684947.399   -13944080.52843 -10858313.52742  21684949.535    21684948.319
  23456812.400    -6743225.05743  -5222991.39342  23456814.918    23456815.771
  22620503.297    -9979661.13443  -7555774.06042  22620505.605    22620504.908
  20499545.795   -21760619.89844 -16913961.61342  20499547.255    20499545.244
  22190524.333   -17398443.66543 -13541164.85742  22190526.468    22190524.826
  21391740.817   -23657085.18143 -18381012.92742  21391743.002    21391739.610
  22658505.044   -16081818.59643 -12493520.79442  22658506.228    22658507.310
 03  4  3  0 52  0.0000000  0  8G14G 3G 9G31G15G23G18G17
  20802601.804   -24129466.13543 -18756969.75142  20802604.655    20802601.763
  21687338.906   -13931513.19843 -10848520.79742  21687341.034    21687339.752
  23455556.715    -6749822.50143  -5228132.16042  23455559.286    23455559.920
  22613238.402   -10017837.97243  -7585522.18842  22613240.738    22613240.051
  20505908.016   -21727186.41644 -16887909.56042  20505909.461    20505907.477
  22200567.825   -17345664.88643 -13500038.56042  22200569.920    22200568.440
  21401267.775   -23607020.73143 -18342001.67842  21401269.945    21401266.569
  22673123.331   -16004998.91943 -12433661.40942  22673124.527    22673125.754
 03  4  3  0 52 30.0000000  0  8G14G 3G 9G31G15G23G18G17
  20791751.645   -24186483.99244 -18801399.16242  20791754.445    20791751.495
  21689834.600   -13918398.43743 -10838301.50242  21689836.752    21689835.309
  23454408.564    -6755855.55343  -5232833.16442  23454411.061    23454411.815
  22606077.109   -10055470.99143  -7614846.55442  22606079.414    22606078.765
  20512346.884   -21693349.81344 -16861543.37442  20512348.391    20512346.395
  22210622.542   -17292827.24143 -13458866.39742  22210624.582    22210623.215
  21410822.831   -23556808.70544 -18302875.42942  21410825.015    21410821.649
  22687796.817   -15927889.93343 -12373576.57542  22687798.074    22687799.341
 03  4  3  0 53  0.0000000  0  8G14G 3G 9G31G15G23G18G17
  20780993.274   -24243018.94544 -18845452.28942  20780996.116    20780993.132
  21692433.043   -13904743.24243 -10827661.08342  21692435.245    21692433.849
  23453366.962    -6761329.34443  -5237098.39542  23453369.359    23453370.078
  22599018.301   -10092565.30243  -7643751.13542  22599020.648    22599019.921
  20518861.387   -21659116.13244 -16834867.78842  20518862.878    20518860.780
  22220687.106   -17239937.49843 -13417653.63242  22220689.088    22220687.796
  21420404.670   -23506456.07244 -18263639.62542  21420406.861    21420403.535
  22702523.997   -15850498.48143 -12313271.63942  22702525.344    22702526.636
 03  4  3  0 53 30.0000000  0  8G14G 3G 9G31G15G23G18G17
  20770330.520   -24299051.88244 -18889114.23142  20770333.336    20770330.344
  21695137.572   -13890530.93843 -10816586.55742  21695139.750    21695138.476
  23452435.380    -6766225.43343  -5240913.46342  23452437.792    23452438.448
  22592065.488   -10129102.33843  -7672221.48142  22592067.872    22592067.123
  20525454.782   -21624467.52044 -16807868.87242  20525456.284    20525454.203
  22230764.848   -17186978.89143 -13376387.21442  22230766.798    22230765.479
  21430016.499   -23455946.16444 -18224281.26742  21430018.692    21430015.348
  22717308.279   -15772807.55243 -12252733.34342  22717309.577    22717310.775
 03  4  3  0 54  0.0000000  0  8G14G 3G 9G31G15G23G18G17
  20759763.209   -24354583.08243 -18932385.21742  20759766.029    20759763.060
  21697947.661   -13875763.37943 -10805079.35642  21697949.843    21697948.563
  23451613.590    -6770543.82943  -5244278.36042  23451616.108    23451616.592
  22585218.718   -10165082.09043  -7700257.57242  22585221.092    22585220.356
  20532127.080   -21589404.67644 -16780547.19042  20532128.577    20532126.443
  22240855.366   -17133953.09643 -13335068.44042  22240857.312    22240856.002
  21439657.751   -23405281.06044 -18184801.97642  21439659.946    21439656.584
  22732149.055   -15694819.07243 -12191963.19442  22732150.405    22732151.496
 03  4  3  0 54 30.0000000  0  8G14G 3G 9G31G15G23G18G17
  20749290.572   -24409616.99144 -18975268.69242  20749293.368    20749290.390
  21700862.238   -13860447.30643 -10793144.74842  21700864.395    21700863.082
  23450900.768    -6774289.55343  -5247197.05442  23450903.278    23450903.897
  22578477.019   -10200509.22043  -7727863.06042  22578479.380    22578478.525
  20538876.958   -21553933.32944 -16752907.17142  20538878.470    20538876.501
  22250957.477   -17080866.50443 -13293702.28842  22250959.432    22250958.067
  21449327.229   -23354467.43343 -18145206.94442  21449329.400    21449326.069
  22747045.277   -15616539.18743 -12130965.96342  22747046.614    22747047.647
 03  4  3  0 55  0.0000000  0  8G14G 3G 9G31G15G23G18G17
  20738914.500   -24464143.32644 -19017756.66642  20738917.316    20738914.287
  21703882.663   -13844574.54243 -10780776.35342  21703884.817    21703883.490
  23450298.536    -6777452.49443  -5249661.60942  23450301.223    23450302.011
  22571842.471   -10235373.69043  -7755030.11442  22571844.828    22571843.905
  20545706.561   -21518043.94144 -16724941.41642  20545708.046    20545705.997
  22261072.798   -17027710.56443 -13252282.11342  22261074.798    22261073.270
  21459026.638   -23303496.64444 -18105489.45442  21459028.787    21459025.473
  22761998.592   -15537959.25643 -12069734.96042  22761999.965    22762000.936
 03  4  3  0 55 30.0000000  0  8G14G 3G 9G31G15G23G18G17
  20728630.260   -24518186.68743 -19059868.29942  20728633.100    20728630.094
  21707003.990   -13828172.09643 -10767995.22542  21707006.163    21707004.776
  23449802.915    -6780057.56843  -5251691.49742  23449805.599    23449806.031
  22565310.390   -10269700.35543  -7781778.09242  22565312.697    22565311.796
  20552610.769   -21481762.11644 -16696669.86442  20552612.271    20552610.223
  22271196.246   -16974511.78143 -13210828.52242  22271198.271    22271196.653
  21468750.838   -23252395.65443 -18065670.51242  21468753.000    21468749.623
  22777003.978   -15459105.93143 -12008290.91042  22777005.255    22777006.351
 03  4  3  0 56  0.0000000  0  8G14G 3G 9G31G15G23G18G17
  20718443.224   -24571719.78144 -19101582.31642  20718446.014    20718443.007
  21710230.907   -13811214.59443 -10754781.57842  21710233.052    21710231.693
  23449418.385    -6782077.48443  -5253265.39142  23449421.055    23449421.539
  22558885.741   -10303461.95243  -7808085.75742  22558888.096    22558887.167
  20559594.647   -21445061.43044 -16668071.92142  20559596.151    20559594.166
  22281332.644   -16921244.50843 -13169321.58342  22281334.677    22281333.142
  21478504.704   -23201138.91343 -18025730.19242  21478506.840    21478503.501
  22792066.211   -15379953.54043 -11946613.81142  22792067.344    22792068.709
 03  4  3  0 56 30.0000000  0  8G14G 3G 9G31G15G23G18G17
  20708351.687   -24624750.58144 -19142904.93942  20708354.509    20708351.448
  21713561.553   -13793712.18243 -10741143.34342  21713563.664    21713562.363
  23449143.742    -6783520.74643  -5254389.95142  23449146.460    23449146.878
  22552567.215   -10336666.66443  -7833959.49942  22552569.576    22552568.414
  20566656.596   -21407950.81344 -16639154.55442  20566658.086    20566656.072
  22291480.243   -16867918.27543 -13127768.69342  22291482.289    22291480.754
  21488286.322   -23149736.28243 -17985676.20242  21488288.460    21488285.133
  22807183.672   -15300511.94543 -11884711.36242  22807184.729    22807186.183
 03  4  3  0 57  0.0000000  0  8G14G 3G 9G31G15G23G18G17
  20698357.261   -24677271.38644 -19183830.17642  20698360.054    20698356.963
  21716996.978   -13775658.97843 -10727075.91042  21716999.093    21716997.888
  23448980.282    -6784379.85143  -5255059.29342  23448983.011    23448983.220
  22546355.808   -10369306.92443  -7859393.39142  22546358.218    22546357.061
  20573797.847   -21370423.34844 -16609912.37942  20573799.336    20573797.245
  22301640.321   -16814526.85843 -13086165.01042  22301642.376    22301640.808
  21498096.697   -23098182.05943 -17945504.08142  21498098.840    21498095.588
  22822357.011   -15220775.02843 -11822578.79442  22822358.251    22822359.852
 03  4  3  0 57 30.0000000  0  8G14G 3G 9G31G15G23G18G17
  20688458.946   -24729287.57744 -19224362.19442  20688461.720    20688458.603
  21720535.661   -13757062.74643 -10712585.33642  21720537.800    21720536.635
  23448926.756    -6784660.63143  -5255277.98342  23448929.532    23448929.588
  22540250.833   -10401388.34943  -7884391.84042  22540253.246    22540252.177
  20581017.224   -21332485.47144 -16580350.40142  20581018.677    20581016.457
  22311811.392   -16761077.47043 -13044516.16042  22311813.449    22311811.903
  21507934.526   -23046483.78643 -17905219.72042  21507936.675    21507933.440
  22837585.463   -15140750.05643 -11760221.77642  22837586.580    22837588.164
 03  4  3  0 58  0.0000000  0  8G14G 3G 9G31G15G23G18G17
  20678657.956   -24780791.31844 -19264494.91042  20678660.760    20678657.690
  21724178.885   -13737917.80843 -10697667.21042  21724181.049    21724179.759
  23448984.878    -6784355.34043  -5255040.00442  23448987.693    23448987.609
  22534253.627   -10432903.25843  -7908948.84342  22534256.069    22534255.074
  20588315.890   -21294130.31444 -16550463.26842  20588317.384    20588315.198
  22321994.668   -16707564.05943 -13002817.39842  22321996.732    22321995.165
  21517800.974   -22994635.19843 -17864818.23042  21517803.119    21517799.924
  22852869.809   -15060431.01343 -11697635.60342  22852870.915    22852872.356
 03  4  3  0 58 30.0000000  0  8G14G 3G 9G31G15G23G18G17
  20668954.964   -24831781.21844 -19304227.22042  20668957.698    20668954.513
  21727926.278   -13718224.85043 -10682322.03942  21727928.410    21727927.233
  23449154.571    -6783463.03643  -5254344.62942  23449157.270    23449157.439
  22528364.571   -10463850.44443  -7933063.48942  22528367.060    22528365.826
  20595694.198   -21255357.22044 -16520250.46142  20595695.647    20595693.581
  22332190.183   -16653986.58743 -12961068.73242  22332192.218    22332190.657
  21527695.914   -22942636.72643 -17824299.95142  21527698.053    21527694.990
  22868210.158   -14979817.88043 -11634820.27842  22868211.249    22868212.612
 03  4  3  0 59  0.0000000  0  8G14G 3G 9G31G15G23G18G17
  20659349.969   -24882255.72044 -19343557.93042  20659352.685    20659349.477
  21731777.950   -13697984.34143 -10666550.21442  21731780.039    21731778.840
  23449435.913    -6781982.37043  -5253190.79942  23449438.581    23449438.978
  22522583.689   -10494228.60143  -7956734.72242  22522586.201    22522584.938
  20603152.075   -21216165.72544 -16489711.63842  20603153.536    20603151.441
  22342397.785   -16600345.20343 -12919270.26842  22342399.862    22342398.336
  21537619.375   -22890488.79143 -17783665.19842  21537621.480    21537618.485
  22883606.378   -14898910.81643 -11571775.90742  22883607.483    22883608.853
 03  4  3  0 59 30.0000000  0  8G14G 3G 9G31G15G23G18G17
  20649840.850   -24932226.36044 -19382496.01842  20649843.584    20649840.316
  21735731.145   -13677210.01243 -10650362.43842  21735733.337    21735731.988
  23449827.416    -6779925.30543  -5251587.82542  23449830.024    23449830.426
  22516908.887   -10524049.46843  -7979971.70042  22516911.349    22516910.212
  20610687.347   -21176568.16744 -16458856.41742  20610688.790    20610686.525
  22352615.014   -16546652.95243 -12877432.16542  22352617.071    22352615.694
  21547568.682   -22838204.65143 -17742924.31142  21547570.791    21547567.771
  22899055.663   -14817723.53543 -11508513.18342  22899056.853    22899058.457
 03  4  3  1  0  0.0000000  0  8G14G 3G 9G31G15G23G18G17
  20640431.316   -24981673.27944 -19421026.01442  20640434.085    20640430.834
  21739789.278   -13655884.20143 -10633744.92042  21739791.467    21739790.119
  23450332.051    -6777272.32743  -5249520.49442  23450334.611    23450335.298
  22511343.885   -10553293.47643  -8002759.17742  22511346.295    22511345.278
  20618303.310   -21136545.64444 -16427670.02342  20618304.780    20618302.597
  22362845.400   -16492891.53243 -12835540.15742  22362847.420    22362846.202
  21557547.393   -22785766.47943 -17702063.41042  21557549.501    21557546.361
  22914562.087   -14736237.45843 -11445017.65042  22914563.198    22914564.790
 03  4  3  1  0 30.0000000  0  8G14G 3G 9G31G15G23G18G17
  20631116.063   -25030625.02744 -19459170.16142  20631118.802    20631115.546
  21743946.480   -13634037.54443 -10616721.54442  21743948.640    21743947.424
  23450945.055    -6774052.07543  -5247011.14842  23450947.614    23450948.127
  22505883.145   -10581989.16443  -8025119.40242  22505885.564    22505884.546
  20625994.641   -21096127.51144 -16396175.37342  20625996.058    20625993.910
  22373083.388   -16439090.84443 -12793617.55142  22373085.405    22373084.147
  21567549.824   -22733203.91443 -17661105.58242  21567551.943    21567548.600
  22930119.602   -14654482.78743 -11381312.82242  22930120.708    22930122.172
 03  4  3  1  1  0.0000000  0  8G14G 3G 9G31G15G23G18G17
  20621897.109   -25079070.81344 -19496920.05242  20621899.851    20621896.547
  21748204.593   -13611661.60943 -10599285.75442  21748206.679    21748205.501
  23451667.692    -6770254.44443  -5244051.92642  23451670.393    23451670.778
  22500528.896   -10610126.06443  -8047044.22042  22500531.322    22500530.170
  20633763.102   -21055303.91644 -16364364.77942  20633764.511    20633762.470
  22383330.519   -16385241.63243 -12751657.13542  22383332.578    22383331.225
  21577577.517   -22680508.23143 -17620044.01942  21577579.664    21577576.249
  22945729.627   -14572450.83643 -11317391.93242  22945730.713    22945732.496
 03  4  3  1  1 30.0000000  0  8G14G 3G 9G31G15G23G18G17
  20612778.931   -25126986.69144 -19534257.03342  20612781.677    20612778.354
  21752567.575   -13588734.37343 -10581420.37342  21752569.730    21752568.427
  23452504.794    -6765855.66143  -5240624.23142  23452507.367    23452507.484
  22495285.464   -10637680.32943  -8068515.02042  22495287.933    22495286.651
  20641613.268   -21014051.25344 -16332219.84442  20641614.670    20641612.611
  22393591.352   -16331321.15643 -12709641.17742  22393593.360    22393591.946
  21587634.774   -22627656.98143 -17578861.23242  21587636.911    21587633.471
  22961397.020   -14490118.82943 -11253237.21042  22961398.012    22961400.011
 03  4  3  1  2  0.0000000  0  8G14G 3G 9G31G15G23G18G17
  20603763.887   -25174360.87144 -19571171.90642  20603766.607    20603763.291
  21757037.224   -13565246.51443 -10563118.13942  21757039.409    21757038.013
  23453458.410    -6760844.34443  -5236719.24742  23453460.935    23453461.164
  22490155.290   -10664640.66443  -8089523.04242  22490157.638    22490156.085
  20649547.049   -20972358.91544 -16299732.30542  20649548.452    20649546.395
  22403867.533   -16277319.43143 -12667561.92042  22403869.548    22403868.212
  21597723.484   -22574640.42843 -17537549.63642  21597725.643    21597722.146
  22977123.573   -14407476.80343 -11188840.94542  22977124.566    22977126.447
 03  4  3  1  2 30.0000000  0  8G14G 3G 9G31G15G23G18G17
  20594842.184   -25221244.36044 -19607704.42442  20594844.893    20594841.584
  21761603.319   -13541251.00643 -10544420.33342  21761605.518    21761604.159
  23454519.012    -6755271.75143  -5232376.90342  23454521.568    23454521.289
  22485128.168   -10691058.01643  -8110107.92242  22485130.517    22485128.988
  20657554.646   -20930278.67944 -16266942.50942  20657556.044    20657553.965
  22414149.252   -16223288.49343 -12625459.89542  22414151.306    22414150.088
  21607833.716   -22521511.00943 -17496150.10942  21607835.881    21607832.408
  22992898.776   -14324577.49843 -11124244.18042  22992899.917    22992901.772
 03  4  3  1  3  0.0000000  0  8G14G 3G 9G31G15G23G18G17
  20586017.353   -25267618.79844 -19643840.28142  20586020.070    20586016.700
  21766269.056   -13516731.54543 -10525314.25542  21766271.252    21766270.015
  23455689.428    -6749120.17543  -5227583.38542  23455692.161    23455692.059
  22480207.671   -10716914.36443  -8130255.66342  22480209.993    22480208.772
  20665639.362   -20887793.00644 -16233836.80042  20665640.779    20665638.618
  22424439.810   -16169211.40243 -12583321.90742  22424441.881    22424440.615
  21617968.572   -22468251.88243 -17454649.51942  21617970.724    21617967.366
  23008726.273   -14241403.78643 -11059433.59942  23008727.386    23008729.383
 03  4  3  1  3 30.0000000  0  8G14G 3G 9G31G15G23G18G17
  20577288.849   -25313486.80443 -19679581.52242  20577291.565    20577288.241
  21771033.798   -13491692.81443 -10505803.55042  21771035.949    21771034.700
  23456969.565    -6742392.02243  -5222340.61842  23456972.275    23456972.429
  22475393.582   -10742212.48843  -8149968.42742  22475395.867    22475394.784
  20673800.753   -20844905.16044 -16200417.71342  20673802.177    20673799.900
  22434738.394   -16115092.02843 -12541150.97542  22434740.474    22434739.149
  21628127.298   -22414867.31843 -17413051.17242  21628129.440    21628126.118
  23024605.032   -14157960.23143 -10994412.75742  23024606.155    23024608.202
 03  4  3  1  4  0.0000000  0  8G14G 3G 9G31G15G23G18G17
  20568663.162   -25358814.91844 -19714902.06242  20568665.841    20568662.539
  21775903.309   -13466103.55043 -10485863.86342  21775905.539    21775904.192
  23458365.969    -6735054.65243  -5216623.12342  23458368.670    23458368.608
  22470692.072   -10766919.12643  -8169220.33142  22470694.399    22470693.196
  20682044.819   -20801582.55144 -16166659.84642  20682046.301    20682043.948
  22445051.133   -16060898.04143 -12498921.90442  22445053.207    22445051.869
  21638316.021   -22361325.25143 -17371330.09942  21638318.130    21638314.894
  23040541.437   -14074214.89843 -10929156.77942  23040542.551    23040544.260
 03  4  3  1  4 30.0000000  0  8G14G 3G 9G31G15G23G18G17
  20560132.634   -25403643.04744 -19749833.00842  20560135.331    20560131.998
  21780869.470   -13440005.90543 -10465528.02842  21780871.742    21780870.466
  23459870.298    -6727148.26143  -5210462.24442  23459873.051    23459872.922
  22466095.397   -10791074.41243  -8188042.60142  22466097.719    22466096.497
  20690363.715   -20757865.86344 -16132594.89842  20690365.227    20690363.110
  22455370.290   -16006670.77343 -12456666.90342  22455372.344    22455371.035
  21648526.892   -22307666.94443 -17329518.44442  21648528.983    21648525.730
  23056527.369   -13990209.15643 -10863697.86242  23056528.520    23056529.896
 03  4  3  1  5  0.0000000  0  8G14G 3G 9G31G15G23G18G17
  20551705.253   -25447928.75144 -19784341.28942  20551707.996    20551704.667
  21785940.074   -13413359.91943 -10444764.91742  21785942.326    21785941.047
  23461491.086    -6718630.88143  -5203825.28042  23461493.757    23461493.604
  22461611.622   -10814636.28743  -8206402.44542  22461613.927    22461612.745
  20698765.482   -20713713.65344 -16098190.57942  20698766.960    20698765.040
  22465703.519   -15952369.15843 -12414353.95042  22465705.587    22465704.306
  21658767.433   -22253851.88443 -17287584.64242  21658769.534    21658766.468
  23072570.527   -13905902.69143 -10798004.63042  23072571.708    23072573.011
 03  4  3  1  5 30.0000000  0  8G14G 3G 9G31G15G23G18G17
  20543373.247   -25491713.58344 -19818459.27742  20543375.978    20543372.539
  21791106.672   -13386209.06143 -10423608.40042  21791108.942    21791107.625
  23463220.218    -6709544.29043  -5196744.77142  23463222.759    23463222.815
  22457232.983   -10837646.37843  -8224332.34342  22457235.245    22457233.952
  20707242.296   -20669167.93544 -16063479.64042  20707243.716    20707241.782
  22476042.791   -15898035.58443 -12372016.11642  22476044.869    22476043.592
  21669029.801   -22199922.85843 -17245562.04242  21669031.885    21669028.774
  23088662.553   -13821338.48043 -10732110.53342  23088663.829    23088665.200
 03  4  3  1  6  0.0000000  0  8G14G 3G 9G31G15G23G18G17
  20535142.836   -25534964.57644 -19852161.29242  20535145.530    20535142.064
  21796375.241   -13358522.55143 -10402034.49742  21796377.409    21796376.100
  23465063.766    -6699856.30743  -5189195.59542  23465066.386    23465066.210
  22452965.560   -10860072.01743  -8241806.82042  22452967.873    22452966.457
  20715800.131   -20624196.84644 -16028437.25142  20715801.573    20715799.522
  22486394.308   -15843638.39343 -12329628.71042  22486396.377    22486394.958
  21679319.933   -22145848.33043 -17203426.06642  21679322.045    21679318.733
  23104809.584   -13736484.75543 -10665990.87342  23104810.947    23104812.344
 03  4  3  1  6 30.0000000  0  8G14G 3G 9G31G15G23G18G17
  20527016.417   -25577669.31044 -19885437.64142  20527019.097    20527015.560
  21801747.589   -13330290.36743 -10380035.38442  21801749.756    21801748.475
  23467023.870    -6689554.78043  -5181168.32842  23467026.601    23467026.120
  22448811.495   -10881901.30943  -8258816.61842  22448813.826    22448812.453
  20724440.902   -20578788.93444 -15993054.48242  20724442.366    20724440.314
  22496759.993   -15789166.35443 -12287182.98342  22496762.039    22496760.635
  21689639.743   -22091617.50043 -17161168.27742  21689641.875    21689638.458
  23121013.805   -13651330.87743 -10599637.30342  23121015.121    23121016.805
 03  4  3  1  7  0.0000000  0  8G14G 3G 9G31G15G23G18G17
  20518987.152   -25619862.92943 -19918315.72542  20518989.858    20518986.322
  21807216.795   -13301549.71343 -10357640.06642  21807218.944    21807217.768
  23469094.080    -6678675.03043  -5172690.54342  23469096.834    23469096.500
  22444764.308   -10903169.21843  -8275388.97142  22444766.589    22444765.237
  20733158.108   -20532979.85744 -15957359.10942  20733159.510    20733157.444
  22507133.107   -15734655.70443 -12244707.16042  22507135.142    22507133.645
  21699982.364   -22037266.60043 -17118816.93442  21699984.480    21699981.140
  23137268.529   -13565913.11243 -10533078.13242  23137269.710    23137271.368
 03  4  3  1  7 30.0000000  0  8G14G 3G 9G31G15G23G18G17
  20511055.257   -25661545.19044 -19950795.35142  20511057.937    20511054.377
  21812782.370   -13272302.28243 -10334849.84342  21812784.469    21812783.361
  23471274.340    -6667217.27043  -5163762.40942  23471276.928    23471276.731
  22440823.777   -10923876.01643  -8291524.10242  22440826.080    22440824.847
  20741951.493   -20486770.28344 -15921351.66742  20741952.914    20741950.825
  22517513.361   -15680107.32443 -12202201.93842  22517515.404    22517513.835
  21710347.631   -21982796.93143 -17076373.03842  21710349.716    21710346.325
  23153572.715   -13480233.03243 -10466314.54642  23153574.089    23153575.873
 03  4  3  1  8  0.0000000  0  8G14G 3G 9G31G15G23G18G17
  20503222.310   -25702707.50044 -19982869.81542  20503224.985    20503221.374
  21818445.702   -13242541.73743 -10311659.80342  21818447.760    21818446.526
  23473566.121    -6655173.58443  -5154377.64642  23473568.667    23473568.236
  22436991.803   -10944013.31343  -8307215.46142  22436994.032    22436992.854
  20750822.676   -20440152.15244 -15885025.86542  20750824.075    20750822.013
  22527902.120   -15625513.61543 -12159661.40442  22527904.194    22527902.679
  21720736.819   -21928201.25343 -17033830.94842  21720738.911    21720735.550
  23169928.426   -13394283.85243 -10399341.27742  23169929.714    23169931.578
 03  4  3  1  8 30.0000000  0  8G14G 3G 9G31G15G23G18G17
  20495490.022   -25743340.48043 -20014531.80742  20495492.726    20495489.103
  21824207.950   -13212260.62043 -10288064.11742  21824210.038    21824208.831
  23475971.036    -6642535.19943  -5144529.49442  23475973.603    23475973.256
  22433269.802   -10963571.94943  -8322455.91542  22433272.020    22433270.886
  20759773.173   -20393116.84544 -15848374.98842  20759774.580    20759772.606
  22538301.168   -15570866.18643 -12117079.00142  22538303.252    22538301.784
  21731151.473   -21873471.44143 -16991184.33442  21731153.616    21731150.317
  23186337.206   -13308057.39043 -10332151.96042  23186338.425    23186339.940
 03  4  3  1  9  0.0000000  0  8G14G 3G 9G31G15G23G18G17
  20487862.504   -25783422.83643 -20045764.75742  20487865.193    20487861.667
  21830072.949   -13181440.12943 -10264048.14742  21830075.018    21830073.750
  23478493.366    -6629281.08143  -5134201.56542  23478495.875    23478495.532
  22429662.099   -10982530.80343  -8337229.01742  22429664.339    22429662.971
  20768807.061   -20345643.73744 -15811382.96742  20768808.446    20768806.493
  22548714.366   -15516144.81743 -12074438.98942  22548716.449    22548715.088
  21741595.620   -21818587.24843 -16948417.42242  21741597.772    21741594.467
  23202801.733   -13221534.10943 -10264731.32142  23202802.977    23202804.851
 03  4  3  1  9 30.0000000  0  8G14G 3G 9G31G15G23G18G17
  20480330.263   -25823004.99544 -20076607.93842  20480332.958    20480329.415
  21836030.545   -13150132.85643 -10239652.86842  21836032.671    21836031.301
  23481123.151    -6615461.90543  -5123433.33242  23481125.601    23481125.139
  22426158.736   -11000940.68243  -8351574.32242  22426161.079    22426159.683
  20777914.531   -20297783.87944 -15774089.59142  20777915.949    20777913.970
  22559131.868   -15461400.81443 -12031781.34642  22559133.950    22559132.685
  21752059.300   -21763600.35243 -16905570.48642  21752061.474    21752058.135
  23219313.529   -13134765.85543 -10197119.82742  23219314.511    23219316.322
 03  4  3  1 10  0.0000000  0  8G14G 3G 9G31G15G23G18G17
  20472902.185   -25862039.60343 -20107024.44542  20472904.904    20472901.255
  21842089.337   -13118293.40243 -10214842.90842  21842091.497    21842090.214
  23483869.278    -6601030.80543  -5112188.28142  23483871.652    23483871.364
  22422768.717   -11018754.48243  -8365455.14142  22422771.010    22422769.848
  20787104.450   -20249490.82144 -15736458.65242  20787105.896    20787103.888
  22569562.521   -15406587.66543 -11989069.82042  22569564.622    22569563.255
  21762551.184   -21708465.02243 -16862607.88142  21762553.393    21762550.044
  23235880.497   -13047706.63943 -10129281.60542  23235881.524    23235883.008
 03  4  3  1 10 30.0000000  0  8G14G 3G 9G31G15G23G18G17
  20465571.321   -25900563.07744 -20137042.66942  20465574.067    20465570.441
  21848242.145   -13085960.41643 -10189648.37542  21848244.259    21848243.035
  23486724.820    -6586024.64443  -5100495.13842  23486727.078    23486726.918
  22419485.391   -11036008.83043  -8378900.04342  22419487.642    22419486.345
  20796369.575   -20200801.54344 -15698518.96042  20796371.049    20796369.086
  22579999.209   -15351742.80243 -11946333.58942  22580001.278    22579999.861
  21773064.221   -21653218.55943 -16819558.69642  21773066.441    21773063.128
  23252495.338   -12960394.16143 -10061246.01542  23252496.407    23252498.141
 03  4  3  1 11  0.0000000  0  8G14G 3G 9G31G15G23G18G17
  20458339.378   -25938566.43543 -20166655.62342  20458342.149    20458338.593
  21854490.166   -13053127.09543 -10164063.98242  21854492.284    21854490.896
  23489691.437    -6570434.82943  -5088347.16842  23489693.675    23489693.699
  22416310.060   -11052695.07843  -8391902.25942  22416312.269    22416310.857
  20805711.807   -20151707.74844 -15660264.05842  20805713.247    20805711.343
  22590443.419   -15296857.95243 -11903566.18042  22590445.521    22590444.047
  21783599.964   -21597853.02343 -16776416.71242  21783602.177    21783598.817
  23269159.969   -12872821.01743  -9993007.30742  23269160.930    23269163.032
 03  4  3  1 11 30.0000000  0  8G14G 3G 9G31G15G23G18G17
  20451216.879   -25975995.45943 -20195821.03142  20451219.616    20451215.992
  21860843.143   -13019741.37943 -10138049.13742  21860845.338    21860843.957
  23492779.187    -6554207.79143  -5075702.68642  23492781.406    23492781.635
  22413253.066   -11068759.20543  -8404419.70942  22413255.301    22413253.901
  20815141.253   -20102155.77744 -15621652.13542  20815142.733    20815140.807
  22600905.339   -15241879.81343 -11860726.08842  22600907.351    22600905.969
  21794168.328   -21542315.53143 -16733140.73142  21794170.554    21794167.208
  23285884.594   -12784934.04443  -9924524.06642  23285885.314    23285887.544
 03  4  3  1 12  0.0000000  0  8G14G 3G 9G31G15G23G18G17
  20444195.882   -26012891.27944 -20224570.95742  20444198.607    20444194.931
  21867293.128   -12985846.74943 -10111637.75142  21867295.263    21867293.930
  23495980.445    -6537385.30143  -5062594.22142  23495982.777    23495982.861
  22410306.737   -11084242.89843  -8416484.87842  22410308.968    22410307.514
  20824649.834   -20052187.81644 -15582716.06342  20824651.293    20824649.425
  22611376.889   -15186850.53043 -11817846.12942  22611378.917    22611377.608
  21804761.389   -21486648.30543 -16689763.66142  21804763.573    21804760.417
  23302660.348   -12696776.46143  -9855829.98742  23302660.969    23302663.508
 03  4  3  1 12 30.0000000  0  8G14G 3G 9G31G15G23G18G17
  20437270.867   -26049281.73543 -20252927.09542  20437273.651    20437270.031
  21873834.162   -12951473.02243 -10084853.04042  21873836.327    21873835.089
  23499289.418    -6519995.75543  -5049043.87242  23499291.902    23499291.980
  22407465.332   -11099174.12643  -8428119.53442  22407467.615    22407466.252
  20834232.179   -20001832.19544 -15543477.92142  20834233.656    20834231.765
  22621852.967   -15131798.61443 -11774948.52442  22621854.985    22621853.781
  21815373.723   -21430880.40243 -16646308.15142  21815375.865    21815372.739
  23319482.122   -12608377.64343  -9786947.91742  23319482.808    23319485.467
 03  4  3  1 13  0.0000000  0  8G14G 3G 9G31G15G23G18G17
  20430440.255   -26085176.46243 -20280896.95142  20430442.996    20430439.425
  21880464.203   -12916631.90443 -10057704.13242  21880466.295    21880465.139
  23502704.689    -6502049.14143  -5035059.42542  23502707.206    23502707.095
  22404727.313   -11113562.80243  -8439331.45342  22404729.650    22404728.158
  20843886.345   -19951099.33644 -15503945.82142  20843887.796    20843885.966
  22632331.255   -15076734.44143 -11732041.37442  22632333.319    22632332.257
  21826003.171   -21375022.18043 -16602782.25742  21826005.327    21826002.193
  23336348.048   -12519748.19943  -9717886.13442  23336348.722    23336351.330
 03  4  3  1 13 30.0000000  0  8G14G 3G 9G31G15G23G18G17
  20423709.804   -26120545.14744 -20308456.90442  20423712.507    20423708.902
  21887188.614   -12881295.62243 -10030169.38942  21887190.695    21887189.458
  23506231.468    -6483515.64543  -5020617.67042  23506234.022    23506233.822
  22402097.997   -11127379.01043  -8450097.27642  22402100.369    22402098.962
  20853617.925   -19899959.51044 -15464096.60542  20853619.388    20853617.541
  22642817.700   -15021628.44243 -11689101.63342  22642819.765    22642818.570
  21836655.328   -21319044.56343 -16559163.32642  21836657.467    21836654.400
  23353263.020   -12430859.53343  -9648622.33442  23353263.786    23353266.542
 03  4  3  1 14  0.0000000  0  8G14G 3G 9G31G15G23G18G17
  20417088.009   -26155342.92143 -20335571.98942  20417090.678    20417086.967
  21894015.276   -12845421.09543 -10002215.21842  21894017.359    21894016.257
  23509878.431    -6464350.59543  -5005683.83742  23509880.971    23509880.746
  22399586.296   -11140577.81943  -8460382.00242  22399588.570    22399587.277
  20863435.387   -19848368.24244 -15423895.61742  20863436.884    20863434.912
  22653320.466   -14966436.32343 -11646094.79042  22653322.606    22653321.117
  21847338.623   -21262903.60643 -16515417.11842  21847340.754    21847337.643
  23370235.849   -12341667.63043  -9579122.25942  23370236.639    23370239.435
 03  4  3  1 14 30.0000000  0  8G14G 3G 9G31G15G23G18G17
  20410568.143   -26189604.86443 -20362269.55042  20410570.834    20410567.075
  21900937.238   -12809045.68543  -9973870.76642  21900939.336    21900938.243
  23513638.921    -6444589.73343  -4990285.67542  23513641.472    23513641.099
  22397185.428   -11153194.83343  -8470213.40642  22397187.624    22397186.237
  20873332.012   -19796361.44943 -15383370.85542  20873333.490    20873331.496
  22663832.681   -14911193.96343 -11603048.78242  22663834.894    22663833.341
  21858046.238   -21206635.06943 -16471571.51842  21858048.366    21858045.193
  23387259.227   -12252209.55043  -9509414.75742  23387260.117    23387262.933
 03  4  3  1 15  0.0000000  0  8G14G 3G 9G31G15G23G18G17
  20404149.554   -26223334.55243 -20388552.36642  20404152.228    20404148.494
  21907953.507   -12772175.25243  -9945140.58742  21907955.586    21907954.339
  23517511.872    -6424237.37343  -4974426.62442  23517514.495    23517514.040
  22394894.457   -11165234.11443  -8479594.61442  22394896.681    22394895.142
  20883306.704   -19743943.53044 -15342525.72342  20883308.166    20883306.284
  22674353.622   -14855905.61943 -11559966.94642  22674355.822    22674354.348
  21868777.171   -21150243.83743 -16427630.29642  21868779.338    21868776.052
  23404332.498   -12162489.97943  -9439503.54942  23404333.519    23404335.891
 03  4  3  1 15 30.0000000  0  8G14G 3G 9G31G15G23G18G17
  20397827.414   -26256557.53743 -20414440.34942  20397830.040    20397826.295
  21915058.680   -12734837.31443  -9916046.11242  21915060.767    21915059.540
  23521492.284    -6403319.62643  -4958127.00642  23521495.010    23521494.650
  22392708.513   -11176721.47643  -8488545.77442  22392710.789    22392709.196
  20893354.853   -19691140.46644 -15301380.48942  20893356.264    20893354.350
  22684878.464   -14800597.20243 -11516869.49242  22684880.663    22684879.046
  21879526.414   -21093756.08243 -16383613.86642  21879528.577    21879525.262
  23421450.313   -12072535.44343  -9369409.24042  23421451.362    23421453.711
 03  4  3  1 16  0.0000000  0  8G14G 3G 9G31G15G23G18G17
  20391605.629   -26289253.05644 -20439917.31442  20391608.289    20391604.436
  21922256.471   -12697012.90843  -9886572.58042  21922258.593    21922257.316
  23525584.247    -6381815.94843  -4941370.87742  23525587.017    23525586.737
  22390631.250   -11187636.26343  -8497050.75142  22390633.647    22390632.067
  20903480.152   -19637931.72644 -15259919.13842  20903481.555    20903479.606
  22695411.074   -14745248.59143 -11473740.72042  22695413.251    22695411.314
  21890297.824   -21037152.22343 -16339506.97242  21890299.988    21890296.547
  23438616.807   -11982326.39243  -9299116.61042  23438617.770    23438620.140
 03  4  3  1 16 30.0000000  0  8G14G 3G 9G31G15G23G18G17
  20385491.776   -26321381.35143 -20464952.28942  20385494.436    20385490.596
  21929553.872   -12658664.94343  -9856691.07342  21929555.958    21929554.775
  23529795.050    -6359687.55943  -4924127.94242  23529797.895    23529797.702
  22388670.661   -11197939.27143  -8505079.03442  22388673.018    22388671.352
  20913689.993   -19584278.73344 -15218111.61642  20913691.387    20913689.390
  22705958.621   -14689820.91243 -11430550.32242  22705960.829    22705958.909
  21901098.722   -20980393.40243 -16295279.32242  21901100.909    21901097.404
  23455838.727   -11891824.93843  -9228596.12942  23455839.635    23455842.292
 03  4  3  1 17  0.0000000  0  8G14G 3G 9G31G15G23G18G17
  20379475.837   -26352995.19644 -20489586.39242  20379478.519    20379474.676
  21936940.490   -12619848.35743  -9826444.40242  21936942.526    21936941.389
  23534114.569    -6336987.68943  -4906439.72042  23534117.389    23534117.248
  22386816.309   -11207683.61943  -8512671.99342  22386818.606    22386817.072
  20923974.360   -19530234.86644 -15175999.53842  20923975.738    20923973.578
  22716511.211   -14634367.24443 -11387339.65242  22716513.365    22716511.559
  21911918.832   -20923533.31243 -16250972.77042  21911921.034    21911917.534
  23473105.879   -11801085.29343  -9157890.02342  23473106.613    23473109.709
 03  4  3  1 17 30.0000000  0  8G14G 3G 9G31G15G23G18G17
  20373557.115   -26384097.92443 -20513822.22142  20373559.817    20373555.970
  21944415.303   -12580568.34143  -9795836.62742  21944417.381    21944416.152
  23538542.396    -6313720.02943  -4888309.02542  23538545.179    23538544.895
  22385067.693   -11216872.59743  -8519832.18442  22385069.985    22385068.577
  20934332.290   -19475803.66144 -15133585.62142  20934333.737    20934331.516
  22727067.872   -14578891.24043 -11344111.59442  22727069.990    22727068.371
  21922757.441   -20866575.53243 -16206590.10342  21922759.675    21922756.229
  23490417.666   -11710111.53343  -9087001.50242  23490418.396    23490421.532
 03  4  3  1 18  0.0000000  0  8G14G 3G 9G31G15G23G18G17
  20367741.795   -26414657.04743 -20537634.46842  20367744.508    20367740.704
  21951983.952   -12540794.74043  -9764844.22642  21951986.050    21951984.910
  23543084.157    -6289852.85343  -4869711.22242  23543086.913    23543086.781
  22383430.908   -11225474.41443  -8526534.86142  22383433.249    22383431.660
  20944769.829   -19420953.61544 -15090845.33642  20944771.304    20944769.198
  22737634.857   -14523361.23443 -11300841.45642  22737636.884    22737635.310
  21933620.694   -20809488.69643 -16162106.86642  21933622.862    21933619.539
  23507779.822   -11618873.02243  -9015906.71842  23507780.680    23507783.634
 03  4  3  1 18 30.0000000  0  8G14G 3G 9G31G15G23G18G17
  20362029.939   -26444673.13444 -20561023.56442  20362032.638    20362028.745
  21959645.978   -12500530.28843  -9733469.34442  21959648.103    21959646.973
  23547739.723    -6265387.13643  -4850647.00142  23547742.470    23547742.395
  22381905.555   -11233489.93043  -8532780.67142  22381907.859    22381906.177
  20955287.011   -19365685.65843 -15047779.41542  20955288.454    20955286.325
  22748211.967   -14467778.05243 -11257529.89542  22748214.047    22748212.528
  21944508.291   -20752274.10943 -16117524.07742  21944510.452    21944507.205
  23525191.864   -11527371.44543  -8944606.93442  23525192.824    23525195.798
 03  4  3  1 19  0.0000000  0  8G14G 3G 9G31G15G23G18G17
  20356421.618   -26474144.60743 -20583988.29542  20356424.294    20356420.471
  21967401.456   -12459775.38243  -9701712.30142  21967403.532    21967402.305
  23552509.659    -6240321.90443  -4831115.58342  23552512.412    23552512.004
  22380491.988   -11240917.82943  -8538568.58142  22380494.292    22380492.675
  20965883.880   -19309998.73343 -15004387.01042  20965885.317    20965883.224
  22758799.452   -14412140.60243 -11214176.06042  22758801.539    22758800.078
  21955420.221   -20694930.76643 -16072840.94742  21955422.437    21955419.277
  23542654.233   -11435606.39743  -8873101.84542  23542655.250    23542658.238
 03  4  3  1 19 30.0000000  0  8G14G 3G 9G31G15G23G18G17
  20350918.693   -26503062.97844 -20606522.03442  20350921.333    20350917.454
  21975251.352   -12418523.94243  -9669568.33642  21975253.405    21975252.168
  23557394.712    -6214649.13543  -4811110.86842  23557397.508    23557397.260
  22379191.979   -11247750.05643  -8543892.36642  22379194.191    22379192.372
  20976562.057   -19253884.79444 -14960661.88542  20976563.483    20976561.361
  22769398.737   -14356440.82843 -11170773.65042  22769400.765    22769399.292
  21966358.328   -20637451.04743 -16028051.56542  21966360.512    21966357.394
  23560168.223   -11343570.62243  -8801385.78742  23560169.301    23560172.325
 03  4  3  1 20  0.0000000  0  8G14G 3G 9G31G15G23G18G17
  20345514.441   -26531462.19643 -20628651.23742  20345517.131    20345513.210
  21983188.796   -12376811.79543  -9637065.37542  21983190.915    21983189.755
  23562389.023    -6188403.30343  -4790659.53442  23562391.707    23562391.587
  22377998.518   -11254020.85443  -8548778.65742  22378000.790    22377999.002
  20987314.927   -19197378.37944 -14916630.92442  20987316.327    20987314.139
  22780003.453   -14300712.84743 -11127349.28542  22780005.454    22780003.974
  21977315.834   -20579869.61943 -15983182.92742  21977318.019    21977314.824
  23577726.939   -11251299.14743  -8729486.05842  23577728.089    23577731.068
 03  4  3  1 20 30.0000000  0  8G14G 3G 9G31G15G23G18G17
  20340212.028   -26559326.46244 -20650363.59942  20340214.733    20340210.776
  21991216.746   -12334625.16543  -9604192.70042  21991218.823    21991217.632
  23567495.029    -6161569.37443  -4769749.99342  23567497.702    23567497.783
  22376915.084   -11259714.63043  -8553215.35342  22376917.372    22376915.560
  20998145.340   -19140464.21644 -14872282.23842  20998146.748    20998144.575
  22790616.542   -14244941.20843 -11083890.87342  22790618.514    22790617.013
  21988295.565   -20522171.08543 -15938223.04342  21988297.739    21988294.474
  23595332.994   -11158777.84743  -8657391.66642  23595334.112    23595337.322
 03  4  3  1 21  0.0000000  0  8G14G 3G 9G31G15G23G18G17
  20335011.926   -26586652.90143 -20671656.87242  20335014.619    20335010.641
  21999335.136   -12291963.19343  -9570949.62042  21999337.232    21999335.935
  23572713.674    -6134145.08143  -4748380.36942  23572716.197    23572716.284
  22375941.779   -11264829.04743  -8557200.58342  22375944.110    22375942.367
  21009053.763   -19083140.13444 -14827614.13142  21009055.180    21009052.965
  22801238.322   -14189123.41743 -11040396.51042  22801240.307    22801238.857
  21999297.925   -20464353.05043 -15893170.03042  21999300.116    21999296.806
  23612987.364   -11066004.58043  -8585100.94442  23612988.415    23612991.482
 03  4  3  1 21 30.0000000  0  8G14G 3G 9G31G15G23G18G17
  20329910.561   -26613460.63144 -20692545.95142  20329913.235    20329909.206
  22007539.634   -12248847.09243  -9537352.68042  22007541.808    22007540.523
  23578040.876    -6106149.99443  -4726566.00842  23578043.316    23578043.395
  22375075.033   -11269383.40343  -8560749.41842  22375077.307    22375075.618
  21020036.376   -19025425.65143 -14782641.80242  21020037.809    21020035.697
  22811865.225   -14133278.78543 -10996881.23842  22811867.268    22811865.778
  22010319.325   -20406435.21743 -15848039.25242  22010321.488    22010318.234
  23630686.004   -10972999.60943  -8512629.68242  23630687.005    23630689.741
 03  4  3  1 22  0.0000000  0  8G14G 3G 9G31G15G23G18G17
  20324912.526   -26639725.08743 -20713011.71242  20324915.210    20324911.211
  22015835.094   -12205254.94743  -9503384.80442  22015837.169    22015835.817
  23583481.331    -6077560.42743  -4704288.34342  23583483.777    23583483.642
  22374319.568   -11273353.77543  -8563843.20642  22374321.745    22374320.126
  21031098.033   -18967297.00044 -14737346.76542  21031099.407    21031097.315
  22822501.732   -14077383.23143 -10953326.27942  22822503.805    22822502.386
  22021364.225   -20348393.92643 -15802812.26742  22021366.404    22021363.132
  23648432.830   -10879740.11143  -8439960.08042  23648433.933    23648436.518
 03  4  3  1 22 30.0000000  0  8G14G 3G 9G31G15G23G18G17
  20320017.538   -26665448.36444 -20733055.77042  20320020.201    20320016.163
  22024220.194   -12161190.75243  -9469049.07642  22024222.278    22024221.108
  23589034.482    -6048379.02343  -4681549.52242  23589036.886    23589036.574
  22373674.651   -11276742.57343  -8566483.81842  22373676.845    22373675.321
  21042237.839   -18908756.57743 -14691730.85142  21042239.273    21042237.124
  22833147.649   -14021439.02343 -10909733.40342  22833149.650    22833148.279
  22032432.111   -20290231.70543 -15757491.05542  22032434.293    22032431.015
  23666227.581   -10786229.20043  -8367094.57442  23666228.866    23666231.313
 03  4  3  1 23  0.0000000  0  8G14G 3G 9G31G15G23G18G17
  20315222.856   -26690644.40844 -20752688.98942  20315225.535    20315221.419
  22032692.169   -12116670.59543  -9434358.06642  22032694.280    22032693.106
  23594697.208    -6018620.20743  -4658360.85042  23594699.606    23594699.474
  22373137.777   -11279564.05543  -8568682.37042  22373139.949    22373138.381
  21053453.318   -18849818.95043 -14645805.43542  21053454.704    21053452.543
  22843799.971   -13965460.24843 -10866113.58442  22843802.066    22843800.642
  22043520.112   -20231963.18643 -15712087.01342  22043522.290    22043519.179
  23684067.157   -10692482.23843  -8294045.10042  23684068.626    23684070.987
 03  4  3  1 23 30.0000000  0  8G14G 3G 9G31G15G23G18G17
  20310532.643   -26715291.29343 -20771894.30042  20310535.350    20310531.243
  22041254.669   -12071674.46943  -9399296.18242  22041256.763    22041255.608
  23600474.039    -5988262.62743  -4634705.57442  23600476.420    23600476.509
  22372712.815   -11281796.63243  -8570422.03642  22372715.056    22372713.417
  21064748.485   -18790462.54044 -14599553.70042  21064749.891    21064747.708
  22854463.143   -13909425.04843 -10822449.78842  22854465.215    22854463.797
  22054632.684   -20173566.69343 -15666583.25042  22054634.793    22054631.660
  23701955.629   -10598478.07243  -8220795.25242  23701957.061    23701959.432
 03  4  3  1 24  0.0000000  0  8G14G 3G 9G31G15G23G18G17
  20305943.873   -26739405.41644 -20790684.47142  20305946.527    20305942.454
  22049904.320   -12026220.92343  -9363877.86942  22049906.334    22049905.228
  23606361.331    -5957323.50243  -4610597.13842  23606363.804    23606363.780
  22372396.821   -11283457.13243  -8571715.93342  22372399.048    22372397.335
  21076120.106   -18730704.16343 -14552988.73842  21076121.516    21076119.348
  22865133.845   -13853349.97143 -10778754.92442  22865135.912    22865134.512
  22065766.259   -20115059.10243 -15620992.94042  22065768.454    22065765.204
  23719889.969   -10504234.00043  -8147358.45542  23719891.297    23719893.461
 03  4  3  1 24 30.0000000  0  8G14G 3G 9G31G15G23G18G17
  20301453.339   -26763002.94744 -20809072.10042  20301456.016    20301451.972
  22058637.470   -11980328.23143  -9328117.36142  22058639.520    22058638.339
  23612356.506    -5925819.56443  -4586048.57742  23612358.900    23612358.616
  22372186.574   -11284562.11343  -8572576.94642  22372188.750    22372187.051
  21087564.914   -18670560.72643 -14506123.72642  21087566.272    21087564.330
  22875809.032   -13797251.33243 -10735041.69442  22875811.129    22875809.838
  22076917.839   -20056456.71743 -15575328.75042  22076920.010    22076916.886
  23737866.290   -10409767.77943  -8073748.52842  23737867.678    23737869.953
 03  4  3  1 25  0.0000000  0  8G14G 3G 9G31G15G23G18G17
  20297061.465   -26786082.33944 -20827055.98442  20297064.127    20297060.088
  22067453.945   -11933996.95243  -9292015.10142  22067456.051    22067454.871
  23618458.891    -5893749.75943  -4561059.06342  23618461.222    23618461.357
  22372082.248   -11285110.59243  -8573004.32542  22372084.374    22372082.732
  21099083.385   -18610031.03543 -14458957.73542  21099084.673    21099082.759
  22886488.936   -13741127.62843 -10691308.91642  22886491.022    22886489.925
  22088087.746   -19997758.68443 -15529590.02142  22088089.857    22088086.812
  23755885.044   -10315078.80143  -7999965.02142  23755886.418    23755889.014
 03  4  3  1 25 30.0000000  0  8G14G 3G 9G31G15G23G18G17
  20292778.989   -26808586.49143 -20844591.63442  20292781.659    20292777.609
  22076364.402   -11887171.84643  -9255528.04242  22076366.537    22076365.373
  23624680.145    -5861057.54543  -4535584.59242  23624682.266    23624682.741
  22372094.736   -11285045.36043  -8572953.48942  22372096.843    22372095.158
  21110686.101   -18549058.13443 -14411446.38942  21110687.390    21110685.484
  22897184.547   -13684921.65643 -10647512.05742  22897186.641    22897185.512
  22099286.706   -19938908.03143 -15483732.38442  22099288.768    22099285.662
  23773957.104   -10220111.02943  -7925964.28942  23773958.320    23773961.319
 03  4  3  1 26  0.0000000  0  8G14G 3G 9G31G15G23G18G17
  20288593.545   -26830581.01144 -20861730.16442  20288596.213    20288592.120
  22085356.095   -11839920.78743  -9218709.06642  22085358.154    22085357.018
  23631007.036    -5827809.38243  -4509676.89542  23631009.230    23631009.714
  22372211.355   -11284432.74543  -8572476.11542  22372213.483    22372211.749
  21122360.488   -18487708.39543 -14363641.41042  21122361.802    21122359.977
  22907883.407   -13628699.15643 -10603702.31942  22907885.401    22907884.344
  22110501.925   -19879970.87843 -15437807.32542  22110504.001    22110500.898
  23792069.466   -10124931.33043  -7851798.42042  23792070.724    23792073.368
 03  4  3  1 26 30.0000000  0  8G14G 3G 9G31G15G23G18G17
  20284510.541   -26852037.08243 -20878449.12442  20284513.211    20284509.159
  22094433.986   -11792216.89243  -9181537.24442  22094436.080    22094434.800
  23637444.989    -5793976.98743  -4483313.94242  23637446.983    23637447.639
  22372437.455   -11283244.33443  -8571550.05942  22372439.637    22372437.827
  21134112.122   -18425953.53543 -14315520.75242  21134113.398    21134111.509
  22918590.672   -13572431.40743 -10559857.30642  22918592.709    22918591.878
  22121739.201   -19820918.70043 -15391792.64842  22121741.270    22121738.141
  23810227.046   -10029512.14143  -7777445.93942  23810228.349    23810230.752
 03  4  3  1 27  0.0000000  0  8G14G 3G 9G31G15G23G18G17
  20280528.786   -26872961.28443 -20894753.64542  20280531.445    20280527.332
  22103596.180   -11744068.92743  -9144019.37342  22103598.307    22103597.091
  23643992.526    -5759567.84943  -4456501.53642  23643994.481    23643995.709
  22372771.889   -11281487.06543  -8570180.77642  22372774.106    22372772.148
  21145939.467   -18363800.29943 -14267089.66742  21145940.742    21145938.892
  22929305.563   -13516124.85743 -10515982.06842  22929307.647    22929306.603
  22132997.174   -19761758.19743 -15345693.56742  22132999.273    22132996.002
  23828429.094    -9933860.41443  -7702912.28842  23828430.297    23828432.637
 03  4  3  1 27 30.0000000  0  8G14G 3G 9G31G15G23G18G17
  20276644.689   -26893372.12144 -20910658.14042  20276647.382    20276643.211
  22112839.131   -11695497.44243  -9106171.49242  22112841.220    22112839.976
  23650646.882    -5724600.78343  -4429254.48542  23650648.486    23650649.741
  22373210.827   -11279179.78543  -8568382.87842  22373213.020    22373211.314
  21157839.015   -18301267.73243 -14218362.99142  21157840.253    21157838.525
  22940024.221   -13459797.87843 -10472090.92542  22940026.359    22940025.175
  22144272.244   -19702508.33743 -15299524.86842  22144274.345    22144270.864
  23846671.726    -9837995.92243  -7628212.79142  23846672.849    23846675.024
 03  4  3  1 28  0.0000000  0  8G14G 3G 9G31G15G23G18G17
  20272868.946   -26913213.64743 -20926119.01742  20272871.631    20272867.428
  22122172.724   -11646448.47743  -9067951.55042  22122174.848    22122173.627
  23657417.433    -5689020.79543  -4401529.71842  23657419.165    23657420.413
  22373764.974   -11276267.02943  -8566113.17042  22373767.211    22373765.645
  21169821.366   -18238300.37543 -14169297.51842  21169822.564    21169820.888
  22950757.455   -13403394.54443 -10428140.29642  22950759.540    22950758.340
  22155574.719   -19643113.26443 -15253242.99042  22155576.883    22155573.397
  23864965.107    -9741863.74843  -7553304.73342  23864966.298    23864968.540
 03  4  3  1 28 30.0000000  0  8G14G 3G 9G31G15G23G18G17
  20269197.595   -26932506.72443 -20941152.52742  20269200.249    20269195.983
  22131593.012   -11596945.09643  -9029377.52042  22131595.153    22131593.862
  23664300.864    -5652849.09943  -4373344.01442  23664302.626    23664303.742
  22374430.640   -11272770.13543  -8563388.31042  22374432.816    22374431.028
  21181882.236   -18174919.49543 -14119909.81542  21181883.467    21181881.885
  22961501.305   -13346935.64043 -10384146.34742  22961503.386    22961502.065
  22166900.876   -19583593.97843 -15206864.33242  22166903.018    22166899.665
  23883304.549    -9645486.24843  -7478205.47042  23883305.862    23883308.581
 03  4  3  1 29  0.0000000  0  8G14G 3G 9G31G15G23G18G17
  20265627.479   -26951267.39943 -20955771.18342  20265630.140    20265625.868
  22141096.298   -11547005.35943  -8990463.46642  22141098.523    22141097.166
  23671293.201    -4040683.07843  -3117110.66242  23671294.690    23671295.140
  22375204.082   -11268705.63543  -8560221.14742  22375206.255    22375204.387
  21194018.783   -18111141.52143 -14070212.70142  21194020.028    21194018.462
  22972252.359   -13290437.06843 -10340121.47542  22972254.470    22972253.332
  22178247.517   -19523966.75043 -15160401.56342  22178249.682    22178246.464
  23901688.377    -9548880.41343  -7402928.36842  23901689.182    23901692.265
 03  4  3  1 29 30.0000000  0  8G14G 3G 9G31G15G23G18G17
  20262155.098   -26969514.73144 -20969989.83842  20262157.752    20262153.507
  22150678.602   -11496649.85643  -8951225.43942  22150680.839    22150679.635
  23678391.425    -4003381.48843  -3088044.42742  23678393.069    23678394.018
  22376081.885   -11264092.62143  -8556626.57642  22376084.091    22376082.162
  21206227.328   -18046985.73943 -14020221.19642  21206228.618    21206226.887
  22983007.734   -13233917.48143 -10296080.25042  22983009.726    22983008.603
  22189611.227   -19464250.59443 -15113869.50442  22189613.379    22189610.073
  23920111.586    -9452065.75343  -7327488.49442  23920112.441    23920115.634
 03  4  3  1 30  0.0000000  0  8G14G 3G 9G31G15G23G18G17
  20258781.255   -26987244.72844 -20983805.36742  20258783.910    20258779.602
  22160340.279   -11445877.08343  -8911662.25842  22160342.524    22160341.494
  23685595.721    -3965521.58753  -3058543.14952  23685597.967    23685598.880
  22377064.626   -11258927.92643  -8552602.11542  22377066.864    22377065.105
  21218508.322   -17982448.67343 -13969932.58742  21218509.612    21218507.883
  22993767.774   -13177373.03643 -10252019.63342  22993769.785    22993768.632
  22200992.535   -19404441.99543 -15067265.41042  22200994.687    22200991.236
  23938575.173    -9355039.43443  -7251883.68742  23938575.888    23938579.423
 03  4  3  1 30 30.0000000  0  8G14G 3G 9G31G15G23G18G17
  20255511.029   -27004429.09243 -20997195.73442  20255513.701    20255509.437
  22170086.480   -11394660.93043  -8871753.60142  22170088.618    22170087.544
  23692911.550    -3927075.82353  -3028585.39652  23692913.668    23692914.659
  22378157.474   -11253183.84243  -8548126.15242  22378159.766    22378158.322
  21230867.176   -17917502.69543 -13919325.32542  21230868.447    21230866.788
  23004537.930   -13120775.20643 -10207917.44142  23004539.922    23004538.755
  22212396.558   -19344513.05443 -15020567.53042  22212398.727    22212395.349
  23957084.424    -9257774.54943  -7176092.98642  23957084.992    23957088.705
 03  4  3  1 31  0.0000000  0  8G14G 3G 9G31G15G23G18G17
  20252341.744   -27021083.77244 -21010173.35542  20252344.391    20252340.047
  22179913.518   -11343019.06443  -8831513.20542  22179915.669    22179914.564
  23700336.064    -3888060.49053  -2998183.87852  23700338.410    23700338.890
  22379357.930   -11246876.34143  -8543211.19942  22379360.121    22379358.533
  21243300.620   -17852163.71043 -13868411.82142  21243301.938    21243300.360
  23015315.364   -13064139.31643 -10163785.58642  23015317.378    23015316.183
  22223820.606   -19284479.06743 -14973787.79642  22223822.771    22223819.386
  23975635.699    -9160288.30243  -7100129.79042  23975636.323    23975640.045
 03  4  3  1 31 30.0000000  0  8G14G 3G 9G31G15G23G18G17
  20249276.485   -27037191.75844 -21022724.97742  20249279.133    20249274.756
  22189824.501   -11290936.58343  -8790929.47742  22189826.648    22189825.535
  23707871.872    -3848459.48743  -2967325.90942  23707874.167    23707874.803
  22380668.434   -11239989.08543  -8537844.49142  22380670.703    22380668.873
  21255812.123   -17786415.34843 -13817179.33542  21255813.387    21255811.799
  23026103.227   -13007448.35043 -10119610.79842  23026105.285    23026104.105
  22235267.849   -19224323.31843 -14926913.16842  22235270.041    22235266.587
  23994232.076    -9062563.72943  -7023980.88742  23994233.005    23994236.732
 03  4  3  1 32  0.0000000  0  8G14G 3G 9G31G15G23G18G17
  20246315.973   -27052749.17143 -21034847.58242  20246318.614    20246314.217
  22199819.686   -11238411.67943  -8750001.00342  22199821.748    22199820.747
  23715520.032    -3808269.76643  -2936009.21642  23715522.334    23715522.671
  22382089.969   -11232518.49943  -8532023.21942  22382092.182    22382090.457
  21268402.226   -17720253.86743 -13765624.94642  21268403.471    21268401.854
  23036902.575   -12950697.95743 -10075389.72142  23036904.603    23036903.389
  22246738.933   -19164041.86043 -14879940.59042  22246741.192    22246737.795
  24012874.335    -8964598.45443  -6947644.43542  24012875.353    24012879.088
 03  4  3  1 32 30.0000000  0  8G14G 3G 9G31G15G23G18G17
  20243455.418   -27067781.30744 -21046560.88942  20243458.051    20243453.707
  22209893.716   -11185471.57743  -8708748.99042  22209895.826    22209894.843
  23723275.146    -3767517.24943  -2904253.92942  23723277.413    23723277.487
  22383617.732   -11224490.41843  -8525767.54342  22383619.939    22383618.196
  21281066.020   -17653705.18643 -13713768.84342  21281067.282    21281065.623
  23047708.469   -12893913.09543 -10031141.79942  23047710.581    23047709.178
  22258229.269   -19103660.06943 -14832889.84242  22258231.466    22258228.091
  24031557.358    -8866418.43743  -6871140.64542  24031558.658    24031562.217
 03  4  3  1 33  0.0000000  0  8G14G 3G 9G31G15G23G18G17
  20240692.639   -27082299.57344 -21057873.77642  20240695.284    20240690.941
  22220044.488   -11132129.54043  -8667183.79742  22220046.606    22220045.499
  23731134.570    -3726213.90443  -2872069.43442  23731136.956    23731137.101
  22385249.153   -11215916.67343  -8519086.68142  22385251.370    22385249.814
  21293801.419   -17586780.97043 -13661620.11442  21293802.675    21293800.841
  23058518.785   -12837104.94643  -9986875.71042  23058520.973    23058519.444
  22269736.450   -19043189.36643 -14785769.80042  22269738.646    22269735.083
  24050278.821    -8768036.43243  -6794479.43842  24050280.157    24050283.794
 03  4  3  1 33 30.0000000  0  8G14G 3G 9G31G15G23G18G17
  20238028.596   -27096298.94744 -21068782.32242  20238031.260    20238026.841
  22230272.199   -11078382.68243  -8625303.14142  22230274.309    22230273.170
  23739099.974    -3684355.70943  -2839452.63142  23739102.332    23739102.501
  22386985.318   -11206792.83843  -8511977.17242  22386987.524    22386986.044
  21306608.962   -17519476.65543 -13609175.19442  21306610.301    21306608.510
  23069334.480   -12780268.21343  -9942587.33442  23069336.689    23069335.099
  22281261.262   -18982624.78143 -14738576.61442  22281263.492    22281260.042
  24069039.398    -8669448.43543  -6717657.74242  24069040.839    24069044.340
 03  4  3  1 34  0.0000000  0  8G14G 3G 9G31G15G23G18G17
  20235467.585   -27109757.05044 -21079269.09942  20235470.249    20235465.785
  22240580.831   -11024210.48643  -8583091.06342  22240582.951    22240581.720
  23747175.184    -3641920.77643  -2806386.37942  23747177.459    23747177.622
  22388830.384   -11197096.79443  -8504421.78642  22388832.575    22388831.158
  21319493.166   -17451769.81543 -13556416.62242  21319494.515    21319492.707
  23080160.007   -12723380.02643  -9898258.88242  23080162.223    23080160.529
  22292808.477   -18921943.68243 -14691292.63842  22292810.659    22292807.354
  24087843.643    -8570632.07143  -6640658.09142  24087845.027    24087848.414
 03  4  3  1 34 30.0000000  0  8G14G 3G 9G31G15G23G18G17
  20233003.365   -27122706.16443 -21089359.26942  20233006.053    20233001.654
  22250963.906   -10969647.09143  -8540574.15342  22250966.037    22250964.784
  23755354.032    -3598941.87443  -2772896.31042  23755356.422    23755356.149
  22390778.055   -11186861.24543  -8496446.01742  22390780.203    22390778.783
  21332447.715   -17383693.26543 -13503369.96842  21332449.109    21332447.178
  23090989.199   -12666471.96043  -9853914.95142  23090991.409    23090989.800
  22304371.879   -18861178.00743 -14643942.76242  22304374.048    22304370.648
  24106685.114    -8471620.78543  -6563506.58542  24106686.490    24106689.837
 03  4  3  1 35  0.0000000  0  8G14G 3G 9G31G15G23G18G17
  20230643.727   -27135106.07644 -21099021.48442  20230646.399    20230641.995
  22261428.775   -10914654.60143  -8497722.87942  22261430.797    22261429.676
  23763643.580    -3555379.82243  -2738951.76242  23763646.207    23763645.385
  22392836.200   -11176046.62443  -8488019.03642  22392838.315    22392836.614
  21345480.163   -17315207.40543 -13450004.38042  21345481.623    21345479.588
  23101829.988   -12609503.73943  -9809524.13342  23101832.148    23101830.574
  22315959.054   -18800287.58543 -14596495.67942  22315961.224    22315957.599
  24125570.893    -8372375.71543  -6486172.87442  24125572.136    24125575.776
 03  4  3  1 35 30.0000000  0  8G14G 3G 9G31G15G23G18G17
  20228391.938   -27146938.77643 -21108241.72342  20228394.619    20228390.260
  22271978.129   -10859216.90043  -8454524.69342  22271980.267    22271979.300
  23772047.357    -3511217.33543  -2704539.45042  23772050.101    23772049.078
  22395007.667   -11164635.40343  -8479127.13842  22395009.847    22395008.125
  21358593.866   -17246294.24443 -13396305.80742  21358595.370    21358593.305
  23112685.621   -12552456.60843  -9765071.82642  23112687.774    23112686.389
  22327573.334   -18739254.45743 -14548937.40042  22327575.510    22327571.817
  24144504.664    -8272879.31643  -6408643.32342  24144505.722    24144509.569
 03  4  3  1 36  0.0000000  0  8G14G 3G 9G31G15G23G18G17
  20226233.439   -27158281.86744 -21117080.43942  20226236.090    20226231.694
  22282597.204   -10803413.49143  -8411041.53842  22282599.352    22282598.318
  23780550.382    -3466532.88743  -2669720.32342  23780553.219    23780552.465
  22397277.766   -11152705.58843  -8469831.16842  22397280.021    22397278.342
  21371774.198   -17177031.78643 -13342335.08342  21371775.615    21371773.417
  23123541.746   -12495407.61443  -9720618.07942  23123543.816    23123542.393
  22339200.030   -18678155.80843 -14501328.06442  22339202.223    22339198.624
  24163471.425    -8173210.15843  -6330979.18342  24163472.313    24163476.033
 03  4  3  1 36 30.0000000  0  9G14G 3G 9G25G31G15G23G18G17
  20224171.149   -27169118.90344 -21125524.83942  20224173.804    20224169.378
  22293288.559   -10747229.87143  -8367262.12942  22293290.688    22293289.592
  23789155.901    -3421310.75643  -2634482.28042  23789158.495    23789157.270
  24527326.631    -4940073.75853  -3808533.41552  24527330.567    24527337.652
  22399649.576   -11140241.36243  -8460118.75642  22399651.839    22399650.259
  21385023.885   -17107403.89643 -13288079.59242  21385025.311    21385023.170
  23134401.399   -12438339.94043  -9676149.78742  23134403.522    23134401.848
  22350842.308   -18616974.93743 -14453654.66742  22350844.550    22350840.982
  24182473.631    -8073352.93743  -6253168.50842  24182474.578    24182478.477
 03  4  3  1 37  0.0000000  0  9G14G 3G 9G25G31G15G23G18G17
  20222211.946   -27179414.56344 -21133547.37842  20222214.598    20222210.092
  22304058.596   -10690632.40943  -8323160.23142  22304060.818    22304059.713
  23797870.000    -3375515.91043  -2598797.90342  23797872.658    23797871.682
  24508670.908    -5038108.46343  -3884923.60642  24508674.741    24508681.772
  22402129.675   -11127207.60943  -8449962.54342  22402131.838    22402130.566
  21398349.930   -17037375.26843 -13233511.84542  21398351.326    21398349.256
  23145271.493   -12381217.48443  -9631638.81742  23145273.600    23145271.946
  22362507.071   -18555676.41143 -14405889.59242  22362509.319    22362505.727
  24201518.080    -7973273.13743  -6175184.33842  24201518.940    24201523.234
 03  4  3  1 37 30.0000000  0  9G14G 3G 9G25G31G15G23G18G17
  20220351.017   -27189193.79644 -21141167.50642  20220353.655    20220349.110
  22314902.349   -10633648.26643  -8278757.02642  22314904.566    22314903.556
  23806688.707    -3329174.15643  -2562687.35242  23806691.296    23806689.802
  24490002.931    -5136208.42643  -3961364.63742  24490006.581    24490013.500
  22404713.620   -11113629.94743  -8439382.53442  22404715.713    22404714.077
  21411747.368   -16966971.12043 -13178651.47642  21411748.782    21411746.758
  23156147.258   -12324064.72943  -9587104.22742  23156149.349    23156147.922
  22374189.426   -18494284.90043 -14358052.05442  22374191.683    22374188.290
  24220600.478    -7872995.97743  -6097046.45542  24220601.229    24220605.313
 03  4  3  1 38  0.0000000  0  9G14G 3G 9G25G31G15G23G18G17
  20218593.074   -27198431.60944 -21148365.75042  20218595.728    20218591.157
  22325824.081   -10576254.40243  -8234034.57042  22325826.261    22325825.345
  23815615.934    -3282261.45743  -2526131.98342  23815618.483    23815616.716
  24471327.785    -5234345.37543  -4037834.48742  24471331.268    24471337.940
  22407405.638   -11099483.95843  -8428359.66342  22407407.804    22407405.773
  21425220.898   -16896167.10843 -13123479.53342  21425222.270    21425220.470
  23167033.784   -12266856.11243  -9542526.09942  23167035.854    23167034.410
  22385894.326   -18432775.17043 -14310122.39342  22385896.600    22385893.229
  24239724.777    -7772497.26843  -6018735.88642  24239725.720    24239729.703
 03  4  3  1 38 30.0000000  0  9G14G 3G 9G25G31G15G23G18G17
  20216936.499   -27207136.38443 -21155148.64642  20216939.163    20216934.677
  22336821.890   -10518460.94243  -8189000.73942  22336823.934    22336823.010
  23824649.928    -3234786.74943  -2489138.69642  23824652.543    23824651.049
  24452644.301    -5332524.54543  -4114337.23842  24452647.826    24452654.528
  22410203.857   -11084778.36043  -8416900.73942  22410206.119    22410204.170
  21438768.916   -16824971.79643 -13068002.68042  21438770.296    21438768.644
  23177929.365   -12209599.40243  -9497910.49342  23177931.393    23177929.998
  22397620.280   -18371154.91843 -14262106.61542  22397622.475    22397619.188
  24258889.521    -7671786.65043  -5940260.17942  24258890.491    24258894.345
 03  4  3  1 39  0.0000000  0  9G14G 3G 9G25G31G15G23G18G17
  20215383.066   -27215299.67044 -21161509.59942  20215385.712    20215381.218
  22347897.067   -10460261.23643  -8143650.36042  22347899.017    22347898.049
  23833792.717    -3186742.44143  -2451701.58942  23833795.247    23833793.470
  24433955.219    -5430734.13843  -4190863.71042  24433958.769    24433965.421
  22413109.994   -11069505.39443  -8404999.69642  22413112.203    22413110.412
  21452393.151   -16753376.99843 -13012214.54442  21452394.437    21452392.720
  23188835.924   -12152285.50043  -9453250.34542  23188837.977    23188836.498
  22409368.773   -18309415.68143 -14213998.12242  22409370.950    22409367.786
  24278096.142    -7570856.03643  -5861613.10342  24278097.156    24278100.941
 03  4  3  1 39 30.0000000  0  8G14G 3G 9G25G31G15G23G18
  20213927.134   -27222950.59244 -21167471.30442  20213929.795    20213925.233
  22359043.645   -10401686.45443  -8098007.70442  22359045.653    22359044.446
  23843037.577    -3138158.51243  -2413843.93442  23843040.233    23843038.993
  24415255.598    -5529000.07043  -4267434.04842  24415258.997    24415265.354
  22416118.836   -11053694.57343  -8392679.55642  22416120.987    22416119.238
  21466087.395   -16681412.16943 -12956138.06042  21466088.735    21466087.187
  23199747.804   -12094942.72343  -9408567.66042  23199749.872    23199748.261
  22421134.513   -18247586.12043 -14165819.23042  22421136.665    22421133.434
 03  4  3  1 40  0.0000000  0  8G14G 3G 9G25G31G15G23G18
  20212572.380   -27230069.75544 -21173018.65242  20212575.040    20212570.453
  22370264.699   -10342718.95943  -8052059.04342  22370266.798    22370265.562
  23852389.334    -3089016.19843  -2375551.24942  23852391.903    23852390.708
  24396549.135    -5627299.99343  -4344030.85942  24396552.825    24396558.950
  22419233.495   -11037327.00743  -8379925.60142  22419235.760    22419233.986
  21479856.024   -16609057.93643 -12899758.16542  21479857.293    21479855.677
  23210668.891   -12037550.96943  -9363846.81442  23210670.970    23210669.406
  22432921.110   -18185646.53743 -14117554.62042  22432923.205    22432920.104
 03  4  3  1 40 30.0000000  0  8G14G 3G 9G25G31G15G23G18
  20211317.460   -27236663.88244 -21178156.88642  20211320.144    20211315.591
  22381558.876   -10283367.40543  -8005811.11442  22381560.952    22381559.758
  23861845.470    -3039323.07843  -2336829.25742  23861848.225    23861846.885
  24377835.800    -5725637.52843  -4420656.99642  24377839.626    24377845.334
  22422452.793   -11020409.93643  -8366743.46142  22422454.970    22422453.147
  21493697.504   -16536321.36843 -12843080.34042  21493698.765    21493696.975
  23221598.503   -11980116.24943  -9319092.48342  23221600.510    23221598.881
  22444727.499   -18123603.17443 -14069209.13942  22444729.641    22444726.601
 03  4  3  1 41  0.0000000  0  8G14G 3G 9G25G31G15G23G18
  20210159.105   -27242750.53044 -21182899.68342  20210161.840    20210157.246
  22392922.505   -10223651.15843  -7959278.99242  22392924.561    22392923.538
  23871403.057    -2989097.13743  -2297692.14742  23871405.772    23871404.630
  24359112.358    -5824026.43643  -4497323.14142  24359116.343    24359121.862
  22425773.145   -11002961.35143  -8353147.14742  22425775.354    22425773.453
  21507608.022   -16463220.32943 -12786118.48842  21507609.368    21507607.655
  23232532.998   -11922654.97143  -9274317.44742  23232535.156    23232533.420
  22456550.651   -18061472.97143 -14020795.97442  22456552.750    22456549.705
 03  4  3  1 41 30.0000000  0  8G14G 3G 9G25G31G15G23G18
  20209093.924   -27248348.18344 -21187261.44542  20209096.631    20209091.959
  22404351.601   -10163590.90843  -7912478.83242  22404353.622    22404352.725
  23881058.130    -2938357.96043  -2258155.10942  23881060.802    23881059.762
  24340376.180    -5922482.14143  -4574041.32542  24340380.306    24340385.539
  22429190.788   -10985000.51943  -8339151.66642  22429193.071    22429191.375
  21521584.545   -16389773.48943 -12728887.19542  21521585.819    21521584.123
  23243469.033   -11865185.27643  -9229535.84742  23243471.266    23243469.462
  22468386.632   -17999274.26143 -13972329.44342  22468388.776    22468385.678
 03  4  3  1 42  0.0000000  0  8G14G 3G 9G25G31G15G23G18
  20208133.555   -27253394.82344 -21191193.84942  20208136.260    20208131.585
  22415857.648   -10103126.06243  -7865363.40042  22415859.710    22415858.817
  23890823.105    -2887044.15343  -2218170.28042  23890825.612    23890824.539
  24321639.979    -6020939.18143  -4650760.54542  24321644.124    24321649.284
  22432717.850   -10966465.67643  -8324708.92042  22432720.046    22432718.438
  21535638.631   -16315918.76243 -12671338.07142  21535639.909    21535638.195
  23254418.903   -11807644.00143  -9184698.46442  23254421.073    23254419.161
  22480247.743   -17936944.18043 -13923760.55142  22480249.903    22480246.542
 03  4  3  1 42 30.0000000  0  8G14G 3G 9G25G31G15G23G18
  20207271.287   -27257926.13644 -21194724.70842  20207273.963    20207269.295
  22427433.569   -10042294.41943  -7817962.15342  22427435.635    22427434.709
  23900689.486    -2835192.27043  -2177766.19442  23900692.515    23900691.859
  24302897.756    -6119430.11043  -4727506.16042  24302901.617    24302906.833
  22436347.405   -10947393.15643  -8309847.20442  22436349.533    22436347.810
  21549763.362   -16241692.44843 -12613499.39142  21549764.647    21549762.987
  23265375.573   -11750066.17343  -9139832.62342  23265377.797    23265375.888
  22492127.072   -17874518.17743 -13875116.89342  22492129.285    22492125.794
 03  4  3  1 43  0.0000000  0  8G14G 3G 9G25G31G15G23G18
  20206504.627   -27261954.71444 -21197863.81942  20206507.312    20206502.644
  22439076.530    -9981110.43243  -7770286.36042  22439078.638    22439077.688
  23910656.723    -2782815.84443  -2136953.33542  23910659.390    23910658.814
  24284146.985    -6217964.05743  -4804285.30042  24284150.860    24284156.289
  22440076.429   -10927796.23043  -8294576.84442  22440078.634    22440077.000
  21563956.476   -16167107.50543 -12555381.28242  21563957.767    21563956.022
  23276337.028   -11692463.69943  -9094947.56242  23276339.202    23276337.284
  22504022.380   -17812008.27843 -13826407.88042  22504024.638    22504021.009
 03  4  3  1 43 30.0000000  0  7G14G 3G25G31G15G23G18
  20205839.509   -27265450.02144 -21200587.39642  20205842.153    20205837.439
  22450791.993    -9919545.35943  -7722313.60242  22450794.099    22450793.195
  24265394.624    -6316507.08043  -4881071.50442  24265398.351    24265403.582
  22443911.134   -10907644.79343  -8278874.40142  22443913.255    22443911.550
  21578223.578   -16092133.49243 -12496959.99842  21578224.919    21578223.145
  23287308.972   -11634804.98643  -9050018.68742  23287311.140    23287309.319
  22515939.437   -17749383.49643 -13777609.33542  22515941.701    22515938.082
 03  4  3  1 44  0.0000000  0  7G14G 3G25G31G15G23G18
  20205279.852   -27268390.73743 -21202878.82342  20205282.477    20205277.810
  22462583.601    -9857579.79643  -7674028.78142  22462585.729    22462584.808
  24246644.988    -6415034.22043  -4957845.33842  24246648.986    24246653.721
  22447855.282   -10886918.06543  -8262723.66442  22447857.381    22447855.731
  21592568.665   -16016749.13743 -12438218.94942  21592570.021    21592568.337
  23298295.861   -11577067.85243  -9005028.67442  23298298.021    23298296.419
  22527882.677   -17686621.70443 -13728704.04042  22527884.883    22527881.288
 03  4  3  1 44 30.0000000  0  7G14G 3G25G31G15G23G18
  20204814.951   -27270833.45743 -21204782.21142  20204817.560    20204812.948
  22474440.436    -9795272.02143  -7625477.31042  22474442.517    22474441.593
  24227888.616    -6513598.71143  -5034648.27542  24227892.557    24227896.702
  22451897.987   -10865673.11243  -8246169.13342  22451900.180    22451898.401
  21606981.254   -15941011.14443 -12379202.35042  21606982.594    21606980.845
  23309287.346   -11519307.87043  -8960020.89842  23309289.435    23309287.907
  22539841.224   -17623778.68843 -13679735.45242  22539843.503    22539839.908
 03  4  3  1 45  0.0000000  0  7G14G 3G25G31G15G23G18
  20204447.051   -27272766.74244 -21206288.63142  20204449.649    20204444.999
  22486364.419    -9732612.40643  -7576651.67042  22486366.387    22486365.322
  24209127.665    -6612185.97643  -5111468.94142  24209131.665    24209135.514
  22456041.644   -10843899.16243  -8229202.41142  22456043.828    22456041.649
  21621463.275   -15864908.15243 -12319901.34342  21621464.646    21621462.831
  23320285.301   -11461512.80043  -8914985.75842  23320287.305    23320285.855
  22551817.393   -17560842.73043 -13630694.42642  22551819.654    22551816.279
 03  4  3  1 45 30.0000000  0  7G14G 3G25G31G15G23G18
  20204178.891   -27274176.15944 -21207386.84742  20204181.486    20204176.786
  22498357.514    -9669588.11943  -7527541.86242  22498359.667    22498358.444
  24190365.734    -6710777.68943  -5188293.13842  24190369.634    24190373.750
  22460288.264   -10821582.27243  -8211812.59442  22460290.534    22460288.455
  21636017.340   -15788426.14243 -12260304.99842  21636018.757    21636016.941
  23331293.011   -11403667.10643  -8869911.17542  23331294.990    23331293.461
  22563814.216   -17497798.65243 -13581569.17342  22563816.415    22563813.370
 03  4  3  1 46  0.0000000  0  7G14G 3G25G31G15G23G18
  20204006.179   -27275083.67144 -21208093.97242  20204008.805    20204004.087
  22510415.338    -9606223.09543  -7478166.55442  22510417.610    22510416.415
  24171599.709    -6809392.65343  -5265135.42042  24171603.284    24171607.593
  22464633.838   -10798745.15843  -8194017.41542  22464636.113    22464634.238
  21650639.225   -15711587.32443 -12200430.61942  21650640.672    21650638.880
  23342306.315   -11345791.89043  -8824813.61242  23342308.365    23342306.813
  22575827.660   -17434667.90343 -13532376.37442  22575829.814    22575826.890
 03  4  3  1 46 30.0000000  0  7G14G 3G25G31G15G23G18
  20203929.975   -27275484.14644 -21208406.00542  20203932.590    20203927.814
  22522538.830    -9542513.88443  -7428523.04742  22522541.004    22522539.897
  24152830.646    -6908021.82043  -5341988.79042  24152834.473    24152838.741
  22469079.425   -10775382.91443  -8175813.05242  22469081.701    22469079.881
  21665330.068   -15634386.40343 -12140274.07842  21665331.492    21665329.743
  23353326.591   -11287880.72543  -8779688.03742  23353328.633    23353326.941
  22587858.940   -17371444.39043 -13483111.33342  22587861.056    22587857.886
 03  4  3  1 47  0.0000000  0  8G14G 3G 9G25G31G15G23G18
  20203949.799   -27275379.71544 -21208324.59642  20203952.416    20203947.649
  22534727.064    -9478464.19143  -7378614.21842  22534729.227    22534728.255
  23994106.255
  24134059.439    -7006663.81143  -5418852.16142  24134063.232    24134067.332
  22473624.651   -10751498.29343  -8157201.64342  22473626.914    22473624.968
  21680089.281   -15556825.85943 -12079837.32242  21680090.711    21680089.067
  23364353.421   -11229934.71343  -8734535.30442  23364355.530    23364353.771
  22599907.329   -17308129.42443 -13433775.00542  22599909.504    22599906.300
 03  4  3  1 47 30.0000000  0  8G14G 3G 9G25G31G15G23G18
  20204070.475   -27274744.87244 -21207829.88742  20204073.129    20204068.417
  22546984.674    -9414050.68443  -7328421.91142  22546986.796    22546985.985
  24004990.082     -648965.69753   -508890.73752  24004992.141    24004990.499
  24115291.311    -7105289.57743  -5495702.89442  24115295.174    24115298.922
  22478273.826   -10727066.53943  -8138163.88542  22478276.067    22478274.187
  21694921.875   -15478880.31443 -12019100.56642  21694923.217    21694921.594
  23375392.001   -11171927.39843  -8689334.80342  23375394.077    23375392.240
  22611978.093   -17244696.89243 -13384347.05542  22611980.275    22611977.115
 03  4  3  1 48  0.0000000  0  8G14G 3G 9G25G31G15G23G18
  20204287.580   -27273604.21144 -21206941.02942  20204290.193    20204285.453
  22559306.334    -9349300.02543  -7277966.89042  22559308.519    22559307.716
  24015972.856     -591243.52043   -463912.38842  24015975.989    24015975.015
  24096522.105    -7203920.16743  -5572557.38542  24096526.037    24096529.475
  22483022.382   -10702112.90843  -8118719.47742  22483024.588    22483022.756
  21709822.990   -15400574.77843 -11958083.29842  21709824.335    21709822.695
  23386437.551   -11113882.49743  -8644104.99842  23386439.660    23386437.878
  22624066.540   -17181170.93043 -13334846.31642  22624068.760    22624065.679
 03  4  3  1 48 30.0000000  0  8G14G 3G 9G25G31G15G23G18
  20204597.800   -27271973.89744 -21205670.63642  20204600.411    20204595.680
  22571688.766    -9284229.51943  -7227262.63142  22571691.057    22571690.186
  24027052.312     -533018.26543   -418542.01742  24027055.534    24027054.503
  24077749.589    -7302567.87043  -5649425.23342  24077753.553    24077756.719
  22487866.965   -10676653.99543  -8098881.34242  22487869.202    22487867.409
  21724789.554   -15321925.34143 -11896798.05042  21724790.866    21724789.257
  23397487.342   -11055814.72443  -8598857.37842  23397489.504    23397487.770
  22636170.078   -17117566.69143 -13285284.56642  22636172.237    22636169.210
 03  4  3  1 49  0.0000000  0  9G14G 3G 9G25G11G31G15G23G18
  20205005.355   -27269832.31644 -21204001.84042  20205007.964    20205003.139
  22584135.973    -9218819.25743  -7176293.63442  22584138.210    22584137.311
  24038232.075     -474268.89843   -372763.26342  24038235.144    24038234.192
  24058978.531    -7401207.38843  -5726286.68442  24058982.363    24058985.620
  24483897.985
  22492811.853   -10650668.59843  -8078632.96642  22492814.064    22492812.211
  21739825.503   -15242910.33443 -11835227.94242  21739826.904    21739825.359
  23408545.899   -10997701.24043  -8553574.16042  23408548.123    23408546.400
  22648292.732   -17053861.68643 -13235644.30842  22648294.881    22648291.923
 03  4  3  1 49 30.0000000  0  9G14G 3G 9G25G11G31G15G23G18
  20205509.336   -27267183.86044 -21201938.08342  20205511.920    20205507.048
  22596646.697    -9153075.59043  -7125064.83942  22596648.832    22596647.952
  24049510.300     -415000.99743   -326580.46342  24049513.246    24049512.655
  24040208.887    -7499839.71343  -5803142.55942  24040212.573    24040216.042
  24464926.416     -981117.41453   -724843.36352  24464928.834    24464925.019
  22497855.974   -10624161.90443  -8057978.38242  22497858.088    22497856.211
  21754930.287   -15163534.60543 -11773376.76342  21754931.642    21754930.052
  23419612.549   -10939545.39143  -8508257.91342  23419614.690    23419613.190
  22660434.028   -16990059.49543 -13185928.33042  22660436.120    22660433.199
 03  4  3  1 50  0.0000000  0  9G14G 3G 9G25G11G31G15G23G18
  20206112.423   -27264014.09944 -21199468.10042  20206115.040    20206110.167
  22609222.935    -9086985.65443  -7073566.19842  22609225.114    22609224.639
  24060889.826     -355200.91843   -279983.03242  24060892.563    24060892.235
  24021444.185    -7598446.60743  -5879978.58242  24021447.765    24021451.343
  24445973.044    -1080717.11843   -802453.42442  24445974.905    24445971.687
  22503001.787   -10597120.09643  -8036906.83742  22503003.968    22503002.067
  21770106.410   -15083783.70543 -11711233.23242  21770107.703    21770106.173
  23430690.328   -10881331.55443  -8462896.50042  23430692.445    23430690.972
  22672596.257   -16926144.71343 -13136124.57342  22672598.440    22672595.731
 03  4  3  1 50 30.0000000  0  9G14G 3G 9G25G11G31G15G23G18
  20206817.358   -27260309.43044 -21196581.31742  20206819.951    20206815.163
  22621867.863    -9020537.72143  -7021788.63642  22621869.880    22621869.240
  24072373.308     -294856.37743   -232961.22442  24072375.893    24072375.606
  24002687.735    -7697010.62743  -5956781.24842  24002691.223    24002694.723
  24427039.724    -1180208.81343   -879979.29942  24427042.288    24427039.496
  22508251.807   -10569530.33243  -8015408.32042  22508254.035    22508252.160
  21785356.473   -15003644.45343 -11648787.09042  21785357.721    21785356.190
  23441781.790   -10823045.21643  -8417478.59542  23441783.884    23441782.535
  22684782.904   -16862103.33143 -13086222.19742  22684784.977    22684782.290
 03  4  3  1 51  0.0000000  0  9G14G 3G 9G25G11G31G15G23G18
  20207614.828   -27256118.93044 -21193315.95342  20207617.417    20207612.662
  22634570.970    -8953782.35143  -6969771.48942  22634573.080    22634572.370
  24083950.689     -234016.55243   -185553.46342  24083953.292    24083952.944
  23983930.672    -7795577.20943  -6033585.88242  23983934.226    23983937.600
  24408118.869    -1279638.37043   -957456.74142  24408121.116    24408119.115
  22513596.806   -10541442.06543  -7993521.34142  22513599.025    22513597.283
  21800671.052   -14923165.68143 -11586076.37842  21800672.363    21800670.772
  23452877.991   -10764733.89843  -8372041.18742  23452880.049    23452878.786
  22696984.627   -16797982.96543 -13036258.29542  22696986.714    22696984.015
 03  4  3  1 51 30.0000000  0  9G14G 3G 9G25G11G31G15G23G18
  20208508.532   -27251422.30544 -21189656.20542  20208511.146    20208506.389
  22647336.114    -8886701.17443  -6917500.46042  22647338.241    22647337.637
  24095626.091     -172662.05543   -137744.83142  24095628.850    24095628.102
  23965177.768    -7894122.35543  -6110373.84742  23965181.353    23965184.489
  24389214.226    -1378982.52043  -1034867.66042  24389216.651    24389214.675
  22519040.615   -10512835.61843  -7971230.60742  22519042.834    22519040.815
  21816054.028   -14842327.49943 -11523085.59842  21816055.356    21816053.818
  23463983.201   -10706376.20943  -8326567.67642  23463985.191    23463983.903
  22709205.511   -16733762.40843 -12986216.30442  22709207.582    22709204.790
 03  4  3  1 52  0.0000000  0  9G14G 3G 9G25G11G31G15G23G18
  20209496.240   -27246231.14344 -21185611.10842  20209498.898    20209494.143
  22660160.690    -8819307.29043  -6864985.77642  22660162.814    22660162.235
  24107396.779     -110805.43643    -89544.85242  24107399.323    24107399.022
  23946427.546    -7992653.79743  -6187151.12542  23946431.046    23946434.052
  24370324.082    -1478249.40643  -1112218.35042  24370326.646    24370325.250
  22524580.512   -10483723.17143  -7948545.58242  22524582.767    22524580.750
  21831503.288   -14761141.51643 -11459823.82342  21831504.635    21831503.034
  23475095.221   -10647982.32243  -8281065.95542  23475097.178    23475095.996
  22721443.360   -16669452.72843 -12936104.85442  22721445.468    22721442.414
 03  4  3  1 52 30.0000000  0  9G14G 3G 9G25G11G31G15G23G18
  20210574.297   -27240566.22944 -21181196.85142  20210576.888    20210572.103
  22673040.587    -8751623.35043  -6812245.07242  22673042.663    22673042.043
  24119259.244      -48468.27053    -40970.43652  24119261.729    24119261.685
  23927676.565    -8091188.53243  -6263930.99742  23927680.105    23927683.128
  24351445.762    -1577456.90143  -1189522.80942  24351448.148    24351446.901
  22530212.649   -10454126.11143  -7925482.92642  22530214.902    22530212.851
  21847014.654   -14679628.62143 -11396307.29942  21847016.066    21847014.403
  23486210.368   -10589571.73643  -8235551.18942  23486212.426    23486211.029
  22733694.376   -16605073.40943 -12885939.15542  22733696.535    22733693.216
 03  4  3  1 53  0.0000000  0  9G14G 3G 9G25G11G31G15G23G18
  20211750.548   -27234384.76744 -21176380.08642  20211753.188    20211748.405
  22685983.475    -8683608.19643  -6759246.26942  22685985.588    22685985.120
  24131221.063       14391.38443      8011.13742  24131224.119    24131223.560
  23908933.778    -8189679.92143  -6340677.08042  23908937.465    23908940.650
  24332587.329    -1676559.05443  -1266745.20242  24332589.646    24332588.411
  22535945.028   -10424002.39743  -7902009.88942  22535947.298    22535945.147
  21862596.446   -14597746.05743 -11332502.72142  21862597.862    21862596.012
  23497336.991   -10531100.41643  -8189989.12542  23497339.009    23497337.665
  22745966.910   -16540580.64443 -12835685.04842  22745968.961    22745965.675
 03  4  3  1 53 30.0000000  0  9G14G 3G 9G25G11G31G15G23G18
  20213023.739   -27227693.71744 -21171166.24142  20213026.394    20213021.626
  22698987.813    -8615270.48943  -6705996.13242  22698989.874    22698989.302
  24143280.639
  23890198.972    -8288131.30243  -6417392.02742  23890202.608    23890205.700
  24313748.000    -1775559.72743  -1343888.49842  24313750.411    24313749.141
  22541776.139   -10393359.65043  -7878132.42242  22541778.404    22541776.143
  21878247.134   -14515500.89343 -11268415.60042  21878248.570    21878246.710
  23508474.326   -10472574.10343  -8144384.20142  23508476.329    23508474.833
  22758259.732   -16475980.87743 -12785347.56742  22758261.792    22758258.750
 03  4  3  1 54  0.0000000  0  8G14G 3G25G11G31G15G23G18
  20214391.869   -27220504.06744 -21165563.87842  20214394.518    20214389.702
  22712051.021    -8546622.66743  -6652504.34842  22712053.189    22712052.492
  23871470.359    -8386549.75643  -6494081.32342  23871473.937    23871476.919
  24294926.575    -1874466.69343  -1420958.79542  24294929.227    24294927.456
  22547703.795   -10362209.39443  -7853859.47842  22547705.951    22547703.911
  21893964.695   -14432904.20543 -11204054.55642  21893966.099    21893964.388
  23519620.210   -10414002.22343  -8098743.77542  23519622.244    23519620.488
  22770571.249   -16411283.88143 -12734934.29642  22770573.335    22770570.181
 03  4  3  1 54 30.0000000  0  8G14G 3G25G11G31G15G23G18
  20215853.281   -27212824.17744 -21159579.50942  20215855.938    20215851.091
  22725171.520    -8477674.58343  -6598778.59542  22725173.679    22725172.826
  23852746.858    -8484939.44443  -6570748.19142  23852750.565    23852753.513
  24276122.202    -1973284.85143  -1497959.84742  24276124.847    24276122.679
  22553726.356   -10330560.41343  -7829197.91242  22553728.439    22553726.657
  21909747.783   -14349964.31243 -11139426.08242  21909749.059    21909747.407
  23530773.307   -10355391.74943  -8053073.25842  23530775.387    23530773.680
  22782899.785   -16346496.60643 -12684450.68542  22782901.931    22782898.717
 03  4  3  1 55  0.0000000  0  8G14G 3G25G11G31G15G23G18
  20217408.024   -27204653.69044 -21153212.85542  20217410.682    20217405.795
  22738348.780    -8408427.78943  -6544820.07242  22738351.006    22738350.046
  23834029.775    -8583296.21243  -6647389.43642  23834033.396    23834036.254
  24257335.597    -2072010.66643  -1574888.93942  24257338.072    24257335.683
  22559843.677   -10298413.17043  -7804148.10042  22559845.804    22559844.083
  21925596.047   -14266681.22043 -11074530.18842  21925597.361    21925595.654
  23541934.084   -10296740.99243  -8007371.37042  23541936.135    23541934.704
  22795245.923   -16281617.84243 -12633895.80842  22795248.059    22795244.819
 03  4  3  1 55 30.0000000  0  8G14G 3G25G11G31G15G23G18
  20219057.484   -27195985.66544 -21146458.51342  20219060.138    20219055.148
  22751583.764    -8338876.60143  -6490624.36042  22751585.962    22751585.152
  23815321.316    -8681608.93843  -6723996.31742  23815324.795    23815327.509
  24238568.468    -2170633.78043  -1651738.00342  24238571.032    24238568.244
  22566057.052   -10265761.22043  -7778705.01442  22566059.155    22566057.469
  21941510.937   -14183047.80843 -11009361.30342  21941512.267    21941510.630
  23553104.295   -10238041.50143  -7961631.48442  23553106.408    23553104.860
  22807610.587   -16216639.44043 -12583263.27042  22807612.854    22807609.588
 03  4  3  1 56  0.0000000  0  8G14G 3G25G11G31G15G23G18
  20220800.093   -27186828.19144 -21139322.77742  20220802.711    20220797.803
  22764874.984    -8269031.08743  -6436199.30742  22764877.185    22764876.222
  23796620.335    -8779881.98743  -6800572.28242  23796623.716    23796626.484
  24219819.778    -2269159.14743  -1728510.88442  24219822.564    24219819.239
  22572365.101   -10232613.39043  -7752875.54342  22572367.098    22572365.230
  21957490.898   -14099072.14543 -10943925.73242  21957492.220    21957490.792
  23564282.359   -10179300.08943  -7915858.95642  23564284.571    23564282.854
  22819993.433   -16151568.21743 -12532558.42242  22819995.612    22819992.266
 03  4  3  1 56 30.0000000  0  8G14G 3G25G11G31G15G23G18
  20222635.610   -27177182.03544 -21131806.24742  20222638.233    20222633.384
  22778221.794    -8198893.81043  -6381546.91842  22778223.949    22778222.823
  23777927.417    -8878112.30043  -6877114.94742  23777930.783    23777933.581
  24201090.167    -2367584.49843  -1805205.83042  24201093.137    24201089.486
  22578766.910   -10198971.35943  -7726660.98942  22578768.935    22578766.997
  21973535.853   -14014755.25743 -10878224.26742  21973537.163    21973535.818
  23575468.494   -10120516.22143  -7870053.36642  23575470.728    23575468.928
  22832393.715   -16086404.56443 -12481781.55742  22832395.980    22832392.640
 03  4  3  1 57  0.0000000  0  8G14G 3G25G11G31G15G23G18
  20224567.326   -27167030.51544 -21123895.93142  20224569.944    20224565.078
  22791626.917    -8128449.31443  -6326655.11942  22791629.127    22791628.065
  23759246.536    -8976279.02643  -6953608.05542  23759249.926    23759252.682
  24182383.286    -2465889.52243  -1881807.00942  24182386.363    24182382.753
  22585265.839   -10164818.79343  -7700048.59542  22585267.876    22585266.109
  21989649.014   -13930080.37543 -10812243.85242  21989650.239    21989648.919
  23586666.355   -10061671.55143  -7824200.38842  23586668.540    23586666.759
  22844815.022   -16021130.18443 -12430918.38342  22844817.307    22844813.829
 03  4  3  1 57 30.0000000  0  8G14G 3G25G11G31G15G23G18
  20226592.875   -27156385.92744 -21115601.41242  20226595.503    20226590.644
  22805087.930    -8057711.27743  -6271534.59442  22805090.108    22805089.163
  23740576.168    -9074390.47743  -7030058.09142  23740579.585    23740582.217
  24163697.363    -2564083.19443  -1958321.44842  24163700.672    24163697.061
  22591859.567   -10130168.73543  -7673048.54042  22591861.588    22591859.917
  22005827.718   -13845060.05943 -10745994.26642  22005829.089    22005827.746
  23597873.594   -10002776.91343  -7778308.47042  23597875.824    23597874.097
  22857255.245   -15955756.33643 -12379977.71742  22857257.433    22857254.058
 03  4  3  1 58  0.0000000  0  8G14G 3G25G11G31G15G23G18
  20228707.878   -27145271.43244 -21106940.73342  20228710.514    20228705.651
  22818599.854    -7986704.66243  -6216204.78442  22818602.026    22818601.283
  23721912.796    -9172465.79543  -7106479.94542  23721916.183    23721918.467
  24145028.879    -2662185.26443  -2034764.47742  24145032.224    24145029.066
  22598543.491   -10095045.03743  -7645679.42242  22598545.484    22598543.648
  22022068.022   -13759717.43643 -10679493.54342  22022069.330    22022067.883
  23609086.329    -9943853.90543  -7732394.45642  23609088.500    23609086.955
  22869710.259   -15890304.91243 -12328976.58242  22869712.428    22869708.989
 03  4  3  1 58 30.0000000  0  8G14G 3G25G11G31G15G23G18
  20230914.424   -27133676.19044 -21097905.44142  20230917.035    20230912.122
  22832164.952    -7915420.28543  -6160658.53742  22832166.987    22832166.272
  23703259.313    -9270489.89743  -7182861.90642  23703262.633    23703264.474
  24126380.851    -2760181.51043  -2111125.07842  24126383.956    24126380.924
  22605319.289   -10059437.45043  -7617933.23042  22605321.422    22605319.540
  22038371.572   -13674041.80643 -10612733.32442  22038372.893    22038371.301
  23620306.771    -9884890.11943  -7686448.63742  23620309.002    23620307.503
  22882182.370   -15824763.81643 -12277905.59942  22882184.528    22882181.026
 03  4  3  1 59  0.0000000  0  8G14G 3G25G11G31G15G23G18
  20233215.336   -27121584.69344 -21088483.44942  20233217.951    20233212.973
  22845785.614    -7843844.08643  -6104884.91342  22845787.731    22845786.835
  23684619.195    -9368443.46943  -7259188.89542  23684622.572    23684624.031
  24107755.940    -2858053.10543  -2187388.52942  24107759.196    24107756.565
  22612190.293   -10023331.06343  -7589798.37342  22612192.342    22612190.333
  22054741.482   -13588017.69443 -10545701.55942  22054742.848    22054741.135
  23631538.170    -9825868.51343  -7640457.78342  23631540.401    23631539.049
  22894674.591   -15759116.60943 -12226751.92542  22894676.756    22894673.270
 03  4  3  1 59 30.0000000  0  8G14G 3G25G11G31G15G23G18
  20235609.068   -27109005.31244 -21078681.29842  20235611.701    20235606.738
  22859459.654    -7771985.84243  -6048891.48642  22859461.905    22859460.949
  23665991.504    -9466330.79143  -7335464.29042  23665994.971    23665996.291
  24089154.101    -2955804.58043  -2263558.37642  24089157.461    24089154.949
  22619154.194    -9986735.07043  -7561281.98642  22619156.265    22619154.197
  22071176.109   -13501653.37843 -10478404.70042  22071177.563    22071175.782
  23642779.348    -9766795.77143  -7594427.09142  23642781.539    23642780.197
  22907185.695   -15693369.98743 -12175520.79642  22907187.823    22907184.457
 03  4  3  2  0  0.0000000  0  8G14G 3G25G11G31G15G23G18
  20238093.994   -27095946.80344 -21068505.80542  20238096.589    20238091.661
  22873185.456    -7699855.98243  -5992686.42842  22873187.640    22873186.764
  23647375.250    -9564156.44043  -7411691.64742  23647378.897    23647380.304
  24070574.209    -3053441.52743  -2339638.98542  24070577.448    24070575.225
  22626209.486    -9949658.70943  -7532391.29142  22626211.532    22626209.505
  22087673.992   -13414957.57343 -10410849.54742  22087675.438    22087673.421
  23654028.997    -9707679.05243  -7548362.15642  23654031.098    23654029.694
  22919714.321   -15627531.64243 -12124218.19842  22919716.409    22919713.029
 03  4  3  2  0 30.0000000  0  8G14G 3G25G11G31G15G23G18
  20240671.441   -27082401.92244 -21057951.31742  20240674.017    20240669.088
  22886964.323    -7627448.78143  -5936265.27442  22886966.382    22886965.400
  23628772.919    -9661909.19043  -7487862.21842  23628776.621    23628778.278
  24052018.329    -3150953.02443  -2415621.84342  24052021.381    24052019.368
  22633357.492    -9912095.45143  -7503121.20842  22633359.514    22633357.348
  22104235.951   -13327923.10443 -10343030.48142  22104237.497    22104235.522
  23665288.363    -9648509.62343  -7502256.08142  23665290.493    23665289.342
  22932261.880   -15561593.08443 -12072837.47742  22932263.992    22932260.764
 03  4  3  2  1  0.0000000  0  8G14G 3G25G11G31G15G23G18
  20243339.546   -27068380.96644 -21047025.85842  20243342.059    20243337.127
  22900793.339    -7554776.12743  -5879637.25542  22900795.436    22900794.617
  23610183.576    -9759595.22143  -7563980.82642  23610187.161    23610188.889
  24033484.853    -3248346.06643  -2491512.37642  24033487.759    24033486.049
  22640596.011    -9874056.48343  -7473480.42942  22640598.188    22640595.946
  22120860.381   -13240560.43643 -10274955.67942  22120861.925    22120860.116
  23676556.643    -9589296.23743  -7456115.79542  23676558.672    23676557.331
  22944826.890   -15495563.39143 -12021385.76842  22944828.936    22944825.819
 03  4  3  2  1 30.0000000  0  8G14G 3G25G11G31G15G23G18
  20246097.646   -27053886.82844 -21035731.69242  20246100.199    20246095.235
  22914672.005    -7481842.32543  -5822805.73842  22914674.075    22914673.548
  23591607.463    -9857212.98443  -7640046.23542  23591610.971    23591612.328
  24014974.184    -3345620.29343  -2567310.35142  24014977.024    24014975.344
  22647924.605    -9835545.21543  -7443471.62642  22647926.715    22647924.551
  22137546.969   -13152872.51843 -10206627.45142  22137548.487    22137546.532
  23687832.546    -9530039.94043  -7409942.04042  23687834.702    23687833.471
  22957408.810   -15429443.87143 -11969864.04642  22957410.999    22957407.960
 03  4  3  2  2  0.0000000  0  8G14G 3G25G11G31G15G23G18
  20248946.995   -27038913.39344 -21024064.04242  20248949.565    20248944.548
  22928601.672    -7408642.66743  -5765767.08342  22928603.760    22928603.127
  23573046.291    -9954752.62843  -7716050.79642  23573049.662    23573050.558
  23996487.893    -3442765.54743  -2643007.82842  23996490.739    23996489.193
  22655343.876    -9796556.30043  -7413090.61642  22655346.033    22655344.068
  22154296.466   -13064853.34943 -10138041.10142  22154298.021    22154295.944
  23699118.370    -9470733.17343  -7363728.94842  23699120.415    23699119.254
  22970009.443   -15363227.47043 -11918266.85642  22970011.605    22970008.570
 03  4  3  2  2 30.0000000  0  8G14G 3G25G11G31G15G23G18
  20251885.655   -27023470.56544 -21012030.63742  20251888.256    20251883.195
  22942579.478    -7335188.61743  -5708530.18642  22942581.572    22942581.193
  23554498.438   -10052219.66543  -7791998.80642  23554501.909    23554502.803
  23978025.014    -3539788.26143  -2718609.83842  23978027.783    23978026.316
  22662852.135    -9757100.26643  -7382345.64042  22662854.194    22662852.374
  22171107.089   -12976512.67043 -10069204.21542  22171108.540    22171106.551
  23710412.066    -9411384.09443  -7317482.91242  23710414.075    23710412.888
  22982627.010   -15296922.53443 -11866600.67142  22982629.133    22982625.962
 03  4  3  2  3  0.0000000  0  8G14G 3G25G11G31G15G23G18
  20254914.126   -27007555.69644 -20999629.41342  20254916.739    20254911.708
  22956606.057    -7261478.87943  -5651094.06642  22956608.093    22956607.683
  23535965.719   -10149607.28143  -7867884.93642  23535969.136    23535970.243
  23959586.444    -3636682.06443  -2794111.38142  23959589.252    23959588.074
  22670449.554    -9717175.09143  -7351235.09842  22670451.662    22670449.608
  22187979.372   -12887847.85943 -10000114.75542  22187980.708    22187978.991
  23721714.854    -9351988.18443  -7271200.37042  23721716.927    23721715.658
  22995261.908   -15230524.88143 -11814862.25642  22995264.066    22995261.050
 03  4  3  2  3 30.0000000  0  8G14G 3G25G11G31G15G23G18
  20258030.210   -26991180.29844 -20986869.32842  20258032.833    20258027.792
  22970678.768    -7187526.76843  -5593469.07942  22970680.863    22970680.147
  23517447.249   -10246922.82243  -7943714.93642  23517450.371    23517451.544
  23941170.378    -3733455.30943  -2869518.95342  23941173.198    23941172.802
  22678133.897    -9676793.24143  -7319768.71342  22678136.080    22678133.896
  22204911.249   -12798870.63343  -9930781.85642  22204912.506    22204910.960
  23733024.610    -9292555.66843  -7224889.31542  23733026.787    23733025.425
  23007912.487   -15164045.14143 -11763059.84242  23007914.636    23007911.833
 03  4  3  2  4  0.0000000  0  8G14G 3G25G11G31G15G23G18
  20261240.351   -26974310.85244 -20973724.27742  20261242.952    20261237.861
  22984803.588    -7113299.95243  -5535630.03742  22984805.687    22984805.050
  23498949.755   -10344128.68143  -8019459.45842  23498952.715    23498953.655
  23922784.996    -3830070.47443  -2944803.37042  23922787.628    23922787.253
  22685911.347    -9635921.69143  -7287920.72842  22685913.570    22685911.571
  22221908.892   -12709547.41443  -9861179.35442  22221910.118    22221908.736
  23744347.734    -9233051.16843  -7178522.17542  23744349.900    23744348.558
  23020585.675   -15097447.93343 -11711165.90542  23020587.837    23020584.889
 03  4  3  2  4 30.0000000  0  8G14G 3G25G11G31G15G23G18
  20264542.753   -26956956.30844 -20960201.22542  20264545.346    20264540.262
  22998978.662    -7038808.71043  -5477584.93142  22998980.759    22998980.442
  23480471.801   -10441229.04843  -8095121.76142  23480474.959    23480475.654
  23904428.843    -3926532.67443  -3019968.59542  23904431.306    23904430.920
  22693780.445    -9594570.00343  -7255698.61942  22693782.645    22693780.700
  22238970.655   -12619887.00143  -9791314.10142  22238971.865    22238970.566
  23755683.438    -9173481.57943  -7132104.29742  23755685.549    23755684.119
  23033279.724   -15030740.88243 -11659186.40242  23033281.926    23033278.909
 03  4  3  2  5  0.0000000  0  8G14G 3G25G11G31G15G23G18
  20267935.774   -26939125.65144 -20946307.17942  20267938.347    20267933.296
  23013202.256    -6964063.67943  -5419342.09042  23013204.196    23013204.083
  23462012.914   -10538228.79343  -8170705.68342  23462016.145    23462016.591
  23886100.580    -4022847.76343  -3095019.17942  23886103.138    23886102.647
  22701738.968    -9552748.10543  -7223110.12342  22701741.149    22701739.171
  22256094.977   -12529898.65643  -9721193.33142  22256096.153    22256094.842
  23767029.964    -9113854.41543  -7085641.57242  23767032.129    23767030.713
  23045993.317   -14963931.82243 -11607127.38542  23045995.530    23045992.102
 03  4  3  2  5 30.0000000  0  8G14G 3G25G11G31G15G23G18
  20271419.316   -26920819.11044 -20932042.31542  20271421.880    20271416.961
  23027473.758    -6889066.45843  -5360902.73842  23027475.692    23027475.456
  23443574.176   -10635124.12043  -8246208.25042  23443577.341    23443577.639
  23867801.112    -4119011.95943  -3169952.17942  23867803.629    23867803.019
  22709786.663    -9510456.86843  -7190155.88742  22709788.948    22709786.787
  22273281.630   -12439582.25443  -9650816.92642  22273282.908    22273281.524
  23778387.961    -9054167.98843  -7039132.68242  23778390.026    23778388.480
  23058726.140   -14897019.62643 -11554988.02242  23058728.441    23058724.913
 03  4  3  2  6  0.0000000  0  8G14G 3G25G11G31G15G23G18
  20274984.062   -26902085.71344 -20917444.83742  20274986.640    20274981.835
  23041783.779    -6813867.20843  -5302305.96742  23041785.770    23041785.215
  23425146.974   -10731959.54943  -8321664.11242  23425149.986    23425150.346
  23849521.845    -4215070.67443  -3244803.01242  23849524.360    23849523.490
  22717914.212    -9467745.94443  -7156874.64642  22717916.444    22717914.431
  22290521.472   -12348986.87543  -9580223.13342  22290522.801    22290521.217
  23789748.145    -8994469.46343  -6992614.34242  23789750.119    23789748.482
  23071469.775   -14830051.44943 -11502805.02642  23071471.964    23071468.590
 03  4  3  2  6 30.0000000  0  8G14G 3G25G11G31G15G23G18
  20278635.284   -26882898.51044 -20902493.73642  20278637.837    20278633.038
  23056137.315    -6738440.82243  -5243532.20042  23056139.251    23056138.375
  23406736.921   -10828703.65343  -8397048.83042  23406740.034    23406740.518
  23831268.418    -4310993.01543  -3319547.57942  23831270.961    23831269.849
  22726126.507    -9424589.09143  -7123245.92242  22726128.756    22726126.899
  22307819.448   -12258085.51543  -9509390.91042  22307820.843    22307819.248
  23801116.162    -8934730.17743  -6946064.21842  23801118.209    23801116.403
  23084229.377   -14762999.02243 -11450556.38042  23084231.590    23084228.151
 03  4  3  2  7  0.0000000  0  8G14G 3G25G11G31G15G23G18
  20282374.666   -26863247.96644 -20887181.59542  20282377.259    20282372.376
  23070535.217    -6662779.39043  -5184575.26942  23070537.357    23070536.357
  23388347.041   -10925343.15943  -8472352.02942  23388350.070    23388350.390
  23813043.387    -4406765.77543  -3394175.56942  23813046.140    23813044.658
  22734425.811    -9380977.79143  -7089263.11142  22734427.954    22734425.777
  22325177.382   -12166868.96343  -9438313.09742  22325178.812    22325177.216
  23812494.100    -8874938.98643  -6899473.67842  23812496.174    23812494.188
  23097007.117   -14695851.47643 -11398233.63242  23097009.286    23097005.646
 03  4  3  2  7 30.0000000  0  8G14G 3G25G11G31G15G23G18
  20286204.489   -26843122.09844 -20871499.07542  20286207.070    20286202.159
  23084980.048    -6586871.50243  -5125426.31142  23084982.164    23084981.263
  23369979.890   -11021861.43043  -8547560.76042  23369983.085    23369983.143
  23794849.728    -4502373.37243  -3468674.84742  23794852.650    23794851.002
  22742813.238    -9336900.45843  -7054917.13342  22742815.530    22742813.469
  22342597.611   -12075324.93343  -9366980.09942  22342599.026    22342597.424
  23823884.608    -8815081.83643  -6852831.75042  23823886.725    23823884.698
  23109805.533   -14628595.16043 -11345826.13242  23109807.677    23109804.095
 03  4  3  2  8  0.0000000  0  8G14G 3G25G11G31G15G23G18
  20290118.769   -26822552.67744 -20855470.92642  20290121.366    20290116.368
  23099465.279    -6510750.76143  -5066111.47742  23099467.325    23099466.822
  23351630.514   -11118285.83843  -8622696.34642  23351633.769    23351633.702
  23776682.389    -4597843.85243  -3543067.29442  23776685.342    23776683.356
  22751283.519    -9292389.64043  -7020233.39342  22751285.777    22751283.650
  22360074.151   -11983485.37243  -9295416.81642  22360075.575    22360073.969
  23835281.781    -8755188.78243  -6806161.81142  23835283.871    23835282.209
  23122619.120   -14561260.28443 -11293357.40942  23122621.269    23122617.645
 03  4  3  2  8 30.0000000  0  8G14G 3G25G11G31G15G23G18
  20294120.548   -26801523.01744 -20839084.15042  20294123.197    20294118.132
  23113993.915    -6434401.79043  -5006618.80542  23113996.059    23113995.685
  23333303.090   -11214595.40443  -8697742.43842  23333306.244    23333306.223
  23758544.784    -4693156.78143  -3617336.98542  23758547.855    23758545.603
  22759839.027    -9247429.58343  -6985199.57442  22759841.177    22759839.214
  22377610.191   -11891333.31743  -9223610.03342  22377611.617    22377609.971
  23846689.443    -8695241.14943  -6759449.34442  23846691.634    23846689.925
  23135450.999   -14493828.60343 -11240813.25442  23135453.164    23135449.697
 03  4  3  2  9  0.0000000  0  8G14G 3G25G11G31G15G23G18
  20298210.998   -26780027.53344 -20822334.40142  20298213.631    20298208.569
  23128566.879    -6357820.09243  -4946944.79942  23128569.049    23128568.646
  23314999.528   -11310780.04643  -8772691.19242  23315002.573    23315002.720
  23740439.145    -4788302.39343  -3691476.29942  23740442.170    23740439.625
  22768481.190    -9202015.23843  -6949811.78542  22768483.279    22768481.245
  22395206.628   -11798863.25743  -9151555.47242  22395208.094    22395206.388
  23858108.950    -8635231.29143  -6712688.41642  23858111.164    23858109.493
  23148302.533   -14426293.02043 -11188188.11342  23148304.649    23148301.427
 03  4  3  2  9 30.0000000  0  8G14G 3G25G11G31G15G23G18
  20302386.510   -26758085.15244 -20805236.41342  20302389.153    20302384.019
  23143180.467    -6281026.11043  -4887105.38242  23143182.616    23143181.886
  23296716.952   -11406854.51143  -8847554.09142  23296719.917    23296720.161
  23722362.510    -4883295.88643  -3765497.09842  23722365.502    23722362.704
  22777206.011    -9156166.21043  -6914085.26742  22777208.085    22777206.126
  22412859.934   -11706094.38143  -9079268.06742  22412861.421    22412859.663
  23869536.887    -8575176.38343  -6665892.36642  23869539.197    23869537.643
  23161170.527   -14358670.91343 -11135495.56242  23161172.605    23161169.486
 03  4  3  2 10  0.0000000  0  8G14G 3G25G11G31G15G23G18
  20306646.701   -26735697.34844 -20787791.34542  20306649.360    20306644.212
  23157833.483    -6204023.15743  -4827103.10342  23157835.696    23157834.949
  23278455.949   -11502816.08043  -8922329.03042  23278458.852    23278458.955
  23704315.036    -4978134.91443  -3839397.51342  23704318.027    23704315.241
  22786013.008    -9109884.93643  -6878021.93342  22786015.140    22786013.209
  22430569.923   -11613027.92943  -9006748.78142  22430571.303    22430569.659
  23880973.792    -8515076.12543  -6619061.00242  23880976.001    23880974.382
  23174054.995   -14290962.37643 -11082735.65242  23174057.069    23174054.065
 03  4  3  2 10 30.0000000  0  8G14G 3G25G11G31G15G23G18
  20310994.597   -26712848.61144 -20769987.11142  20310997.246    20310992.112
  23172529.311    -6126796.63143  -4766926.64842  23172531.413    23172530.655
  23260220.410   -11598644.44043  -8997000.16242  23260223.335    23260222.937
  23686300.854    -5072800.05243  -3913162.44442  23686303.764    23686300.908
  22794905.013    -9063156.60943  -6841610.25442  22794907.158    22794905.307
  22448339.264   -11519648.26443  -8933985.42542  22448340.693    22448339.185
  23892422.610    -8454912.90143  -6572180.56142  23892424.779    23892423.089
  23186959.133   -14223150.15243 -11029894.95142  23186961.171    23186958.235
 03  4  3  2 11  0.0000000  0  8G14G 3G25G11G31G15G23G18
  20315427.220   -26689554.91544 -20751836.15542  20315429.851    20315424.696
  23187264.450    -6049363.81043  -4706589.44242  23187266.540    23187265.810
  23242007.688   -11694351.47043  -9071576.75242  23242010.817    23242010.004
  23668317.273    -5167303.54443  -3986801.39942  23668320.178    23668317.311
  22803879.074    -9015997.95043  -6804863.25342  22803881.189    22803879.262
  22466165.582   -11425971.54543  -8860990.62142  22466166.943    22466165.205
  23903880.472    -8394700.88143  -6525262.09442  23903882.663    23903880.899
  23199880.399   -14155248.42843 -10976984.51442  23199882.498    23199879.417
 03  4  3  2 11 30.0000000  0  8G14G 3G25G11G31G15G23G18
  20319950.951   -26665782.34844 -20733312.05542  20319953.590    20319948.401
  23202044.826    -5971692.17643  -4646066.13042  23202046.931    23202046.359
  23223825.320   -11789898.85343  -9146028.94842  23223828.519    23223827.660
  23650371.781    -5261607.78243  -4060285.11442  23650374.624    23650371.696
  22812941.255    -8968375.90543  -6767755.16342  22812943.378    22812941.462
  22484054.743   -11331963.87443  -8787737.92342  22484056.193    22484054.260
  23915354.335    -8334404.31643  -6478277.72442  23915356.538    23915354.966
  23212825.486   -14087221.96743 -10923976.88242  23212827.606    23212824.461
 03  4  3  2 12  0.0000000  0  8G14G 3G25G11G31G15G23G18
  20324559.787   -26641563.22944 -20714439.99542  20324562.373    20324557.130
  23216864.291    -5893815.05243  -4585382.70742  23216866.373    23216865.865
  23205668.095   -11885314.18743  -9220378.28442  23205671.278    23205670.642
  23632458.825    -5355740.80343  -4133635.38342  23632461.619    23632458.686
  22822085.398    -8920323.31243  -6730311.60642  22822087.573    22822085.452
  22502000.497   -11237657.33843  -8714252.34142  22502001.955    22502000.143
  23926838.720    -8274053.35743  -6431251.00042  23926840.931    23926839.557
  23225788.351   -14019101.30543 -10870895.82542  23225790.592    23225787.365
 03  4  3  2 12 30.0000000  0  8G14G 3G25G11G31G15G23G18
  20329247.494   -26616929.10544 -20695244.55242  20329250.108    20329244.864
  23231716.777    -5815765.53043  -4524564.95442  23231718.837    23231718.286
  23187530.839   -11980624.24543  -9294645.59442  23187534.057    23187533.541
  23614573.030    -5449730.56643  -4206874.02742  23614575.760    23614573.006
  22831305.264    -8871872.59343  -6692557.81342  22831307.404    22831305.367
  22519997.462   -11143083.38243  -8640558.38842  22519998.823    22519996.859
  23938327.966    -8213677.54143  -6384204.90142  23938330.235    23938328.697
  23238763.513   -13950916.20543 -10817764.55442  23238765.733    23238762.408
 03  4  3  2 13  0.0000000  0  8G14G 3G25G11G31G15G23G18
  20334021.743   -26591840.08244 -20675694.64742  20334024.345    20334019.193
  23246609.410    -5737505.11343  -4463582.86142  23246611.367    23246610.894
  23169422.112   -12075785.00343  -9368796.57842  23169425.324    23169424.657
  23596722.725    -5543533.14243  -4279966.79342  23596725.558    23596723.015
  22840608.344    -8822984.66443  -6654463.33442  22840610.518    22840608.523
  22538052.972   -11048202.23543  -8566625.05742  22538054.309    22538052.136
  23949829.747    -8153235.15543  -6337106.90842  23949832.077    23949830.452
  23251758.881   -13882625.37143 -10764550.91142  23251761.101    23251757.694
 03  4  3  2 13 30.0000000  0  8G14G 3G25G11G31G15G23G18
  20338879.469   -26566312.15344 -20655802.73542  20338882.061    20338876.958
  23261538.744    -5659050.98043  -4402449.80842  23261540.662    23261540.342
  23151339.655   -12170808.02643  -9442840.23542  23151342.720    23151341.939
  23578905.824    -5637160.39443  -4352922.96442  23578908.666    23578906.376
  22849991.426    -8773676.27543  -6616041.21942  22849993.560    22849991.580
  22556163.658   -10953029.47343  -8492464.49342  22556165.086    22556162.906
  23961341.487    -8092740.04643  -6289967.84442  23961343.754    23961342.377
  23264771.617   -13814243.02443 -10711265.93642  23264773.901    23264770.144
 03  4  3  2 14  0.0000000  0  8G14G 3G25G11G31G15G23G18
  20343819.013   -26540354.46044 -20635575.93542  20343821.612    20343816.448
  23276503.016    -5580413.54343  -4341173.92942  23276504.933    23276504.684
  23133282.567   -12265697.79843  -9516780.09142  23133285.458    23133284.762
  23561121.481    -5730617.28543  -4425746.40242  23561124.260    23561122.090
  22859452.728    -8723957.18843  -6577299.09342  22859454.834    22859452.752
  22574328.078   -10857574.42843  -8418083.97442  22574329.455    22574327.419
  23972862.123    -8032199.32543  -6242793.27042  23972864.374    23972862.850
  23277800.407   -13745776.53843 -10657915.41942  23277802.688    23277798.692
 03  4  3  2 14 30.0000000  0  8G14G 3G25G11G31G15G23G18
  20348842.109   -26513958.07744 -20615007.30542  20348844.707    20348839.472
  23291503.570    -5501585.05343  -4279749.18342  23291505.549    23291505.189
  23115253.350   -12360440.99443  -9590605.73442  23115256.205    23115255.584
  23543372.067    -5823890.97443  -4498427.08642  23543374.850    23543372.606
  22868993.537    -8673819.37343  -6538230.66742  22868995.667    22868993.687
  22592547.905   -10761828.40743  -8343476.71842  22592549.263    22592547.263
  23984393.251    -7971602.16843  -6195574.70042  23984395.531    23984394.100
  23290846.911   -13677215.42643 -10604491.14342  23290849.224    23290845.470
 03  4  3  2 15  0.0000000  0  8G14G 3G25G11G31G15G23G18
  20353949.476   -26487118.66344 -20594093.45242  20353952.090    20353946.878
  23306540.985    -5422562.26043  -4218173.03342  23306543.098    23306542.587
  23097253.788   -12455029.02943  -9664310.48842  23097256.650    23097255.850
  23525658.986    -5916973.66443  -4570958.96542  23525661.752    23525659.403
  22878614.689    -8623259.32443  -6498833.22742  22878616.730    22878615.011
  22610823.917   -10665786.98143  -8268639.26642  22610825.287    22610823.323
  23995936.426    -7910942.07943  -6148307.08342  23995938.756    23995937.537
  23303912.984   -13608553.76143 -10550988.53942  23303915.196    23303911.477
 03  4  3  2 15 30.0000000  0  8G14G 3G25G11G31G15G23G18
  20359138.504   -26459849.74044 -20572844.92542  20359141.103    20359136.009
  23321612.739    -5343359.95943  -4156457.02142  23321614.930    23321614.333
  23079281.917   -12549470.85943  -9737901.31142  23079284.798    23079283.890
  23507980.354    -6009874.56843  -4643349.17442  23507983.054    23507980.769
  22888313.766    -8572291.36143  -6459117.94442  22888315.757    22888313.815
  22629153.734   -10569463.51243  -8193582.06042  22629154.988    22629153.048
  24007489.281    -7850230.70143  -6100999.50142  24007491.696    24007490.663
  23316995.749   -13539803.26943 -10497416.71842  23316997.981    23316994.406
 03  4  3  2 16  0.0000000  0  8G14G 3G25G11G31G15G23G18
  20364407.908   -26432158.80044 -20551267.54342  20364410.474    20364405.403
  23336717.082    -5263987.08843  -4094608.08842  23336719.256    23336718.600
  23061337.551   -12643769.31343  -9811380.42342  23061340.254    23061339.176
  23490335.639    -6102597.13343  -4715600.43442  23490338.325    23490336.044
  22898088.675    -8520923.77343  -6419091.25642  22898090.653    22898088.915
  22647535.660   -10472865.55843  -8118310.96242  22647536.921    22647535.083
  24019051.102    -7789473.42043  -6053656.13742  24019053.339    24019052.378
  23330094.309   -13470969.75943 -10443780.20042  23330096.502    23330093.011
 03  4  3  2 16 30.0000000  0  8G14G 3G25G11G31G15G23G18
  20369759.188   -26404037.88344 -20529355.09942  20369761.739    20369756.583
  23351854.994    -5184436.96343  -4032621.03442  23351857.175    23351856.611
  23043422.741   -12737911.93443  -9884738.09842  23043425.521    23043424.274
  23472727.373    -6195129.27543  -4787703.31442  23472729.973    23472727.595
  22907941.039    -8469149.26243  -6378747.48442  22907943.048    22907941.373
  22665971.470   -10375985.02643  -8042819.66242  22665972.674    22665970.965
  24030622.752    -7728660.17043  -6006269.13742  24030625.161    24030624.710
  23343210.564   -13402043.27643 -10390071.26042  23343212.796    23343209.136
 03  4  3  2 17  0.0000000  0  8G14G 3G25G11G31G15G23G18
  20375193.611   -26375480.00444 -20507102.16642  20375196.177    20375190.967
  23367027.706    -5104703.66143  -3970491.25242  23367029.876    23367029.525
  23025539.779   -12831886.93243  -9957965.17042  23025542.597    23025541.285
  23455157.470    -6287460.01943  -4859649.26042  23455160.000    23455157.446
  22917872.073    -8416961.56843  -6338081.74742  22917874.162    22917872.271
  22684462.344   -10278814.75943  -7967102.59042  22684463.513    22684462.000
  24042207.439    -7667781.53943  -5958831.24942  24042209.718    24042209.397
  23356346.349   -13333015.09343 -10336283.05142  23356348.494    23356344.895
 03  4  3  2 17 30.0000000  0  8G14G 3G25G11G31G15G23G18
  20380707.250   -26346505.24844 -20484524.40842  20380709.864    20380704.740
  23382231.107    -5024808.73343  -3908235.52942  23382233.183    23382233.062
  23007685.534   -12925710.10543 -10031073.91842  23007688.487    23007687.152
  23437622.837    -6379605.42643  -4931450.78642  23437625.373    23437622.568
  22927877.763    -8364381.77043  -6297110.49542  22927879.916    22927877.749
  22703004.652   -10181375.12943  -7891175.63642  22703005.800    22703004.030
  24053801.452    -7606855.87843  -5911356.74142  24053803.556    24053803.122
  23369497.647   -13263903.91843 -10282430.16742  23369499.843    23369496.461
 03  4  3  2 18  0.0000000  0  8G14G 3G25G11G31G15G23G18
  20386304.443   -26317091.45244 -20461604.53742  20386307.072    20386301.984
  23397469.319    -4944731.04343  -3845837.40042  23397471.357    23397471.185
  22989865.284   -13019354.55843 -10104043.40342  22989868.267    22989866.918
  23420128.409    -6471539.25443  -5003087.43342  23420130.981    23420127.958
  22937961.930    -8311388.62043  -6255817.14142  22937964.166    22937961.848
  22721602.392   -10083643.75543  -7815021.32842  22721603.661    22721601.482
  24065408.681    -7545858.92043  -5863826.63242  24065410.771    24065410.316
  23382669.353   -13194685.62043 -10228493.83342  23382671.662    23382668.270
 03  4  3  2 18 30.0000000  0  8G14G 3G25G11G31G15G23G18
  20391986.230   -26287232.98044 -20438338.16642  20391988.866    20391983.807
  23412743.447    -4864465.93143  -3783293.21642  23412745.428    23412745.126
  22972081.041   -13112810.14743 -10176865.72442  22972083.987    22972082.570
  23402675.955    -6563251.46143  -5074551.38042  23402678.551    23402675.523
  22948125.857    -8257976.92943  -6214197.63442  22948127.939    22948125.822
  22740256.610    -9985614.72243  -7738635.08042  22740258.010    22740255.666
  24077031.045    -7484782.79743  -5816234.81642  24077033.085    24077032.463
  23395863.093   -13125352.54943 -10174468.05442  23395865.378    23395861.771
 03  4  3  2 19  0.0000000  0  8G14G 3G25G11G31G15G23G18
  20397746.842   -26256960.58944 -20414749.24542  20397749.473    20397744.400
  23428047.090    -4784045.27643  -3720627.84442  23428049.096    23428048.865
  22954327.998   -13206103.12143 -10249561.32242  22954330.797    22954329.165
  23385260.847    -6654768.87443  -5145863.56042  23385263.421    23385260.091
  22958363.317    -8204178.34243  -6172276.66242  22958365.450    22958363.474
  22758961.801    -9887318.76243  -7662040.85942  22758963.144    22758960.766
  24088663.134    -7423656.15043  -5768603.65942  24088665.126    24088664.070
  23409072.835   -13055933.65743 -10120375.40342  23409075.143    23409071.665
 03  4  3  2 19 30.0000000  0  8G14G 3G25G11G31G15G23G18
  20403584.733   -26226282.35244 -20390844.08942  20403587.342    20403582.305
  23443378.441    -4703478.43343  -3657848.55042  23443380.548    23443380.452
  22936604.878   -13299236.74543 -10322132.74742  22936607.915    22936606.205
  23367881.921    -6746095.64043  -5217027.16542  23367884.613    23367881.108
  22968672.970    -8150001.95143  -6130061.32842  22968675.084    22968672.988
  22777716.103    -9788764.00443  -7585244.96942  22777717.472    22777715.140
  24100303.519    -7362484.86743  -5720937.70542  24100305.441    24100304.322
  23422297.848   -12986435.37143 -10066220.85742  23422300.110    23422296.821
 03  4  3  2 20  0.0000000  0  8G14G 3G25G11G31G15G23G18
  20409505.259   -26195169.47744 -20366600.26042  20409507.889    20409502.873
  23458742.941    -4622738.02543  -3594934.02742  23458744.912    23458744.902
  22918918.679   -13392178.11843 -10394554.38042  22918921.602    22918919.902
  23350545.442    -6837198.83643  -5288016.53342  23350548.221    23350544.692
  22979059.419    -8095419.76643  -6087529.73942  22979061.687    22979059.683
  22796525.065    -9689921.82643  -7508225.11542  22796526.501    22796524.255
  24111958.214    -7301238.22943  -5673213.02142  24111959.967    24111959.177
  23435544.104   -12916827.19543 -10011980.72342  23435546.318    23435542.798
 03  4  3  2 20 30.0000000  0  8G14G 3G25G11G31G15G23G18
  20415501.491   -26163658.39744 -20342046.14842  20415504.153    20415499.220
  23474133.498    -4541861.09343  -3531913.11542  23474135.461    23474135.274
  22901262.892   -13484958.42743 -10466850.51342  22901265.856    22901264.158
  23333245.393    -6928110.49843  -5358856.65742  23333248.168    23333244.719
  22989516.019    -8040468.83243  -6044710.85042  22989518.169    22989516.325
  22815382.203    -9590828.21143  -7431009.35242  22815383.540    22815381.238
  24123621.263    -7239950.27643  -5625456.15742  24123623.020    24123621.987
  23448804.488   -12847143.50343  -9957681.71142  23448806.728    23448803.091
 03  4  3  2 21  0.0000000  0  8G14G 3G25G11G31G15G23G18
  20421572.770   -26131753.89344 -20317185.45942  20421575.376    20421570.398
  23489548.550    -4460853.91443  -3468790.71342  23489550.592    23489550.422
  22883637.858   -13577578.41443 -10539021.71542  22883640.731    22883638.907
  23315981.675    -7018831.37943  -5429548.09042  23315984.516    23315980.997
  23000042.000    -7985154.87743  -6001609.09542  23000044.046    23000042.155
  22834285.872    -9491488.16343  -7353601.52942  22834287.274    22834285.095
  24135291.317    -7178623.81543  -5577669.28942  24135293.235    24135291.961
  23462078.533   -12777387.43843  -9903326.31342  23462080.726    23462077.062
 03  4  3  2 21 30.0000000  0  8G14G 3G25G11G31G15G23G18
  20427725.854   -26099419.12544 -20291989.50742  20427728.455    20427723.447
  23504995.272    -4379680.71543  -3405538.93642  23504997.228    23504997.094
  22866051.130   -13669996.30543 -10611035.44342  22866054.053    22866052.081
  23298762.152    -7109320.40343  -5500058.85442  23298765.083    23298761.551
  23010643.914    -7929441.85243  -5958196.37142  23010645.917    23010643.935
  22853243.583    -9391864.83543  -7275972.96642  22853244.816    22853242.964
  24146976.353    -7117219.54843  -5529821.78942  24146978.291    24146976.886
  23475373.805   -12707520.15443  -9848884.27842  23475375.962    23475372.169
 03  4  3  2 22  0.0000000  0  8G14G 3G25G11G31G15G23G18
  20433956.998   -26066674.17944 -20266473.94042  20433959.597    20433954.545
  23520469.474    -4298362.70443  -3342174.32842  23520471.378    23520471.386
  22848499.809   -13762227.74743 -10682903.90342  22848502.699    22848500.762
  23281583.818    -7199593.54043  -5570401.40042  23281586.801    23281583.181
  23021317.741    -7873350.72043  -5914489.03542  23021319.714    23021317.823
  22872251.486    -9291978.29843  -7198139.32242  22872252.670    22872250.963
  24158672.746    -7055755.51243  -5481927.69242  24158674.743    24158673.040
  23488686.575   -12637560.23343  -9794370.02042  23488688.733    23488684.900
 03  4  3  2 22 30.0000000  0  8G14G 3G25G11G31G15G23G18
  20440266.289   -26033518.44344 -20240638.27442  20440268.926    20440263.783
  23535971.195    -4216900.77943  -3278697.56542  23535973.062    23535973.239
  22830984.990   -13854267.53243 -10754623.03842  22830987.805    22830985.939
  23264447.331    -7289646.18743  -5640572.15542  23264450.403    23264446.579
  23032063.341    -7816881.77043  -5870487.23842  23032065.424    23032063.778
  22891309.429    -9191827.72343  -7120099.93442  22891310.790    22891309.063
  24170380.710    -6994229.17143  -5433985.04442  24170382.810    24170381.203
  23502017.703   -12567505.13843  -9739781.63642  23502019.783    23502015.799
 03  4  3  2 23  0.0000000  0  8G14G 3G25G11G31G15G23G18
  20446656.567   -25999936.86544 -20214470.78342  20446659.215    20446654.109
  23551503.364    -4135280.53643  -3215097.44742  23551505.207    23551505.287
  22813510.605   -13946095.66543 -10826177.25042  22813513.291    22813511.462
  23247356.591    -7379458.85243  -5710555.91542  23247359.585    23247355.781
  23042884.024    -7760020.69243  -5826179.95642  23042886.011    23042884.060
  22910420.467    -9091398.00543  -7041843.03642  22910421.865    22910420.027
  24182104.090    -6932623.01843  -5385980.22742  24182106.176    24182104.478
  23515370.110   -12497337.67543  -9685105.69142  23515372.085    23515368.118
 03  4  3  2 23 30.0000000  0  8G14G 3G25G11G31G15G23G18
  20453122.153   -25965959.98844 -20187995.27242  20453124.737    20453119.718
  23567059.556    -4053533.34143  -3151398.40242  23567061.488    23567061.453
  22796071.676   -14037738.20943 -10897586.84842  22796074.231    22796072.268
  23230306.196    -7469057.77943  -5780373.10142  23230309.321    23230305.596
  23053772.724    -7702798.64243  -5781591.35342  23053774.851    23053773.004
  22929578.998    -8990719.51543  -6963392.28442  22929580.364    22929578.447
  24193837.095    -6870965.27643  -5337935.19442  24193839.179    24193837.584
  23528738.222   -12427086.47743  -9630364.47142  23528740.239    23528736.678
 03  4  3  2 24  0.0000000  0  8G14G 3G25G11G31G15G23G18
  20459662.707   -25931589.24644 -20161212.85342  20459665.276    20459660.208
  23582638.979    -3971662.25443  -3087602.80442  23582641.086    23582641.089
  22778668.403   -14129191.99243 -10968849.36942  22778671.066    22778668.988
  23213296.980    -7558440.42643  -5850021.77342  23213300.190    23213296.463
  23064729.906    -7645218.21043  -5736723.48342  23064731.914    23064730.240
  22948784.429    -8889793.97443  -6884749.01242  22948785.821    22948784.146
  24205579.987    -6809255.32943  -5289849.49242  24205582.131    24205580.511
  23542122.818   -12356751.02143  -9575557.60142  23542124.879    23542121.233
 03  4  3  2 24 30.0000000  0  8G14G 3G25G11G31G15G23G18
  20466283.466   -25896796.82544 -20134101.85542  20466286.054    20466280.914
  23598247.213    -3889640.31343  -3023689.68042  23598249.324    23598249.448
  22761307.383   -14220424.53943 -11039939.50942  22761310.059    22761307.899
  23196335.157    -7647574.85543  -5919477.06242  23196338.378    23196334.505
  23075760.692    -7587252.24943  -5691555.22242  23075762.677    23075760.769
  22968042.225    -8788593.42443  -6805891.47042  22968043.653    22968042.245
  24217338.771    -6747463.16243  -5241699.73042  24217340.796    24217338.932
  23555528.682   -12286301.66743  -9520661.96842  23555530.789    23555527.430
 03  4  3  2 25  0.0000000  0  8G14G 3G25G11G31G15G23G18
  20472979.150   -25861610.41044 -20106683.85442  20472981.762    20472976.649
  23613878.861    -3807496.24443  -2959681.39942  23613880.785    23613881.003
  22743984.087   -14311459.06843 -11110875.35542  22743986.750    22743984.570
  23179416.224    -7736484.20143  -5988756.96442  23179419.432    23179415.400
  23086858.949    -7528929.41943  -5646108.88242  23086861.071    23086859.034
  22987347.295    -8687145.33643  -6726841.03542  22987348.728    22987347.264
  24229108.369    -6685614.14243  -5193505.70742  24229110.312    24229108.451
  23568951.599   -12215764.30043  -9465697.76742  23568953.700    23568950.243
 03  4  3  2 25 30.0000000  0  8G14G 3G25G11G31G15G23G18
  20479748.342   -25826038.22544 -20078965.25642  20479750.905    20479745.767
  23629531.722    -3725239.23143  -2895585.07442  23629533.800    23629533.921
  22726697.822   -14402298.58743 -11181659.25542  22726700.471    22726698.296
  23162539.202    -7825172.43943  -6057864.56842  23162542.386    23162538.410
  23098023.915    -7470258.53243  -5600391.34242  23098025.913    23098023.573
  23006697.815    -8585457.60143  -6647603.86542  23006699.287    23006697.712
  24240887.499    -6623714.15043  -5145271.91342  24240889.435    24240887.693
  23582390.201   -12145145.16743  -9410669.89742  23582392.364    23582388.625
 03  4  3  2 26  0.0000000  0  8G14G 3G25G11G31G15G23G18
  20486594.616   -25790060.74044 -20050930.82242  20486597.190    20486591.947
  23645209.843    -3642851.08643  -2831386.61142  23645211.788    23645211.733
  22709453.061   -14492919.19643 -11252272.56442  22709455.814    22709453.608
  23145708.920    -7913616.01743  -6126781.55842  23145711.932    23145708.047
  23109258.288    -7411221.14643  -5554388.16542  23109260.452    23109257.951
  23026097.430    -8483511.02443  -6568164.99642  23026098.873    23026097.396
  24252680.488    -6561741.47643  -5096981.50442  24252682.477    24252680.814
  23595848.380   -12074422.92843  -9355561.65942  23595850.517    23595846.667
 03  4  3  2 26 30.0000000  0  8G14G 3G25G11G31G15G23G18
  20493514.772   -25753694.94444 -20022593.81442  20493517.344    20493512.103
  23660909.379    -3560349.83643  -2767100.00242  23660911.370    23660911.308
  22692247.655   -14583333.55543 -11322725.17042  22692250.418    22692248.143
  23128922.684    -8001827.62743  -6195517.79542  23128925.726    23128921.812
  23120558.967    -7351835.10843  -5508113.33842  23120561.122    23120558.962
  23045543.262    -8381322.66943  -6488537.72342  23045544.647    23045543.163
  24264484.386    -6499710.85043  -5048645.91342  24264486.360    24264485.041
  23609323.105   -12003612.67143  -9300384.80642  23609325.274    23609321.448
 03  4  3  2 27  0.0000000  0  8G14G 3G25G11G31G15G23G18
  20500509.671   -25716936.63544 -19993950.95942  20500512.217    20500507.047
  23676631.223    -3477732.11343  -2702722.64042  23676633.160    23676632.954
  22675083.129   -14673532.75343 -11393010.12142  22675085.878    22675083.700
  23112182.409    -8089798.70243  -6264066.62742  23112185.335    23112181.380
  23131926.540    -7292097.12543  -5461564.25542  23131928.725    23131926.892
  23065035.844    -8278888.16143  -6408718.65342  23065037.179    23065036.043
  24276300.647    -6437615.76343  -5000260.13142  24276302.592    24276301.540
  23622815.813   -11932708.05643  -9245134.43942  23622817.970    23622814.272
 03  4  3  2 27 30.0000000  0  8G14G 3G25G11G31G15G23G18
  20507580.182   -25679780.60544 -19964998.19142  20507582.754    20507577.686
  23692375.773    -3394993.89043  -2638251.38642  23692377.774    23692377.480
  22657961.461   -14763506.72443 -11463119.55742  22657964.223    22657962.261
  23095489.422    -8177519.99643  -6332420.82742  23095492.299    23095488.453
  23143362.263    -7232002.62843  -5414737.39442  23143364.250    23143362.262
  23084576.367    -8176202.21943  -6328703.64042  23084577.583    23084576.756
  24288130.655    -6375448.92343  -4951818.39942  24288132.634    24288131.633
  23636327.632   -11861702.14343  -9189805.12042  23636329.928    23636326.322
 03  4  3  2 28  0.0000000  0  8G14G 3G25G11G31G15G23G18
  20514722.900   -25642245.26144 -19935749.85542  20514725.484    20514720.475
  23708139.871    -3312154.62643  -2573701.41142  23708141.722    23708141.338
  22640880.117   -14853269.17643 -11533064.17642  22640882.865    22640880.976
  23078841.295    -8265005.51843  -6400591.32042  23078844.078    23078840.308
  23154862.288    -7171571.23343  -5367648.00642  23154864.204    23154862.120
  23104161.393    -8073283.09943  -6248506.94842  23104162.537    23104161.770
  24299971.336    -6313226.44443  -4903333.33142  24299973.309    24299972.248
  23649855.699   -11790611.48243  -9134409.76142  23649858.009    23649854.513
 03  4  3  2 28 30.0000000  0  8G14G 3G25G11G31G15G23G18
  20521938.202   -25604328.43544 -19906204.25842  20521940.773    20521935.748
  23723923.118    -3229212.86243  -2509071.55742  23723925.032    23723924.680
  22623840.222   -14942813.11743 -11602838.52742  22623842.970    22623841.063
  23062239.180    -8352248.76543  -6468573.02342  23062241.947    23062238.464
  23166426.312    -7110801.41543  -5320294.89942  23166428.480    23166426.641
  23123791.028    -7970128.72243  -6168126.93742  23123792.160    23123791.403
  24311823.234    -6250943.87743  -4854801.43742  24311825.301    24311824.216
  23663400.819   -11719431.61943  -9078944.92642  23663403.092    23663399.672
 03  4  3  2 29  0.0000000  0  8G14G 3G25G11G31G15G23G18
  20529228.455   -25566017.70144 -19876351.72142  20529231.027    20529225.942
  23739728.136    -3146157.29043  -2444353.04742  23739730.003    23739729.816
  22606845.152   -15032121.53543 -11672429.36642  22606847.919    22606845.929
  23045686.576    -8439233.17643  -6536353.03742  23045689.156    23045685.906
  23178057.110    -7049681.61143  -5272669.09342  23178059.361    23178057.442
  23143467.770    -7866726.65743  -6087553.92942  23143468.949    23143468.083
  24323689.428    -6188586.33243  -4806211.11742  24323691.441    24323690.395
  23676965.362   -11648148.14643  -9023399.34642  23676967.651    23676964.482
 03  4  3  2 29 30.0000000  0  8G14G 3G25G11G31G15G23G18
  20536590.667   -25527329.41744 -19846204.98442  20536593.206    20536587.999
  23755551.264    -3063005.45243  -2379559.49742  23755553.200    23755553.435
  22589893.019   -15121205.86743 -11741845.56542  22589895.640    22589893.563
  23029180.973    -8525970.59643  -6603940.59042  23029183.397    23029180.357
  23189751.277    -6988229.05143  -5224784.00642  23189753.722    23189751.307
  23163188.591    -7763093.11143  -6006800.54342  23163189.796    23163188.782
  24335567.111    -6126167.91043  -4757573.33542  24335569.212    24335568.269
  23690547.246   -11576775.63743  -8967784.40242  23690549.429    23690546.173
 03  4  3  2 30  0.0000000  0  8G14G 3G25G11G31G15G23G18
  20544025.672   -25488257.99644 -19815759.70242  20544028.215    20544022.971
  23771393.870    -2979752.57643  -2314687.23542  23771395.844    23771396.202
  22572985.301   -15210056.22543 -11811079.46642  22572987.921    22572985.772
  23012724.273    -8612450.77743  -6671327.71242  23012726.681    23012723.690
  23201509.045    -6926438.91943  -5176635.85342  23201511.570    23201509.554
  23182954.455    -7659222.18343  -5925862.17542  23182955.618    23182954.626
  24347458.066    -6063680.52543  -4708881.87942  24347460.054    24347459.377
  23704147.353   -11505306.38043  -8912094.06642  23704149.575    23704146.388
 03  4  3  2 30 30.0000000  0  8G14G 3G25G11G31G15G23G18
  20551532.146   -25448811.27144 -19785021.97642  20551534.692    20551529.427
  23787253.947    -2896407.60443  -2249743.20142  23787256.084    23787256.383
  22556121.705   -15298675.70443 -11880133.43942  22556124.195    22556121.898
  22996315.923    -8698677.80343  -6738517.55142  22996318.284    22996315.317
  23213329.688    -6864320.13543  -5128231.59742  23213331.953    23213330.417
  23202764.076    -7555122.01043  -5844745.17342  23202765.148    23202764.162
  24359360.936    -6001130.13943  -4660141.31342  24359363.013    24359362.162
  23717764.565   -11433746.37143  -8856333.01142  23717766.721    23717763.861
 03  4  3  2 31  0.0000000  0  8G14G 3G25G11G31G15G23G18
  20559112.727   -25408974.87844 -19753980.61342  20559115.282    20559110.081
  23803134.096    -2812957.13043  -2184716.95542  23803136.141    23803136.577
  22539305.231   -15387045.54143 -11948992.89842  22539307.907    22539305.455
  22979959.303    -8784632.68643  -6805495.33542  22979961.700    22979958.716
  23225215.874    -6801859.25643  -5079560.81242  23225217.984    23225216.421
  23222620.086    -7450778.30643  -5763438.41442  23222621.131    23222620.204
  24371278.845    -5938499.90943  -4611338.53142  24371280.909    24371280.162
  23731402.081   -11362079.38543  -8800488.58142  23731404.243    23731401.685
 03  4  3  2 31 30.0000000  0  8G14G 3G25G11G31G15G23G18
  20566761.213   -25368781.36644 -19722660.97742  20566763.775    20566758.657
  23819028.230    -2729434.60243  -2119634.56442  23819030.185    23819030.302
  22522531.036   -15475193.46643 -12017679.44542  22522533.801    22522531.292
  22963648.853    -8870343.93443  -6872283.23142  22963651.261    22963648.397
  23237159.939    -6739089.62143  -5030649.40342  23237162.354    23237161.021
  23242516.188    -7346223.36243  -5681967.02042  23242517.311    23242516.484
  24383206.626    -5875820.09443  -4562497.18142  24383208.617    24383207.610
  23745054.430   -11290335.98943  -8744584.60842  23745056.498    23745053.999
 03  4  3  2 32  0.0000000  0  8G14G 3G25G11G31G15G23G18
  20574479.810   -25328219.72044 -19691054.48142  20574482.378    20574477.280
  23834937.896    -2645829.95943  -2054488.21942  23834940.015    23834939.477
  22505802.318   -15563103.26743 -12086180.44242  22505804.992    22505802.543
  22947387.902    -8955795.90843  -6938869.11142  22947390.367    22947387.296
  23249165.610    -6676001.08243  -4981489.51742  23249167.605    23249166.217
  23262454.836    -7241445.96543  -5600322.34142  23262455.857    23262455.057
  24395145.965    -5813077.40643  -4513606.73042  24395148.142    24395147.092
  23758723.583   -11218502.82643  -8688610.69442  23758725.593    23758723.522
 03  4  3  2 32 30.0000000  0  8G14G 3G25G11G31G15G23G18
  20582274.360   -25287259.42944 -19659137.34842  20582276.904    20582271.724
  23850868.719    -2562113.75243  -1989254.94242  23850870.931    23850870.293
  22489125.562   -15650740.15543 -12154468.78242  22489128.113    22489125.650
  22931182.905    -9040953.84743  -7005225.86542  22931185.503    22931182.148
  23261237.673    -6612563.98843  -4932058.05342  23261239.487    23261237.800
  23282441.299    -7136415.85443  -5518480.70942  23282442.539    23282441.605
  24407103.654    -5750238.88243  -4464641.62742  24407105.844    24407104.784
  23772416.276   -11146547.45243  -8632541.58142  23772418.270    23772416.167
 03  4  3  2 33  0.0000000  0  8G14G 3G25G11G31G15G23G18
  20590136.003   -25245946.13344 -19626945.14442  20590138.578    20590133.318
  23866811.367    -2478332.52243  -1923970.93942  23866813.680    23866813.542
  22472492.758   -15738144.95243 -12222576.27242  22472495.409    22472492.812
  22915025.973    -9125858.96243  -7071385.61342  22915028.590    22915025.111
  23273366.906    -6548824.96143  -4882391.28742  23273368.884    23273366.881
  23302467.077    -7031178.58043  -5436477.66142  23302468.384    23302467.582
  24419071.552    -5687347.83743  -4415635.59542  24419073.804    24419072.581
  23786123.978   -11074513.67143  -8576411.36542  23786126.065    23786123.748
 03  4  3  2 33 30.0000000  0  8G14G 3G25G11G31G15G23G18
  20598065.156   -25204277.97844 -19594476.43042  20598067.739    20598062.461
  23882766.681    -2394485.38843  -1858635.60442  23882768.830    23882769.301
  22455905.655   -15825311.37543 -12290498.01542  22455908.192    22455905.420
  22898918.226    -9210505.21543  -7137343.62542  22898920.951    22898917.422
  23285553.510    -6484783.20043  -4832488.61942  23285555.371    23285553.681
  23322533.086    -6925732.20943  -5354311.66242  23322534.313    23322533.318
  24431049.861    -5624400.23443  -4366585.43542  24431052.152    24431051.385
  23799846.813   -11002397.82143  -8520217.16442  23799848.944    23799846.895
 03  4  3  2 34  0.0000000  0  8G14G 3G25G11G31G15G23G18
  20606063.076   -25162248.57844 -19561726.22742  20606065.655    20606060.326
  23898735.938    -2310566.70843  -1793244.52442  23898737.669    23898738.460
  22439365.786   -15912228.11743 -12358225.21042  22439368.386    22439365.626
  22882861.664    -9294881.87743  -7203091.54742  22882864.500    22882861.013
  23297799.019    -6420432.96043  -4782345.58942  23297800.815    23297799.066
  23342639.946    -6820070.51843  -5271977.88642  23342641.310    23342640.146
  24443040.997    -5561387.16943  -4317484.32542  24443043.328    24443042.296
  23813587.616   -10930191.28843  -8463952.33542  23813589.444    23813587.058
 03  4  3  2 34 30.0000000  0  8G14G 3G25G11G31G15G23G18
  20614130.965   -25119851.30744 -19528689.37142  20614133.547    20614128.272
  23914719.832    -2226570.73943  -1727793.21742  23914721.502    23914722.310
  22422875.614   -15998883.61043 -12425748.84442  22422878.294    22422875.500
  22866858.675    -9378977.79743  -7268620.71342  22866861.561    22866857.929
  23310104.078    -6355768.42543  -4731957.63642  23310106.000    23310104.350
  23362788.883    -6714186.39143  -5189470.78042  23362790.297    23362789.449
  24455046.404    -5498299.65743  -4268325.21142  24455048.723    24455047.309
  23827347.260   -10857885.14843  -8407609.85842  23827349.033    23827346.142
 03  4  3  2 35  0.0000000  0  8G14G 3G25G11G31G15G23G18
  20622271.553   -25077072.21144 -19495354.99242  20622274.113    20622268.861
  23930721.043    -2142484.49043  -1662271.55142  23930722.849    23930723.611
  22406438.806   -16085259.48143 -12493054.59242  22406441.482    22406438.464
  22850912.617    -9462774.64643  -7333916.84342  22850915.487    22850911.761
  23322471.795    -6290776.63643  -4681314.70842  23322473.650    23322471.928
  23382982.786    -6608065.93443  -5106779.52042  23382984.132    23382983.599
  24467069.076    -5435121.38643  -4219095.36142  24467071.304    24467069.886
  23841128.313   -10785463.61943  -8351177.45342  23841130.138    23841127.517
 03  4  3  2 35 30.0000000  0  8G14G 3G25G11G31G15G23G18
  20630478.570   -25033943.97244 -19461748.54742  20630481.145    20630475.836
  23946733.349    -2058341.81243  -1596705.93642  23946735.135    23946735.699
  22390049.665   -16171383.73943 -12560164.27042  22390052.405    22390049.363
  22835017.979    -9546300.83243  -7399002.06442  22835020.938    22835017.045
  23334895.270    -6225491.45643  -4630443.16342  23334897.026    23334895.287
  23403215.672    -6501741.96843  -5023929.69042  23403216.894    23403216.392
  24479103.000    -5371882.92443  -4169818.58942  24479105.227    24479104.009
  23854925.908   -10712957.61243  -8294679.25242  23854927.745    23854924.792
 03  4  3  2 36  0.0000000  0  8G14G 3G25G11G31G15G23G18
  20638756.651   -24990442.60944 -19427851.35542  20638759.212    20638753.866
  23962760.610    -1974119.41143  -1531078.18542  23962762.540    23962762.802
  22373713.842   -16257228.00043 -12627055.77642  22373716.608    22373713.650
  22819180.380    -9629528.09843  -7463854.34842  22819183.348    22819179.391
  23347378.944    -6159889.67843  -4579324.91642  23347380.805    23347379.087
  23423491.702    -6395190.65043  -4940902.70142  23423492.960    23423492.256
  24491153.279    -5308557.91143  -4120474.38842  24491155.464    24491154.424
  23868744.550   -10640340.87643  -8238094.79042  23868746.678    23868743.216
 03  4  3  2 36 30.0000000  0  8G14G 3G25G11G31G15G23G18
  20647097.879   -24946609.02744 -19393695.29842  20647100.459    20647095.113
  23978794.549    -1889859.21943  -1465421.01042  23978796.804    23978797.058
  22357424.724   -16342828.21643 -12693757.11742  22357427.381    22357424.450
  22803392.678    -9712493.08643  -7528502.24042  22803395.629    22803391.672
  23359914.915    -6094013.18343  -4527992.61142  23359917.015    23359914.994
  23443803.302    -6288452.81843  -4857730.39142  23443804.490    23443803.630
  24503212.857    -5245184.82043  -4071092.70142  24503215.134    24503213.861
  23882576.565   -10567652.43443  -8181454.44742  23882578.624    23882575.344
 03  4  3  2 37  0.0000000  0  8G14G 3G25G11G31G15G23G18
  20655505.153   -24902428.21144 -19359268.67042  20655507.776    20655502.420
  23994838.580    -1805547.03343  -1399723.30842  23994840.825    23994841.257
  22341185.660   -16428164.42543 -12760252.74642  22341188.370    22341185.396
  22787658.397    -9795176.37843  -7592930.62042  22787661.381    22787657.496
  23372505.802    -6027847.69443  -4476435.12542  23372507.830    23372505.864
  23464153.113    -6181513.33543  -4774400.92942  23464154.329    23464153.461
  24515284.875    -5181746.15243  -4021660.00342  24515287.182    24515285.320
  23896425.444   -10494875.16843  -8124744.82442  23896427.382    23896424.363
 03  4  3  2 37 30.0000000  0  8G14G 3G25G11G31G15G23G18
  20663979.755   -24857893.86544 -19324566.56242  20663982.374    20663976.991
  24010893.596    -1721177.46943  -1333980.89242  24010895.806    24010896.333
  22324998.989   -16513226.04143 -12826534.39242  22325001.710    22324998.495
  22771979.947    -9877567.01443  -7657130.98242  22771982.872    22771978.959
  23385152.423    -5961387.92043  -4424648.30442  23385154.417    23385152.824
  23484542.907    -6074365.82843  -4690909.38742  23484544.094    23484543.074
  24527370.772    -5118233.27943  -3972169.44242  24527373.191    24527371.181
  23910292.842   -10422000.75943  -8067959.54742  23910294.790    23910292.121
 03  4  3  2 38  0.0000000  0  8G14G 3G25G11G31G15G23G18
  20672522.637   -24813000.60844 -19289584.77142  20672525.251    20672519.858
  24026960.719    -1636745.77443  -1268190.08242  24026962.757    24026963.255
  22308866.421   -16598003.00043 -12892594.23242  22308869.131    22308865.732
  22756358.826    -9959655.48843  -7721095.89042  22756361.742    22756357.774
  23397856.291    -5894629.33043  -4372628.65842  23397858.331    23397856.377
  23504972.850    -5967005.08843  -4607251.66742  23504974.287    23504973.194
  24539472.547    -5054638.55143  -3922615.08942  24539474.819    24539472.532
  23924180.339   -10349021.70343  -8011092.71742  23924182.359    23924179.526
 03  4  3  2 38 30.0000000  0  8G14G 3G25G11G31G15G23G18
  20681131.112   -24767762.65744 -19254334.40542  20681133.692    20681128.386
  24043036.492    -1552267.21843  -1202362.75042  24043038.457    24043039.142
  22292786.163   -16682504.92843 -12958439.76442  22292788.826    22292785.352
  22740793.272   -10041451.66643  -7784833.04442  22740796.181    22740792.197
  23410614.223    -5827587.14743  -4320388.03542  23410616.347    23410613.904
  23525440.687    -5859444.95543  -4523438.59542  23525442.186    23525441.023
  24551587.465    -4990973.80143  -3873006.15442  24551589.746    24551587.322
  23938085.414   -10275950.11743  -7954153.78742  23938087.507    23938084.357
 03  4  3  2 39  0.0000000  0  8G14G 3G25G11G31G15G23G18
  20689801.303   -24722200.34844 -19218831.28642  20689803.876    20689798.601
  24059117.185    -1467762.89443  -1136515.33142  24059119.061    24059119.984
  22276755.233   -16766747.30643 -13024083.05442  22276757.967    22276754.443
  22725280.480   -10122971.07343  -7848354.52142  22725283.300    22725279.329
  23423421.839    -5760282.50243  -4267942.87542  23423424.077    23423421.549
  23545942.820    -5751706.01843  -4439486.20742  23545944.178    23545942.844
  24563712.195    -4927256.86443  -3823356.54342  24563714.482    24563712.534
  23952004.811   -10202804.19143  -7897156.94642  23952006.940    23952003.255
 03  4  3  2 39 30.0000000  0  8G14G 3G25G11G31G15G23G18
  20698539.844   -24676278.86644 -19183048.29942  20698542.375    20698537.192
  24075209.402    -1383199.06843  -1070621.57242  24075211.189    24075212.149
  22260781.147   -16850690.62243 -13089493.30742  22260783.900    22260780.475
  22709827.675   -10204174.77743  -7911629.99242  22709830.488    22709826.666
  23436285.780    -5692681.68043  -4215266.93842  23436287.978    23436285.551
  23566485.503    -5643753.68443  -4355367.51242  23566486.980    23566485.471
  24575854.197    -4863450.69943  -3773637.43142  24575856.247    24575854.685
  23965945.124   -10129547.37243  -7840073.66142  23965947.239    23965943.542
 03  4  3  2 40  0.0000000  0  8G14G 3G25G11G31G15G23G18
  20707348.116   -24629990.84544 -19146979.69242  20707350.643    20707345.519
  24091313.962    -1298568.93343  -1004676.11742  24091315.793    24091316.739
  22244866.125   -16934322.92843 -13154661.21742  22244868.923    22244865.655
  22694437.386   -10285051.19543  -7974650.44042  22694440.168    22694436.212
  23449207.227    -5624778.18743  -4162355.16742  23449209.379    23449207.369
  23587070.262    -5535580.12443  -4271076.44342  23587071.750    23587070.452
  24588014.797    -4799545.55743  -3723841.15342  24588016.900    24588015.470
  23979908.093   -10056170.06243  -7782896.51342  23979910.235    23979906.799
 03  4  3  2 40 30.0000000  0  8G14G 3G25G11G31G15G23G18
  20716218.702   -24583375.20544 -19110655.80242  20716221.226    20716216.168
  24107423.495    -1213912.10443   -938709.86342  24107425.437    24107426.286
  22229004.196   -17017678.39743 -13219613.40542  22229006.849    22229003.570
  22679102.754   -10365634.82643  -8037442.78642  22679105.610    22679101.492
  23462178.763    -5556611.87543  -4109238.57542  23462180.714    23462179.259
  23607689.803    -5427224.44743  -4186643.46242  23607691.328    23607690.032
  24600187.386    -4735577.98343  -3673996.28042  24600189.350    24600187.702
  23993887.344    -9982709.03143  -7725654.13942  23993889.425    23993885.989
 03  4  3  2 41  0.0000000  0  8G14G 3G25G11G31G15G23G18
  20725152.050   -24536430.19244 -19074075.25742  20725154.531    20725149.517
  24123538.455    -1129228.01643   -872722.36742  24123540.157    24123541.098
  22213196.052   -17100750.56843 -13284344.83142  22213198.686    22213195.344
  22663825.210   -10445919.47943  -8100002.16242  22663828.008    22663823.644
  23475200.821    -5488181.91443  -4055916.57542  23475202.684    23475201.197
  23628344.294    -5318684.77443  -4102067.09742  23628345.905    23628344.498
  24612372.829    -4671543.89943  -3624099.65242  24612374.729    24612372.573
  24007883.253    -9909160.56443  -7668343.63142  24007885.301    24007881.898
 03  4  3  2 41 30.0000000  0  8G14G 3G25G11G31G15G23G18
  20734148.846   -24489151.91844 -19037235.02142  20734151.345    20734146.235
  24139659.313    -1044513.93443   -806711.50442  24139660.797    24139661.809
  22197443.168   -17183531.33843 -13348849.20242  22197445.886    22197442.578
  22648605.996   -10525896.89343  -8162322.12742  22648608.826    22648604.351
  23488273.144    -5419485.64843  -4002387.02942  23488275.086    23488273.593
  23649034.337    -5209957.54643  -4017344.62042  23649035.940    23649034.507
  24624571.681    -4607437.27343  -3574146.35842  24624573.685    24624571.745
  24021896.747    -9835519.12843  -7610960.67242  24021898.796    24021895.551
 03  4  3  2 42  0.0000000  0  8G14G 3G25G11G31G15G23G18
  20743210.592   -24441532.03244 -19000128.59842  20743213.128    20743207.954
  24155787.431     -959761.79143   -740670.99642  24155788.899    24155789.826
  22181748.498   -17266007.41143 -13413116.13842  22181751.167    22181747.871
  22633447.669   -10605554.08743  -8224392.57342  22633450.521    22633445.969
  23501398.006    -5350515.26343  -3948643.91642  23501399.831    23501398.236
  23669762.108    -5101034.05343  -3932469.18742  23669763.542    23669761.814
  24636786.736    -4543246.97443  -3524127.89542  24636788.625    24636786.882
  24035930.083    -9761773.92143  -7553496.85342  24035932.176    24035928.880
 03  4  3  2 42 30.0000000  0  8G14G 3G25G11G31G15G23G18
  20752334.082   -24393587.60344 -18962769.29442  20752336.627    20752331.476
  24171918.787     -874989.78343   -674614.99142  24171920.526    24171921.645
  22166109.305   -17348191.02943 -13477155.19342  22166111.994    22166108.799
  22618347.673   -10684904.05143  -8286223.63242  22618350.535    22618346.085
  23514571.163    -5281288.96543  -3894701.36242  23514572.988    23514571.737
  23690523.781    -4991931.61243  -3847454.29542  23690525.231    23690523.372
  24649014.654    -4478987.90543  -3474055.83142  24649016.704    24649015.126
  24049980.405    -9687940.03843  -7495963.96442  24049982.525    24049978.863
 03  4  3  2 43  0.0000000  0  8G14G 3G25G11G31G15G23G18
  20761517.638   -24345327.84044 -18925164.26942  20761520.163    20761514.939
  24188052.472     -790207.75943   -608551.21642  24188054.141    24188055.291
  22150524.896   -17430087.11643 -13540970.20142  22150527.580    22150524.344
  22603305.289   -10763951.68043  -8347819.09042  22603308.047    22603303.832
  23527791.355    -5211816.86843  -3840567.28042  23527793.258    23527792.062
  23711317.507    -4882659.39843  -3762307.12242  23711319.115    23711317.445
  24661254.591    -4414666.75143  -3423935.39842  24661256.599    24661254.979
  24064046.104    -9614024.58443  -7438367.49142  24064048.304    24064044.330
 03  4  3  2 43 30.0000000  0  8G14G 3G25G11G31G15G23G18
  20770764.669   -24296734.31644 -18887299.16942  20770767.193    20770761.928
  24204191.470     -705398.07243   -542465.84842  24204193.002    24204194.069
  22134999.690   -17511672.69543 -13604543.25642  22135002.329    22134998.986
  22588324.946   -10842674.05243  -8409161.12242  22588327.660    22588323.524
  23541061.822    -5142081.67643  -3786228.19642  23541063.639    23541062.216
  23732147.187    -4773199.13843  -3677013.42342  23732148.637    23732147.209
  24673510.356    -4350262.80543  -3373750.49342  24673512.390    24673510.375
  24078131.246    -9540007.09043  -7380691.49342  24078133.446    24078129.427
 03  4  3  2 44  0.0000000  0  8G14G 3G25G11G31G15G23G18
  20780071.176   -24247827.65344 -18849190.06942  20780073.709    20780068.475
  24220331.420     -620582.00343   -476375.52142  24220333.079    24220334.066
  22119530.426   -17592963.44043 -13667886.57242  22119533.090    22119529.725
  22573403.316   -10921087.22743  -8470262.21542  22573405.978    22573401.967
  23554377.943    -5072104.81143  -3731700.79642  23554379.886    23554378.184
  23753008.508    -4663571.06243  -3591588.95342  23753010.128    23753008.747
  24685778.385    -4285794.31943  -3323515.28642  24685780.535    24685778.305
  24092232.218    -9465906.11543  -7322950.41242  24092234.464    24092230.436
 03  4  3  2 44 30.0000000  0  8G14G 3G25G11G31G15G23G18
  20789439.192   -24198598.29244 -18810829.51142  20789441.738    20789436.489
  24236474.257     -535750.83643   -410273.44042  24236475.905    24236477.004
  22104120.165   -17673945.13143 -13730989.05442  22104122.715    22104119.237
  22558543.062   -10999177.31843  -8531111.54942  22558545.689    22558541.856
  23567741.743    -5001877.54143  -3676978.28442  23567743.750    23567741.717
  23773903.722    -4553765.75143  -3506026.38742  23773905.299    23773903.705
  24698061.035    -4221249.37243  -3273220.53542  24698063.146    24698060.743
  24106351.084    -9391710.09043  -7265135.26742  24106353.391    24106349.438
 03  4  3  2 45  0.0000000  0  8G14G 3G25G11G31G15G23G18
  20798875.276   -24149011.45344 -18772190.39942  20798877.820    20798872.554
  24252626.334     -450870.59643   -344133.12642  24252628.030    24252629.305
  22088775.766   -17754578.84943 -13793820.41942  22088778.450    22088775.032
  22543751.833   -11076905.51443  -8591678.90242  22543754.482    22543750.613
  23581159.654    -4931366.29643  -3622034.49042  23581161.640    23581159.212
  23794839.451    -4443748.55343  -3420298.74142  23794840.925    23794839.150
  24710365.214    -4156590.90443  -3222837.28542  24710367.559    24710364.867
  24120494.921    -9317382.27943  -7207217.47042  24120497.252    24120493.349
 03  4  3  2 45 30.0000000  0  8G14G 3G25G11G31G15G23G18
  20808369.612   -24099118.15044 -18733312.49542  20808372.167    20808366.918
  24268778.313     -365993.11143   -277994.95942  24268779.718    24268781.145
  22073489.124   -17834910.77643 -13856416.61642  22073491.637    22073488.368
  22529020.750   -11154318.01443  -8652000.25942  22529023.419    22529019.423
  23594621.665    -4860622.89543  -3566909.79242  23594623.560    23594621.048
  23815805.547    -4333570.54543  -3334445.76142  23815807.170    23815805.363
  24722681.715    -4091867.45143  -3172403.39842  24722684.214    24722681.455
  24134654.984    -9242971.34943  -7149234.93742  24134657.204    24134653.216
 03  4  3  2 46  0.0000000  0  8G14G 3G25G11G31G15G23G18
  20817925.468   -24048902.19544 -18694183.16542  20817928.020    20817922.680
  24284932.606     -281103.00643   -211846.98142  24284934.084    24284935.485
  22058263.910   -17914919.90443 -13918761.27242  22058266.374    22058263.115
  22514353.710   -11231394.50143  -8712059.80142  22514356.422    22514352.066
  23608130.484    -4789632.35543  -3511592.52542  23608132.379    23608130.353
  23836805.244    -4223215.65543  -3248454.93942  23836806.749    23836805.290
  24735013.928    -4027060.62043  -3121904.53242  24735016.433    24735014.166
  24148834.318    -9168459.38043  -7091173.71642  24148836.387    24148832.292
 03  4  3  2 46 30.0000000  0  8G14G 3G25G11G31G15G23G18
  20827537.470   -23998391.07644 -18654823.83442  20827540.027    20827534.606
  24301083.858     -196228.41743   -145711.07442  24301085.461    24301086.935
  22043095.407   -17994629.24043 -13980872.34142  22043098.010    22043094.830
  22499746.174   -11308157.92343  -8771875.39642  22499748.897    22499744.327
  23621681.358    -4718422.78043  -3456104.58242  23621683.145    23621681.332
  23857833.817    -4112710.99043  -3162347.42942  23857835.025    23857833.788
  24747357.152    -3962195.17243  -3071359.96142  24747360.010    24747357.347
  24163027.756    -9093871.52843  -7033053.30042  24163029.754    24163026.008
 03  4  3  2 47  0.0000000  0  8G14G 3G25G11G31G15G23G18
  20837208.694   -23947568.55944 -18615221.85442  20837211.265    20837205.765
  24317235.246     -111354.11943    -79575.38942  24317236.805    24317238.353
  22027988.056   -18074018.20943 -14042733.76442  22027990.566    22027987.488
  22485201.846   -11384587.92843  -8831431.17142  22485204.588    22485200.115
  23635276.701    -4646979.15043  -3400434.27742  23635278.433    23635276.701
  23878893.807    -4002040.76743  -3076110.90042  23878894.898    23878893.598
  24759715.359    -3897252.73643  -3020755.43442  24759718.111    24759714.955
  24177239.421    -9019189.59843  -6974859.56442  24177241.361    24177237.519
 03  4  3  2 47 30.0000000  0  8G14G 3G25G11G31G15G23G18
  20846940.005   -23896429.72344 -18575373.38642  20846942.586    20846937.090
  24333386.956      -26475.89843    -13436.63342  24333388.617    24333390.279
  22012943.545   -18153077.13043 -14104338.02242  22012946.028    22012942.960
  22470722.713   -11460675.43743  -8890720.07142  22470725.418    22470721.086
  23648917.066    -4575297.40943  -3344578.39342  23648918.985    23648917.360
  23899986.009    -3891199.79543  -2989741.33942  23899987.117    23899985.644
  24772089.557    -3832226.04443  -2970085.30542  24772092.259    24772088.791
  24191469.833    -8944406.37643  -6916586.87142  24191471.797    24191468.311
 03  4  3  2 48  0.0000000  0  7G14G 3G25G11G31G15G18
  20856730.213   -23844981.65544 -18535283.96142  20856732.762    20856727.298
  24349538.196       58398.77143     52699.34142  24349539.870    24349541.387
  21997961.366   -18231808.56243 -14165687.09442  21997963.829    21997960.722
  22456308.412   -11536422.60843  -8949743.77042  22456311.116    22456306.826
  23662601.378    -4503385.66643  -3288543.30642  23662603.327    23662601.922
  23921109.197    -3780195.44543  -2903244.45542  23921110.439    23921108.795
  24205718.525    -8869527.20543  -6858239.44742  24205720.524    24205717.429
 03  4  3  2 48 30.0000000  0  7G14G 3G25G11G31G15G18
  20866581.336   -23793213.33444 -18494944.98842  20866583.899    20866578.490
  24365690.313      143279.88443    118840.36342  24365691.923    24365693.728
  21983044.486   -18310196.99643 -14226768.89742  21983046.957    21983043.748
  22441961.886   -11611814.19643  -9008490.40642  22441964.673    22441960.269
  23676331.404    -4431233.91043  -3232321.18242  23676333.190    23676331.996
  23942265.947    -3669016.57643  -2816611.58842  23942267.058    23942265.397
  24219988.493    -8794539.16843  -6799807.21942  24219990.518    24219987.064
 03  4  3  2 49  0.0000000  0  7G14G 3G25G11G31G15G18
  20876485.824   -23741165.11844 -18454387.90942  20876488.391    20876482.920
  24381836.049      228126.40143    184954.40742  24381837.641    24381839.478
  21968186.248   -18388278.18943 -14287611.27242  21968188.700    21968185.281
  22427676.158   -11686886.23643  -9066988.03842  22427678.898    22427674.434
  23690099.766    -4358883.34643  -3175944.20442  23690101.338    23690099.518
  23963448.235    -3557703.69443  -2729874.30542  23963449.311    23963447.622
  24234271.857    -8719480.24543  -6741319.76242  24234274.042    24234270.163
 03  4  3  2 49 30.0000000  0  7G14G 3G25G11G31G15G18
  20886446.622   -23688820.37844 -18413599.78542  20886449.207    20886443.789
  24397978.679      312954.37643    251053.97242  24397980.019    24397981.584
  21953390.143   -18466031.02243 -14348197.80742  21953392.713    21953389.314
  22413455.133   -11761617.56743  -9125220.17042  22413457.821    22413453.482
  23703908.095    -4286318.58143  -3119400.24242  23703909.887    23703908.142
  23984659.054    -3446240.28243  -2643019.70242  23984660.000    23984658.574
  24248572.205    -8644331.65343  -6682762.39942  24248574.407    24248570.533
 03  4  3  2 50  0.0000000  0  7G14G 3G25G11G31G15G18
  20896464.286   -23636177.06544 -18372578.99842  20896466.859    20896461.419
  24414117.380      397764.89043    317139.96142  24414118.976    24414120.555
  21938657.958   -18543449.12143 -14408523.50242  21938660.492    21938657.059
  22399300.245   -11836002.34843  -9183182.29142  22399302.902    22399298.438
  23717758.089    -4213538.49743  -3062688.53542  23717759.690    23717757.844
  24005898.510    -3334624.39843  -2556046.29542  24005899.570    24005898.550
  24262889.813    -8569089.70143  -6624132.26842  24262892.144    24262888.552
 03  4  3  2 50 30.0000000  0  7G14G 3G25G11G31G15G18
  20906539.037   -23583233.85744 -18331324.52042  20906541.602    20906536.132
  24430253.287      482558.82443    383213.01042  24430254.892    24430256.463
  21923990.701   -18620526.49143 -14468583.68942  21923993.205    21923989.638
  22385212.181   -11910034.74543  -9240869.81042  22385214.946    22385210.515
  23731648.953    -4140542.67343  -3005808.71542  23731650.752    23731648.765
  24027167.814    -3222854.72043  -2468953.06442  24027168.758    24027167.684
  24277226.523    -8493750.75543  -6565426.59742  24277228.665    24277225.242
 03  4  3  2 51  0.0000000  0  7G14G 3G25G11G31G15G18
  20916671.651   -23529986.56944 -18289833.10742  20916674.208    20916668.793
  24446386.655      567339.19843    449275.51842  24446388.326    24446389.805
  21909389.712   -18697254.42743 -14528371.60042  21909392.259    21909388.750
  22371192.826   -11983706.21343  -9298276.06242  22371195.588    22371191.268
  23745581.161    -4067327.93043  -2948758.30842  23745583.275    23745581.407
  24048466.941    -3110927.34043  -2381736.94142  24048467.991    24048466.731
  24291582.666    -8418308.76143  -6506640.65842  24291584.829    24291581.545
 03  4  3  2 51 30.0000000  0  7G14G 3G25G11G31G15G18
  20926863.977   -23476425.47944 -18248097.16842  20926866.522    20926861.150
  24462518.914      652115.20143    515334.59242  24462520.699    24462522.231
  21894858.163   -18773618.50943 -14587875.97942  21894860.605    21894857.097
  22357245.118   -12057002.51943  -9355389.99642  22357247.837    22357243.445
  23759556.814    -3993885.64743  -2891530.60042  23759558.843    23759557.220
  24069797.897    -2998832.34343  -2294390.21142  24069798.953    24069797.572
  24305960.684    -8342751.86643  -6447765.16342  24305962.790    24305959.502
 03  4  3  2 52  0.0000000  0  7G14G 3G25G11G31G15G18
  20937113.767   -23422561.83644 -18206125.48142  20937116.360    20937111.017
  24478648.242      736875.08043    581381.09342  24478650.042    24478651.593
  21880394.271   -18849625.80143 -14647102.34842  21880396.801    21880393.219
  22343367.457   -12129930.54543  -9412216.96842  22343370.160    22343365.584
  23773572.949    -3920228.01243  -2834135.05042  23773575.108    23773573.625
  24091158.485    -2886580.99943  -2206921.64242  24091159.659    24091158.129
  24320358.612    -8267089.40643  -6388807.34142  24320360.671    24320357.693
 03  4  3  2 52 30.0000000  0  7G14G 3G25G11G31G15G18
  20947417.023   -23368417.33544 -18163934.94042  20947419.625    20947414.293
  24494770.349      821596.59443    647397.71842  24494772.167    24494773.742
  21865995.121   -18925293.50743 -14706064.10842  21865997.670    21865993.929
  22329556.429   -12202508.04143  -9468770.79442  22329559.018    22329554.414
  23787626.363    -3846377.57243  -2776589.30242  23787628.427    23787626.907
  24112544.968    -2774195.04843  -2119348.21042  24112546.085    24112544.572
  24334772.858    -8191340.60043  -6329782.23142  24334774.947    24334772.356
 03  4  3  2 53  0.0000000  0  7G14G 3G25G11G31G15G18
  20957771.662   -23314003.37944 -18121534.43842  20957774.208    20957768.878
  24510882.924      906267.47643    713374.87942  24510884.679    24510885.894
  21851659.380   -19000628.35143 -14764766.48142  21851661.955    21851658.041
  22315810.723   -12274741.59043  -9525056.59242  22315813.362    22315808.790
  23801714.275    -3772346.75243  -2718902.98642  23801716.333    23801714.343
  24133954.656    -2661685.98643  -2031678.80642  24133955.794    24133954.453
  24349202.303    -8115514.80743  -6270697.18842  24349204.259    24349201.587
 03  4  3  2 53 30.0000000  0  7G14G 3G25G11G31G15G18
  20968180.512   -23259304.61644 -18078912.01442  20968183.032    20968177.699
  24526988.651      990902.19743    779323.86542  24526990.453    24526991.620
  21837390.605   -19075610.96143 -14823194.39642  21837393.162    21837389.236
  22302134.223   -12346611.75943  -9581059.23942  22302136.857    22302132.278
  23815838.520    -3698121.32143  -2661065.02642  23815840.700    23815838.631
  24155390.380    -2549038.81843  -1943901.81242  24155391.532    24155390.782
  24363649.264    -8039595.20343  -6211539.06342  24363651.391    24363648.617
 03  4  3  2 54  0.0000000  0  7G14G 3G25G11G31G15G18
  20978646.805   -23204304.20544 -18036054.54042  20978649.311    20978643.983
  24543090.629     1075517.21643    845257.49442  24543092.482    24543093.827
  21823192.898   -19150219.59443 -14881330.90242  21823195.409    21823191.558
  22288530.840   -12418097.31543  -9636762.19442  22288533.529    22288528.920
  23830003.041    -3623685.35843  -2603063.00142  23830005.297    23830003.231
  24176856.031    -2436236.48143  -1856003.89942  24176857.186    24176856.595
  24378117.797    -7963562.60443  -6152292.86042  24378119.923    24378116.945
 03  4  3  2 54 30.0000000  0  7G14G 3G25G11G31G15G18
  20989166.096   -23149024.92644 -17992979.76342  20989168.639    20989163.264
  24559184.210     1160088.96043    911157.38742  24559186.126    24559187.654
  21809062.771   -19224473.04443 -14939190.65042  21809065.322    21809061.438
  22274997.248   -12489217.00743  -9692180.05742  22274999.945    22274995.191
  23844203.269    -3549062.85743  -2544915.60942  23844205.468    23844203.496
  24198346.862    -2323302.10843  -1768003.11142  24198348.084    24198347.074
  24392603.972    -7887438.17143  -6092975.10142  24392605.987    24392602.724
 03  4  3  2 55  0.0000000  0  7G14G 3G25G11G31G15G18
  20999737.430   -23093472.31944 -17949691.98942  20999739.988    20999734.586
  24575268.285     1244610.97943    977018.55842  24575270.168    24575272.059
  21795000.472   -19298371.82943 -14996774.01942  21795002.900    21794998.846
  22261532.930   -12559971.98343  -9747313.72942  22261535.742    22261530.837
  23858437.564    -3474260.13543  -2486627.79842  23858439.844    23858438.054
  24219861.662    -2210241.18043  -1679903.71542  24219862.997    24219861.669
  24407106.706    -7811224.86543  -6033588.11942  24407108.890    24407105.662
 03  4  3  2 55 30.0000000  0  7G14G 3G25G11G31G15G18
  21010361.014   -23037644.75744 -17906189.97442  21010363.578    21010358.203
  24591343.280     1329084.26543   1042841.71042  24591345.129    24591346.964
  21781006.526   -19371910.36443 -15054076.68442  21781008.993    21781004.889
  22248139.253   -12630356.34443  -9802158.61842  22248142.062    22248137.096
  23872706.961    -3399276.70143  -2428199.16042  23872709.352    23872707.234
  24241400.792    -2097052.14543  -1591704.50242  24241402.332    24241400.643
  24421627.393    -7734919.24443  -5974129.17142  24421629.674    24421626.395
 03  4  3  2 56  0.0000000  0  7G14G 3G25G11G31G15G18
  21021034.341   -22981555.90044 -17862484.35242  21021036.893    21021031.567
  24607406.350     1413494.27843   1108615.56142  24607408.444    24607409.605
  21767079.122   -19445098.38743 -15111106.23042  21767081.630    21767077.669
  22234814.244   -12700379.63443  -9856722.15942  22234817.039    22234812.040
  23887007.588    -3324127.45143  -2369641.32142  23887010.176    23887007.923
  24262961.758    -1983749.07543  -1503416.41142  24262963.484    24262961.331
  24436163.185    -7658533.12543  -5914607.47242  24436165.533    24436162.352
 03  4  3  2 56 30.0000000  0  7G14G 3G25G11G31G15G18
  21031763.801   -22925172.02744 -17818548.84442  21031766.366    21031761.066
  24623463.393     1497874.57143   1174366.25342  24623465.576    24623466.615
  21753225.888   -19517897.23343 -15167832.51842  21753228.460    21753224.432
  22221565.158   -12770003.70543  -9910974.60542  22221567.958    22221562.987
  23901345.959    -3248779.31743  -2310928.48742  23901348.443    23901346.194
  24284550.960    -1870297.89743  -1415012.91242  24284552.787    24284550.383
  24450721.083    -7582030.38543  -5854994.91942  24450723.496    24450720.216
 03  4  3  2 57  0.0000000  0  7G14G 3G25G11G31G15G18
  21042544.635   -22868517.91744 -17774402.77242  21042547.193    21042541.906
  24639509.766     1582199.52343   1240073.84342  24639512.130    24639513.166
  21739442.913   -19590327.23143 -15224271.39242  21739445.448    21739441.370
  22208388.088   -12839249.26543  -9964932.11942  22208390.898    22208385.943
  23915716.344    -3173258.32443  -2252080.96342  23915719.119    23915716.997
  24306163.181    -1756724.02343  -1326513.79242  24306165.127    24306162.729
  24465296.994    -7505434.13143  -5795309.50142  24465299.116    24465295.874
 03  4  3  2 57 30.0000000  0  7G14G 3G25G11G31G15G18
  21053377.119   -22811592.68544 -17730045.42342  21053379.656    21053374.387
  24655545.944     1666469.62843   1305738.68342  24655548.170    24655549.632
  21725730.999   -19662383.15043 -15280418.77942  21725733.590    21725729.529
  22195284.126   -12908111.02143 -10018590.56942  22195286.888    22195281.925
  23930120.457    -3097564.41143  -2193098.76042  23930122.685    23930120.853
  24327799.242    -1643026.24643  -1237918.12542  24327801.038    24327798.574
  24479891.167    -7428741.55543  -5735549.07142  24479893.480    24479889.299
 03  4  3  2 58  0.0000000  0  7G14G 3G25G11G31G15G18
  21064260.196   -22754401.95044 -17685481.19342  21064262.711    21064257.447
  24671570.326     1750678.24943   1371355.61942  24671572.380    24671574.316
  21712090.094   -19734066.43043 -15336275.79542  21712092.683    21712088.544
  22182252.793   -12976590.45543 -10071951.09342  22182255.554    22182250.615
  23944556.228    -3021704.41943  -2133987.11442  23944558.250    23944556.847
  24349457.849    -1529210.46343  -1149230.53842  24349459.585    24349457.105
  24494502.963    -7351956.15143  -5675716.26442  24494505.215    24494500.752
 03  4  3  2 58 30.0000000  0  7G14G 3G25G11G31G15G18
  21075193.394   -22696947.80944 -17640711.70942  21075195.933    21075190.629
  24687582.749     1834822.80243   1436922.60642  24687584.701    24687586.698
  21698520.468   -19805374.95843 -15391840.80142  21698523.048    21698518.846
  22169294.651   -13044685.09243 -10125011.78342  22169297.430    22169292.537
  23959023.046    -2945681.27743  -2074748.31342  23959025.139    23959024.130
  24371138.432    -1415278.71543  -1060452.57142  24371140.130    24371137.668
  24509132.355    -7275077.88243  -5615811.09942  24509134.347    24509130.410
 03  4  3  2 59  0.0000000  0  7G14G 3G25G11G31G15G18
  21086177.735   -22639224.88744 -17595732.79242  21086180.299    21086174.903
  24703583.723     1918908.18543   1502443.49642  24703585.577    24703587.706
  21685023.983   -19876298.87943 -15447106.11242  21685026.642    21685022.396
  22156411.721   -13112385.35543 -10177765.17642  22156414.512    22156409.475
  23973521.501    -2869490.76743  -2015379.09842  23973523.680    23973522.701
  24392841.995    -1301225.97043   -971580.31342  24392843.623    24392841.218
  24523780.573    -7198099.57743  -5555827.88842  24523782.566    24523779.111
 03  4  3  2 59 30.0000000  0  7G14G 3G25G11G31G15G18
  21097217.301   -22581211.64844 -17550527.65842  21097219.892    21097214.429
  24719577.562     2002955.13543   1567934.43242  24719579.180    24719581.487
  21671605.719   -19946812.32343 -15502051.56642  21671608.310    21671604.061
  22143608.548   -13179666.24043 -10230191.77142  22143611.354    22143606.243
  23988055.948    -2793112.50043  -1955863.63242  23988057.914    23988056.971
  24414572.710    -1187030.85243   -882597.13442  24414574.302    24414571.980
  24538452.755    -7120997.56843  -5495748.33942  24538454.899    24538451.302
 03  4  3  3  0  0.0000000  0  7G14G 3G25G11G31G15G18
  21108305.656   -22522941.70644 -17505122.49342  21108308.248    21108302.780
  24735557.430     2086929.54343   1633368.82942  24735558.947    24735561.412
  21658259.950   -20016944.32743 -15556699.80442  21658262.503    21658258.274
  22130879.813   -13246556.43343 -10282313.94542  22130882.604    22130877.391
  24002619.937    -2716580.88643  -1896228.66142  24002621.815    24002620.835
  24436324.120    -1072727.00543   -793529.24042  24436325.685    24436323.295
  24553142.296    -7043803.58843  -5435597.16942  24553144.482    24553140.809
 03  4  3  3  0 30.0000000  0  7G14G 3G25G11G31G15G18
  21119434.870   -22464456.99644 -17459549.97342  21119437.457    21119431.990
  24751515.439     2170788.61343   1698713.32442  24751516.824    24751519.196
  21644979.504   -20086733.29943 -15611080.73742  21644982.038    21644977.722
  22118218.111   -13313093.91243 -10334161.27242  22118220.940    22118215.709
  24017204.174    -2639939.21543  -1836507.88942  24017206.143    24017205.157
  24458088.122     -958356.64943   -704409.50042  24458089.796    24458086.982
  24567841.563    -6966557.71443  -5375405.60542  24567843.706    24567839.317
 03  4  3  3  1  0.0000000  0  7G14G 3G25G11G31G15G18
  21130616.128   -22405698.89344 -17413764.42242  21130618.722    21130613.242
  24767462.611     2254590.48943   1764013.26742  24767464.131    24767466.002
  21631776.346   -20156116.17544 -15665145.24242  21631778.921    21631774.422
  22105635.377   -13379216.04443 -10385684.94042  22105638.166    22105633.106
  24031820.556    -2563129.62443  -1776656.30442  24031822.329    24031821.117
  24479876.034     -843861.23343   -615192.32242  24479877.478    24479874.618
  24582562.601    -6889198.81743  -5315125.96742  24582564.556    24582560.443
 03  4  3  3  1 30.0000000  0  7G14G 3G25G11G31G15G18
  21141844.355   -22346694.04444 -17367786.59442  21141846.945    21141841.479
  24783393.700     2338307.96243   1829247.46642  24783395.291    24783396.919
  21618646.236   -20225115.31244 -15718910.72642  21618648.844    21618644.174
  22093127.431   -13444945.32743 -10436902.49442  22093130.206    22093125.204
  24046463.469    -2486179.86643  -1716695.50142  24046465.269    24046464.172
  24501682.693     -729267.56243   -525898.57542  24501683.978    24501681.301
  24597299.855    -6811751.89343  -5254777.62042  24597301.983    24597298.639
 03  4  3  3  2  0.0000000  0  5G14G25G11G31G15
  21153122.151   -22287429.12644 -17321606.11842  21153124.746    21153119.215
  21605592.605   -20293712.75243 -15772363.19442  21605595.145    21605590.419
  22080697.568   -13510263.84243 -10487799.96642  22080700.414    22080695.442
  24061135.435    -2409077.60343  -1656615.86542  24061137.344    24061136.364
  24523510.136     -614562.65143   -436518.12942  24523511.557    24523509.382
 03  4  3  3  2 30.0000000  0  5G14G25G11G31G15
  21164443.518   -22227934.82644 -17275246.90842  21164446.101    21164440.649
  21592610.002   -20361935.68543 -15825523.84942  21592612.583    21592607.991
  22068340.929   -13575198.63443 -10538398.46242  22068343.663    22068338.587
  24075831.017    -2331854.80343  -1596442.31742  24075832.689    24075831.175
  24545352.894     -499777.21143   -347074.95442  24545354.444    24545352.642
 03  4  3  3  3  0.0000000  0  5G14G25G11G31G15
  21175812.197   -22168191.67544 -17228693.78942  21175814.782    21175809.406
  21579703.400   -20429760.06943 -15878373.94342  21579705.927    21579701.402
  22056061.675   -13639725.97643 -10588679.44342  22056064.429    22056059.494
  24090552.763    -2254492.87743  -1536160.35042  24090554.590    24090552.823
  24567214.537     -384891.92243   -257553.95342  24567216.114    24567214.868
 03  4  3  3  3 30.0000000  0  5G14G25G11G31G15
  21187233.992   -22108169.59344 -17181923.32142  21187236.567    21187231.195
  21566879.133   -20497151.85043 -15930886.94542  21566881.622    21566877.085
  22043866.553   -13703811.55743 -10638616.19942  22043869.304    22043864.442
  24105305.995    -2176962.99243  -1475747.47142  24105308.002    24105306.596
  24589101.213     -269876.82643   -167931.86042  24589102.774    24589101.356
 03  4  3  3  4  0.0000000  0  5G14G25G11G31G15
  21198699.489   -22047917.68244 -17134973.76642  21198702.122    21198696.752
  21554128.646   -20564156.00944 -15983097.90342  21554131.088    21554126.536
  22031747.011   -13767500.16043 -10688243.62642  22031749.744    22031744.850
  24120081.832    -2099315.06443  -1415242.64142  24120083.758    24120082.583
  24611003.694     -154781.22743    -78247.00742  24611004.978    24611003.162
 03  4  3  3  4 30.0000000  0  5G14G25G11G31G15
  21210211.796   -21987420.35244 -17087832.97842  21210214.412    21210209.006
  21541455.775   -20630752.53444 -16034991.22542  21541458.198    21541453.614
  22019706.637   -13830772.54443 -10737546.72142  22019709.322    22019704.474
  24134883.050    -2021534.61743  -1354634.56142  24134884.757    24134883.584
  24632924.199      -39589.73343     11512.57342  24632925.508    24632923.110
 03  4  3  3  5  0.0000000  0  5G14G25G11G31G15
  21221772.240   -21926670.01344 -17040495.03842  21221774.882    21221769.456
  21528862.505   -20696929.78944 -16086557.85042  21528865.023    21528860.507
  22007747.772   -13893617.01443 -10786516.38442  22007750.464    22007745.575
  24149710.662    -1943615.15243  -1293918.13342  24149712.397    24149711.249
  24654863.963       75705.03343    101352.59842  24654865.346    24654862.912
 03  4  3  3  5 30.0000000  0  5G14G25G11G31G15
  21233374.247   -21865701.04344 -16992986.73842  21233376.899    21233371.453
  21516343.454   -20762718.01144 -16137821.32242  21516345.969    21516341.335
  21995864.564   -13956063.72943 -10835176.10242  21995867.234    21995862.406
  24164557.843    -1865592.02943  -1233120.90942  24164559.694    24164558.775
  24676816.479      191068.53943    191246.23742  24676818.014    24676816.037
 03  4  3  3  6  0.0000000  0  4G14G25G11G31
  21245020.879   -21804497.41144 -16945295.57742  21245023.527    21245018.067
  21503902.115   -20828097.29344 -16188766.13942  21503904.646    21503899.974
  21984060.815   -14018092.56043 -10883510.19342  21984063.451    21984058.713
  24179427.508    -1787450.43443  -1172231.37242  24179429.427    24179428.719
 03  4  3  3  6 30.0000000  0  4G14G25G11G31
  21256715.162   -21743043.14644 -16897409.11942  21256717.777    21256712.366
  21491542.408   -20893047.43444 -16239376.56542  21491544.928    21491540.325
  21972340.370   -14079683.35643 -10931502.96242  21972343.063    21972338.293
  24194323.334    -1709175.34143  -1111237.84142  24194325.161    24194323.843
 03  4  3  3  7  0.0000000  0  4G14G25G11G31
  21268452.277   -21681364.18644 -16849347.56942  21268454.831    21268449.424
  21479260.258   -20957590.17244 -16289669.53242  21479262.760    21479258.199
  21960699.032   -14140858.57443 -10979171.90642  21960701.709    21960696.909
  24209238.832    -1630793.74443  -1050161.30342  24209241.029    24209239.314
 03  4  3  3  7 30.0000000  0  4G14G25G11G31
  21280233.301   -21619454.17344 -16801105.99242  21280235.833    21280230.430
  21467057.530   -21021715.42644 -16339637.19142  21467060.005    21467055.470
  21949138.865   -14201607.47343 -11026508.65742  21949141.510    21949136.589
  24224175.430    -1552300.50243   -988997.76242  24224177.656    24224176.108
 03  4  3  3  8  0.0000000  0  4G14G25G11G31
  21292057.784   -21557316.88944 -16752687.31542  21292060.264    21292054.768
  21454934.404   -21085422.89844 -16389279.30442  21454936.869    21454932.269
  21937659.903   -14261929.72343 -11073512.95842  21937662.608    21937657.517
  24239132.454    -1473700.39143   -927750.94942  24239134.865    24239133.312
 03  4  3  3  8 30.0000000  0  4G14G25G11G31
  21303925.877   -21494949.45644 -16704089.31042  21303928.416    21303922.861
  21442892.093   -21148705.81844 -16438590.59242  21442894.566    21442889.876
  21926263.425   -14321818.98443 -11120179.86042  21926266.109    21926260.955
  24254109.925    -1394991.72543   -866419.52642  24254112.329    24254111.165
 03  4  3  3  9  0.0000000  0  4G14G25G11G31
  21315838.449   -21432348.48544 -16655309.31442  21315841.036    21315835.437
  21430931.802   -21211556.91744 -16487565.40642  21430934.313    21430929.664
  21914950.741   -14381267.49543 -11166503.29942  21914953.355    21914948.332
  24269109.106    -1316171.89443   -805001.52242  24269111.217    24269110.031
 03  4  3  3  9 30.0000000  0  4G14G25G11G31
  21327792.902   -21369527.13044 -16606357.58342  21327795.492    21327789.887
  21419052.033   -21273985.19244 -16536210.74342  21419054.528    21419049.908
  21903720.045   -14440284.34543 -11212490.38742  21903722.741    21903717.727
  24284126.353    -1237255.35543   -743508.14342  24284128.486    24284127.360
 03  4  3  3 10  0.0000000  0  4G14G25G11G31
  21339790.486   -21306478.93344 -16557229.09942  21339793.076    21339787.486
  21407254.805   -21335980.02944 -16584518.33642  21407257.277    21407252.672
  21892573.648   -14498858.99943 -11258132.91942  21892576.328    21892571.186
  24299163.552    -1158236.57043   -681935.10742  24299165.534    24299164.085
 03  4  3  3 10 30.0000000  0  4G14G25G11G31
  21351831.660   -21243202.31844 -16507922.62942  21351834.196    21351828.499
  21395540.876   -21397536.46344 -16632484.32242  21395543.364    21395538.870
  21881512.362   -14556986.42243 -11303426.96742  21881515.033    21881509.676
  24314219.964    -1079115.17943   -620282.10342  24314222.376    24314220.318
 03  4  3  3 11  0.0000000  0  4G14G25G11G31
  21363907.813   -21179741.36244 -16458472.51742  21363910.354    21363904.622
  21383902.910   -21458694.60444 -16680139.95542  21383905.369    21383900.782
  21870528.514   -14614706.68843 -11348403.74642  21870531.247    21870525.776
  24329287.393     -999936.35043   -558584.37342  24329289.869    24329287.638
 03  4  3  3 11 30.0000000  0  4G14G25G11G31
  21376026.400   -21116057.68444 -16408848.85742  21376028.935    21376023.134
  21372348.853   -21519411.70544 -16727451.91242  21372351.326    21372346.581
  21859630.192   -14671977.32543 -11393030.15542  21859632.940    21859627.452
  24344372.659     -920662.61643   -496812.66142  24344375.123    24344373.280
 03  4  3  3 12  0.0000000  0  4G14G25G11G31
  21388184.640   -21052165.75944 -16359062.92542  21388187.165    21388181.372
  21360876.504   -21579698.76444 -16774428.77742  21360879.000    21360874.210
  21848815.352   -14728809.02843 -11437314.53542  21848818.146    21848812.748
  24359472.446     -841309.64243   -434979.21342  24359474.907    24359473.657
 03  4  3  3 12 30.0000000  0  4G14G25G11G31
  21400387.117   -20988041.47844 -16309095.94442  21400389.619    21400383.876
  21349491.278   -21639528.07944 -16821048.96042  21349493.804    21349488.978
  21838089.284   -14785173.99843 -11481235.22342  21838092.081    21838086.895
  24374591.963     -761854.53143   -373066.19942  24374594.275    24374593.147
 03  4  3  3 13  0.0000000  0  4G14G25G11G31
  21412629.605   -20923706.93144 -16258965.11842  21412632.135    21412626.415
  21338189.713   -21698917.71744 -16867326.54342  21338192.208    21338187.413
  21827448.732   -14841090.41443 -11524806.41442  21827451.500    21827446.283
  24389726.960     -682320.44143   -311091.62542  24389728.960    24389727.981
 03  4  3  3 13 30.0000000  0  4G14G25G11G31
  21424907.969   -20859183.47143 -16208687.08742  21424910.504    21424904.873
  21326968.563   -21757885.03244 -16913275.04742  21326970.969    21326966.243
  21816890.074   -14896575.96443 -11568041.84742  21816892.820    21816887.677
  24404873.379     -602729.74643   -249073.00242  24404875.239    24404873.870
 03  4  3  3 14  0.0000000  0  4G14G25G11G31
  21437228.544   -20794438.14244 -16158236.16542  21437231.109    21437225.492
  21315834.708   -21816393.51244 -16958866.00942  21315837.160    21315832.341
  21806420.561   -14951593.65543 -11610912.71942  21806423.222    21806418.160
  24420035.768     -523050.54943   -186985.32942  24420038.048    24420036.636
 03  4  3  3 14 30.0000000  0  4G14G25G11G31
  21449587.359   -20729492.14444 -16107628.88742  21449589.904    21449584.357
  21304784.906   -21874460.47444 -17004112.92742  21304787.323    21304782.473
  21796036.692   -15006160.92143 -11653432.60242  21796039.334    21796034.354
  24435211.154     -443305.20943   -124846.17542  24435213.540    24435211.786
 03  4  3  3 15  0.0000000  0  4G14G25G11G31
  21461983.772   -20664348.75344 -16056867.79142  21461986.298    21461980.691
  21293819.085   -21932085.62944 -17049015.59542  21293821.523    21293816.783
  21785738.663   -15060277.29443 -11695601.14842  21785741.317    21785736.226
  24450397.454     -363498.11143    -62658.84442  24450400.022    24450398.375
 03  4  3  3 15 30.0000000  0  4G14G25G11G31
  21474416.799   -20599012.74144 -16005956.60742  21474419.331    21474413.672
  21282937.194   -21989269.94844 -17093574.75042  21282939.601    21282934.968
  21775526.220   -15113943.73743 -11737419.11542  21775528.915    21775523.494
  24465594.863     -283634.97843      -427.86442  24465597.073    24465595.685
 03  4  3  3 16  0.0000000  0  4G14G25G11G31
  21486889.092   -20533470.21744 -15954884.49542  21486891.638    21486885.955
  21272142.670   -22045995.70944 -17137776.58942  21272145.030    21272140.303
  21765402.870   -15167142.56443 -11778872.70542  21765405.527    21765399.849
  24480805.654     -203703.05643     61856.69642  24480807.720    24480805.858
 03  4  3  3 16 30.0000000  0  4G14G25G11G31
  21499398.845   -20467730.94444 -15903659.06142  21499401.366    21499395.704
  21261434.109   -22102268.96744 -17181625.82542  21261436.510    21261431.814
  21755367.286   -15219879.98744 -11819966.75642  21755369.951    21755364.115
  24496027.297     -123713.36043    124186.27142  24496029.584    24496027.021
 03  4  3  3 17  0.0000000  0  4G14G25G11G31
  21511945.040   -20401800.35344 -15852284.55142  21511947.539    21511941.949
  21250811.384   -22158091.73044 -17225124.03142  21250813.709    21250809.088
  21745419.166   -15272157.69243 -11860702.58442  21745421.854    21745415.992
  24511258.479      -43672.20643    186555.95042  24511260.749    24511258.183
 03  4  3  3 17 30.0000000  0  4G14G25G11G31
  21524529.884   -20335666.64844 -15800751.77442  21524532.416    21524526.773
  21240277.290   -22213448.85144 -17268259.39842  21240279.630    21240274.925
  21735561.426   -15323960.28844 -11901068.19042  21735564.141    21735558.312
  24526501.318       36430.83243    248973.84542  24526503.564    24526501.567
 03  4  3  3 18  0.0000000  0  4G14G25G11G31
  21537151.757   -20269338.02144 -15749067.11942  21537154.335    21537148.675
  21229830.825   -22268344.95044 -17311035.52442  21229833.209    21229828.427
  21725793.285   -15375292.35943 -11941067.16342  21725795.952    21725790.119
  24541754.940      116586.55243    311432.80642  24541756.728    24541755.134
 03  4  3  3 18 30.0000000  0  4G14G25G11G31
  21549807.526   -20202831.70944 -15697244.00942  21549810.142    21549804.366
  21219469.603   -22322793.43344 -17353462.85642  21219471.970    21219467.167
  21716112.001   -15426167.32243 -11980709.94842  21716114.649    21716108.826
  24557014.676      196776.60643    373918.52742  24557016.486    24557015.184
 03  4  3  3 19  0.0000000  0  4G14G25G11G31
  21562498.627   -20136139.69044 -15645276.19742  21562501.290    21562495.446
  21209195.587   -22376782.83344 -17395532.47442  21209198.009    21209193.310
  21706519.969   -15476573.76043 -12019987.65042  21706522.528    21706516.825
  24572282.193      277007.76343    436436.28142  24572284.222    24572282.689
 03  4  3  3 19 30.0000000  0  4G14G25G11G31
  21575225.618   -20069258.97243 -15593161.34342  21575228.304    21575222.441
  21199010.399   -22430306.45044 -17437239.12842  21199012.822    21199007.973
  21697018.358   -15526504.84243 -12058894.94742  21697020.918    21697015.266
  24587557.657      357282.06743    498987.64742  24587559.940    24587558.341
 03  4  3  3 20  0.0000000  0  4G14G25G11G31
  21587988.540   -20002189.13743 -15540899.11842  21587991.205    21587985.410
  21188914.514   -22483360.69544 -17478580.03842  21188916.936    21188911.953
  21687607.944   -15575956.54543 -12097428.70842  21687610.537    21687604.961
  24602841.192      437599.02443    561572.24842  24602843.287    24602842.377
 03  4  3  3 20 30.0000000  0  5G14G20G25G11G31
  21600785.650   -19934939.39743 -15488496.70242  21600788.267    21600782.595
  24722056.933    -1610070.72153  -1250382.58852  24722059.295    24722057.186
  21178906.766   -22535951.13344 -17519559.54942  21178909.209    21178904.257
  21678287.696   -15624934.77543 -12135593.52442  21678290.295    21678284.809
  24618131.147      517948.03143    624181.82842  24618133.062    24618132.174
 03  4  3  3 21  0.0000000  0  5G14G20G25G11G31
  21613616.979   -19867509.82243 -15435954.15642  21613619.535    21613614.008
  24705720.097    -1695921.55343  -1317279.28942  24705722.228    24705719.971
  21168988.160   -22588074.31944 -17560174.96042  21168990.557    21168985.509
  21669058.261   -15673435.72643 -12173386.43142  21669060.867    21669055.497
  24633427.123      598328.03143    686815.53542  24633429.132    24633427.832
 03  4  3  3 21 30.0000000  0  5G14G20G25G11G31
  21626483.006   -19799898.26243 -15383269.80442  21626485.580    21626480.112
  24689377.599    -1781800.89843  -1384198.20542  24689379.885    24689377.446
  21159159.435   -22639724.57644 -17600421.84642  21159161.855    21159156.738
  21659920.617   -15721454.09444 -12210803.30842  21659923.193    21659917.843
  24648729.173      678739.98843    749474.15442  24648731.234    24648729.645
 03  4  3  3 22  0.0000000  0  5G14G20G25G11G31
  21639381.839   -19732114.25343 -15330451.08942  21639384.421    21639378.995
  24673028.549    -1867716.06243  -1451145.05742  24673030.787    24673028.548
  21149419.433   -22690907.99444 -17640304.97642  21149421.852    21149416.838
  21650873.729   -15768995.75343 -12247848.73342  21650876.284    21650870.846
  24664035.035      759173.15143    812149.27842  24664037.299    24664035.377
 03  4  3  3 22 30.0000000  0  5G14G20G25G11G31
  21652315.331   -19664148.91644 -15277491.07442  21652317.893    21652312.324
  24656674.795    -1953656.03743  -1518111.22142  24656677.221    24656674.868
  21139770.645   -22741612.77844 -17679815.13642  21139773.053    21139768.057
  21641919.840   -15816048.61043 -12284513.26542  21641922.371    21641916.919
  24679346.523      839635.22943    874846.90942  24679348.577    24679346.839
 03  4  3  3 23  0.0000000  0  5G14G20G25G11G31
  21665282.894   -19596004.29944 -15224391.35042  21665285.489    21665279.740
  24640316.153    -2039620.51443  -1585096.47642  24640318.622    24640316.246
  21130213.217   -22791837.23744 -17718951.01842  21130215.668    21130210.661
  21633059.167   -15862611.03143 -12320795.62642  21633061.706    21633056.410
  24694662.554      920123.14943    937564.73542  24694664.632    24694663.441
 03  4  3  3 23 30.0000000  0  5G14G20G25G11G31
  21678282.271   -19527692.08143 -15171161.03842  21678284.894    21678279.140
  24623950.843    -2125618.77843  -1652108.05942  24623953.312    24623951.045
  21120745.569   -22841589.89244 -17757719.26042  21120748.008    21120743.026
  21624290.460   -15908690.89543 -12356701.99242  21624293.030    21624287.671
  24709982.081     1000624.35043   1000292.84642  24709983.743    24709982.440
 03  4  3  3 24  0.0000000  0  5G14G20G25G11G31
  21691311.042   -19459224.72443 -15117809.84642  21691313.683    21691308.054
  24607577.849    -2211661.08043  -1719153.91742  24607580.197    24607577.562
  21111365.879   -22890880.03944 -17796127.10942  21111368.336    21111363.378
  21615611.642   -15954297.84443 -12392239.83942  21615614.220    21615608.874
  24725300.966     1081124.98243   1063020.53842  24725302.844    24725301.822
 03  4  3  3 24 30.0000000  0  5G14G20G25G11G31
  21704372.587   -19390585.87543 -15064325.01842  21704375.189    21704369.573
  24591199.721    -2297728.85343  -1786219.58842  24591202.169    24591199.335
  21102078.074   -22939687.87244 -17834159.12242  21102080.499    21102075.395
  21607026.651   -15999412.00143 -12427393.69442  21607029.267    21607023.865
  24740622.600     1161640.20343   1125759.60142  24740624.462    24740623.916
 03  4  3  3 25  0.0000000  0  5G14G20G25G11G31
  21717467.171   -19321773.55843 -15010705.01342  21717469.754    21717464.086
  24574817.094    -2383817.53643  -1853301.55442  24574819.649    24574817.048
  21092883.016   -22988008.04644 -17871811.14042  21092885.453    21092880.331
  21598536.668   -16044027.59844 -12462159.06742  21598539.285    21598533.754
  24755947.276     1242171.09443   1188510.86242  24755949.197    24755948.714
 03  4  3  3 25 30.0000000  0  5G14G20G25G11G31
  21730593.332   -19252794.84443 -14956955.35742  21730595.939    21730590.318
  24558429.823    -2469932.04943  -1920403.65642  24558432.220    24558429.912
  21083779.995   -23035844.57144 -17909086.30242  21083782.436    21083777.360
  21590140.619   -16088149.15044 -12496539.46542  21590143.256    21590137.573
  24771273.386     1322709.23743   1251267.76842  24771275.459    24771274.755
 03  4  3  3 26  0.0000000  0  5G14G20G25G11G31
  21743750.240   -19183654.93143 -14903080.07542  21743752.816    21743747.169
  24542037.513    -2556075.53843  -1987528.27742  24542039.724    24542037.200
  21074768.597   -23083199.65344 -17945986.30942  21074771.052    21074765.929
  21581838.337   -16131778.06444 -12530535.99542  21581840.975    21581835.040
  24786598.727     1403248.19743   1314025.33342  24786601.006    24786600.422
 03  4  3  3 26 30.0000000  0  5G14G20G25G11G31
  21756938.159   -19114351.66143 -14849077.50942  21756940.708    21756935.149
  24525640.392    -2642243.17043  -2054671.72642  24525642.697    24525639.997
  21065849.874   -23130067.52844 -17982506.68142  21065852.337    21065847.196
  21573630.927   -16174908.58844 -12564144.16542  21573633.523    21573627.555
  24801925.017     1483789.38743   1376784.60442  24801927.141    24801926.940
 03  4  3  3 27  0.0000000  0  5G14G20G25G11G31
  21770155.647   -19044893.50243 -14794954.25142  21770158.169    21770152.573
  24509237.061    -2728441.59043  -2121839.19042  24509239.337    24509236.861
  21057022.781   -23176453.74044 -18018651.73142  21057025.240    21057020.136
  21565517.134   -16217546.26844 -12597368.27842  21565519.799    21565513.982
  24817250.350     1564323.02243   1439538.01442  24817252.283    24817252.088
 03  4  3  3 27 30.0000000  0  5G14G20G25G11G31
  21783404.413   -18975270.78143 -14740702.76942  21783406.932    21783401.234
  24492830.241    -2814658.71443  -2189021.27142  24492832.725    24492830.117
  21048289.771   -23222345.40244 -18054411.42542  21048292.204    21048287.118
  21557499.642   -16259678.30444 -12630198.40142  21557502.280    21557496.478
  24832575.644     1644857.50343   1502292.08642  24832577.606    24832577.315
 03  4  3  3 28  0.0000000  0  5G14G20G25G11G31
  21796683.123   -18905491.29843 -14686329.13342  21796685.655    21796679.776
  24476419.569    -2900900.03243  -2256222.16342  24476421.847    24476418.839
  21039650.028   -23267747.45144 -18089789.59742  21039652.419    21039647.284
  21549577.502   -16301309.01044 -12662637.87142  21549580.141    21549574.409
  24847899.915     1725384.02843   1565039.90542  24847901.634    24847900.707
 03  4  3  3 28 30.0000000  0  5G14G20G25G11G31
  21809990.999   -18835558.13743 -14631835.75242  21809993.547    21809987.589
  24460003.350    -2987166.08243  -2323442.32542  24460005.853    24460002.836
  21031103.494   -23312659.70144 -18124786.11442  21031105.889    21031100.719
  21541750.744   -16342438.69244 -12694686.92942  21541753.401    21541747.734
  24863221.123     1805898.38143   1627778.26342  24863223.118    24863222.110
 03  4  3  3 29  0.0000000  0  5G14G20G25G11G31
  21823327.309   -18765474.51243 -14577225.12342  21823329.888    21823324.067
  24443582.104    -3073457.90543  -2390682.64042  24443584.655    24443581.742
  21022650.238   -23357082.12644 -18159400.94142  21022652.607    21022647.335
  21534019.422   -16383067.14044 -12726345.43042  21534022.116    21534016.424
  24878539.195     1886396.16943   1690503.74542  24878541.279    24878540.425
 03  4  3  3 29 30.0000000  0  5G14G20G25G11G31
  21836692.906   -18695237.01543 -14522494.59142  21836695.464    21836689.889
  24427157.654    -3159770.06443  -2457938.75742  24427159.802    24427157.017
  21014291.174   -23401008.79144 -18193629.46942  21014293.563    21014288.353
  21526384.649   -16423187.76143 -12757608.21242  21526387.322    21526381.711
  24893854.881     1966879.68243   1753218.05842  24893856.767    24893855.673
 03  4  3  3 30  0.0000000  0  5G14G20G25G11G31
  21850087.365   -18624848.61843 -14467646.48442  21850089.875    21850084.356
  24410728.716    -3246103.06243  -2525211.08642  24410731.024    24410728.393
  21006026.486   -23444439.38044 -18227471.45442  21006028.845    21006023.747
  21518846.566   -16462800.18644 -12788474.99342  21518849.197    21518843.740
  24909167.070     2047344.74343   1815918.00842  24909168.806    24909167.641
 03  4  3  3 30 30.0000000  0  5G14G20G25G11G31
  21863509.652   -18554314.22443 -14412684.60742  21863512.183    21863506.601
  24394295.602    -3332459.49343  -2592501.72742  24394297.754    24394295.140
  20997855.970   -23487376.00544 -18260928.51942  20997858.310    20997853.075
  21511404.985   -16501906.30644 -12818947.26442  21511407.542    21511402.042
  24924474.603     2127785.47343   1878598.97942  24924476.317    24924475.322
 03  4  3  3 31  0.0000000  0  4G14G20G25G11
  21876958.384   -18483641.02043 -14357614.56442  21876960.942    21876955.244
  24377857.177    -3418844.11243  -2659814.29642  24377859.381    24377856.546
  20989778.508   -23529823.00544 -18294004.06242  20989780.887    20989775.620
  21504058.889   -16540510.42144 -12849028.36642  21504061.480    21504055.831
 03  4  3  3 31 30.0000000  0  4G14G20G25G11
  21890435.998   -18412816.20243 -14302426.38042  21890438.586    21890432.718
  24361416.317    -3505241.92043  -2727137.21842  24361418.520    24361415.601
  20981797.301   -23571764.43644 -18326685.66142  20981799.646    20981794.410
  21496811.309   -16578596.72744 -12878705.98042  21496813.906    21496808.133
 03  4  3  3 32  0.0000000  0  4G14G20G25G11
  21903942.952   -18341836.93043 -14247117.85742  21903945.538    21903939.618
  24344973.852    -3591648.10443  -2794466.65542  24344976.050    24344972.925
  20973913.363   -23613194.51544 -18358968.80842  20973915.699    20973910.546
  21489663.385   -16616159.34644 -12907975.51642  21489666.025    21489660.161
 03  4  3  3 32 30.0000000  0  4G14G20G25G11
  21917474.094   -18270729.47543 -14191709.44442  21917476.760    21917470.826
  24328525.181    -3678086.32443  -2861821.01942  24328527.312    24328524.084
  20966122.386   -23654136.87844 -18390871.91042  20966124.675    20966119.436
  21482610.636   -16653221.41944 -12936855.01642  21482613.356    21482607.486
 03  4  3  3 33  0.0000000  0  4G14G20G25G11
  21931030.819   -18199488.62543 -14136197.07242  21931033.430    21931027.398
  24312071.417    -3764548.95743  -2929194.43242  24312073.687    24312070.805
  20958425.718   -23694583.21244 -18422388.49342  20958428.026    20958422.669
  21475654.754   -16689774.59744 -12965337.98142  21475657.435    21475651.550
 03  4  3  3 33 30.0000000  0  4G14G20G25G11
  21944614.864   -18128104.03843 -14080572.70842  21944617.472    21944611.383
  24295615.905    -3851023.57743  -2996577.19842  24295617.950    24295615.511
  20950825.853   -23734520.46044 -18453508.39142  20950828.188    20950822.772
  21468798.111   -16725805.84543 -12993414.24542  21468800.781    21468794.943
 03  4  3  3 34  0.0000000  0  4G14G20G25G11
  21958225.189   -18056581.41043 -14024840.77842  21958227.795    21958221.595
  24279157.651    -3937513.56143  -3063971.91642  24279159.728    24279157.222
  20943322.352   -23773951.59744 -18484233.91242  20943324.694    20943319.213
  21462040.308   -16761317.82843 -13021085.89142  21462042.974    21462037.194
 03  4  3  3 34 30.0000000  0  4G14G20G25G11
  21971860.469   -17984927.58043 -13969006.61442  21971863.029    21971856.892
  24262695.288    -4024023.42043  -3131382.09942  24262697.563    24262694.810
  20935914.351   -23812880.95544 -18514568.44042  20935916.711    20935911.268
  21455380.643   -16796314.47044 -13048355.96642  21455383.250    21455377.636
 03  4  3  3 35  0.0000000  0  4G14G20G25G11
  21985521.545   -17913138.41043 -13913066.98842  21985524.079    21985517.945
  24246230.160    -4110546.73143  -3198802.77842  24246232.468    24246229.742
  20928603.063   -23851301.59944 -18544506.56942  20928605.435    20928600.046
  21448820.355   -16830788.98944 -13075219.19742  21448822.935    21448817.310
 03  4  3  3 35 30.0000000  0  4G14G20G25G11
  21999205.667   -17841227.50443 -13857032.50642  21999208.213    21999202.159
  24229760.517    -4197094.77443  -3266242.73642  24229762.784    24229759.976
  20921386.531   -23889224.70344 -18574056.99542  20921388.896    20921383.390
  21442357.470   -16864751.93044 -13101683.80742  21442360.071    21442354.304
 03  4  3  3 36  0.0000000  0  4G14G20G25G11
  22012915.119   -17769183.38743 -13800894.22442  22012917.626    22012911.693
  24213288.949    -4283653.88343  -3333691.30842  24213291.218    24213288.300
  20914267.325   -23926635.95944 -18603208.57542  20914269.696    20914264.222
  21435994.648   -16898189.07144 -13127738.69842  21435997.280    21435991.443
 03  4  3  3 36 30.0000000  0  4G14G20G25G11
  22026650.451   -17697002.75643 -13744649.54842  22026652.941    22026647.178
  24196816.365    -4370218.61843  -3401144.27042  24196818.668    24196815.653
  20907246.603   -23963529.29144 -18631956.59242  20907248.981    20907243.622
  21429732.972   -16931094.28644 -13153379.09542  21429735.574    21429729.762
 03  4  3  3 37  0.0000000  0  4G14G20G25G11
  22040409.349   -17624698.88243 -13688308.84642  22040411.853    22040406.049
  24180340.454    -4456799.77343  -3468610.05842  24180342.820    24180339.820
  20900322.664   -23999915.26144 -18660309.24742  20900325.002    20900319.610
  21423570.370   -16963478.15144 -13178613.24942  21423572.969    21423567.277
 03  4  3  3 37 30.0000000  0  4G14G20G25G11
  22054192.707   -17552266.81043 -13631868.26142  22054195.223    22054189.362
  24163862.808    -4543390.07143  -3536082.92542  24163865.009    24163862.119
  20893496.549   -24035786.39144 -18688260.73642  20893498.923    20893493.529
  21417508.581   -16995332.86844 -13203435.07742  21417511.171    21417505.574
 03  4  3  3 38  0.0000000  0  4G14G20G25G11
  22068002.547   -17479696.04543 -13575319.59742  22068005.074    22067999.116
  24147385.837    -4629976.72143  -3603552.94342  24147388.207    24147384.701
  20886770.891   -24071129.96944 -18715801.14842  20886773.259    20886767.753
  21411550.073   -17026645.19544 -13227834.26442  21411552.662    21411547.061
 03  4  3  3 38 30.0000000  0  4G14G20G25G11
  22081835.676   -17407002.08843 -13518674.94442  22081838.227    22081832.400
  24130907.299    -4716572.73043  -3671030.24742  24130909.770    24130905.539
  20880143.206   -24105958.57344 -18742940.27342  20880145.568    20880140.029
  21405692.320   -17057427.96344 -13251820.81442  21405694.882    21405689.178
 03  4  3  3 39  0.0000000  0  4G14G20G25G11
  22095691.167   -17334190.56843 -13461938.68542  22095693.722    22095688.010
  24114425.966    -4803181.81543  -3738517.77642  24114428.474    24114424.222
  20873612.760   -24140275.77144 -18769680.90642  20873615.144    20873609.670
  21399934.694   -17087684.28144 -13275397.13342  21399937.259    21399931.556
 03  4  3  3 39 30.0000000  0  4G14G20G25G11
  22109567.388   -17261270.75943 -13405118.03842  22109569.920    22109564.210
  24097940.815    -4889810.59543  -3806020.66742  24097943.300    24097939.333
  20867178.500   -24174088.04044 -18796028.08442  20867180.870    20867175.384
  21394276.104   -17117420.45444 -13298568.14442  21394278.707    21394272.927
 03  4  3  3 40  0.0000000  0  4G14G20G25G11
  22123466.593   -17188230.12443 -13348203.24842  22123469.160    22123463.364
  24081454.915    -4976444.32643  -3873527.39742  24081457.249    24081453.502
  20860843.040   -24207380.34644 -18821970.10042  20860845.436    20860840.051
  21388719.284   -17146621.66044 -13321322.30742  21388721.894    21388716.053
 03  4  3  3 40 30.0000000  0  4G14G20G25G11
  22137389.300   -17115066.02243 -13291192.25142  22137391.880    22137386.092
  24064968.787    -5063078.23043  -3941034.27542  24064971.106    24064967.474
  20854607.518   -24240147.90244 -18847503.22342  20854609.890    20854604.577
  21383265.271   -17175282.73944 -13343655.58642  21383267.801    21383261.917
 03  4  3  3 41  0.0000000  0  4G14G20G25G11
  22151331.761   -17041797.36743 -13234099.78642  22151334.344    22151328.719
  24048479.487    -5149728.88843  -4008554.20342  24048481.751    24048478.399
  20848468.746   -24272407.40944 -18872640.45642  20848471.079    20848465.728
  21377910.849   -17203419.92744 -13365580.64342  21377913.438    21377907.528
 03  4  3  3 41 30.0000000  0  4G14G20G25G11
  22165294.938   -16968420.40043 -13176922.91242  22165297.487    22165291.870
  24031988.389    -5236390.11743  -4076082.35342  24031990.665    24031987.422
  20842427.793   -24304152.63544 -18897376.95542  20842430.174    20842424.778
  21372657.439   -17231027.06544 -13387092.68442  21372660.022    21372654.058
 03  4  3  3 42  0.0000000  0  4G14G20G25G11
  22179280.498   -16894925.92043 -13119654.48842  22179283.004    22179277.327
  24015497.534    -5323050.59643  -4143609.90042  24015499.684    24015496.491
  20836486.941   -24335371.80344 -18921703.54042  20836489.323    20836483.910
  21367507.091   -17258092.22044 -13408182.38342  21367509.648    21367503.814
 03  4  3  3 42 30.0000000  0  4G14G20G25G11
  22193288.168   -16821314.86343 -13062295.21642  22193290.677    22193284.927
  23999006.539    -5409708.95543  -4211135.80942  23999008.935    23999005.962
  20830646.416   -24366063.84644 -18945619.37642  20830648.821    20830643.343
  21362460.033   -17284613.93344 -13428848.61342  21362462.602    21362456.918
 03  4  3  3 43  0.0000000  0  4G14G20G25G11
  22207316.912   -16747593.34843 -13004849.86942  22207319.424    22207313.739
  23982515.896    -5496368.83743  -4278662.89742  23982518.194    23982514.986
  20824905.526   -24396232.52744 -18969127.40842  20824907.931    20824902.423
  21357515.882   -17310596.04344 -13449094.39942  21357518.432    21357512.647
 03  4  3  3 43 30.0000000  0  4G14G20G25G11
  22221365.408   -16673767.67943 -12947323.37342  22221367.923    22221362.325
  23966023.974    -5583034.35243  -4346194.35142  23966026.242    23966022.965
  20819263.538   -24425882.03944 -18992230.88442  20819265.923    20819260.300
  21352673.584   -17336042.51644 -13468922.78842  21352676.160    21352670.386
 03  4  3  3 44  0.0000000  0  4G14G20G25G11
  22235435.646   -16599827.66243 -12889707.77842  22235438.122    22235432.598
  23949533.293    -5669693.01043  -4413720.47542  23949535.659    23949532.256
  20813722.477   -24454999.87444 -19014920.07542  20813724.923    20813719.315
  21347935.612   -17360940.60944 -13488323.86342  21347938.196    21347932.456
 03  4  3  3 44 30.0000000  0  4G14G20G25G11
  22249524.359   -16525790.98443 -12832016.86742  22249526.776    22249521.238
  23933040.992    -5756360.39543  -4481253.41242  23933043.460    23933040.077
  20808279.750   -24483601.42544 -19037206.96842  20808282.169    20808276.553
  21343299.078   -17385305.71544 -13507309.63342  21343301.658    21343295.861
 03  4  3  3 45  0.0000000  0  4G14G20G25G11
  22263631.981   -16451655.69443 -12774249.10442  22263634.437    22263628.709
  23916547.840    -5843031.92043  -4548789.58342  23916550.271    23916547.205
  20802936.052   -24511682.92544 -19059088.61442  20802938.478    20802932.777
  21338764.710   -17409133.50744 -13525876.71142  21338767.322    21338761.442
 03  4  3  3 45 30.0000000  0  4G14G20G25G11
  22277760.130   -16377412.46743 -12716397.23642  22277762.641    22277756.737
  23900055.852    -5929696.21943  -4616320.12842  23900058.435    23900055.396
  20797693.356   -24539233.07844 -19080556.23342  20797695.761    20797690.111
  21334334.740   -17432412.57144 -13544016.22342  21334337.362    21334331.400
 03  4  3  3 46  0.0000000  0  4G14G20G25G11
  22291906.508   -16303072.69143 -12658470.13942  22291909.066    22291903.051
  23883563.901    -6016362.28643  -4683852.02542  23883566.368    23883563.094
  20792550.080   -24566261.05544 -19101616.95942  20792552.477    20792546.857
  21330007.537   -17455151.90144 -13561735.15342  21330010.163    21330004.239
 03  4  3  3 46 30.0000000  0  4G14G20G25G11
  22306071.441   -16228635.59943 -12600467.19942  22306073.997    22306067.931
  23867072.151    -6103027.23743  -4751383.05142  23867074.582    23867071.124
  20787506.653   -24592763.99444 -19122268.57242  20787509.061    20787503.575
  21325783.669   -17477348.69344 -13579031.33342  21325786.302    21325780.362
 03  4  3  3 47  0.0000000  0  4G14G20G25G11
  22320254.946   -16154101.34643 -12542388.55942  22320257.467    22320251.217
  23850581.014    -6189688.53343  -4818911.25242  23850583.392    23850580.128
  20782563.488   -24618740.17144 -19142509.72042  20782565.897    20782560.476
  21321663.353   -17499000.75944 -13595903.03742  21321665.962    21321660.130
 03  4  3  3 47 30.0000000  0  4G14G20G25G11
  22334460.409   -16079451.27743 -12484219.65942  22334462.967    22334456.559
  23834094.378    -6276325.34443  -4886420.39242  23834096.679    23834093.725
  20777724.548   -24644168.83644 -19162324.23142  20777726.937    20777721.533
  21317650.798   -17520087.11044 -13612333.94142  21317653.354    21317647.470
 03  4  3  3 48  0.0000000  0  4G14G20G25G11
  22348682.281   -16004714.79043 -12425983.43942  22348684.853    22348678.479
  23817607.568    -6362964.94343  -4953931.68642  23817609.795    23817606.638
  20772984.604   -24669077.42344 -19181733.49142  20772986.972    20772981.492
  21313740.571   -17540635.19544 -13628345.40442  21313743.124    21313737.316
 03  4  3  3 48 30.0000000  0  4G14G20G25G11
  22362921.288   -15929888.03743 -12367676.86642  22362923.873    22362917.632
  23801121.358    -6449600.84443  -5021440.07342  23801123.644    23801120.064
  20768344.828   -24693459.85344 -19200732.75042  20768347.183    20768341.582
  21309933.951   -17560638.94444 -13643932.70942  21309936.508    21309930.752
 03  4  3  3 49  0.0000000  0  5G14G20G25G11G 1
  22377175.621   -15854981.10943 -12309307.81942  22377178.175    22377172.022
  23784633.945    -6536241.22743  -5088951.98342  23784636.309    23784632.719
  20763803.408   -24717325.00644 -19219328.94342  20763805.783    20763800.181
  21306229.509   -17580106.60144 -13659102.29142  21306232.048    21306226.142
  24601894.391    -1109104.98753   -826338.82152  24601895.752    24601894.568
 03  4  3  3 49 30.0000000  0  5G14G20G25G11G 1
  22391446.229   -15779987.87843 -12250871.53942  22391448.819    22391442.719
  23768147.511    -6622877.72943  -5156460.88642  23768149.718    23768146.357
  20759361.952   -24740664.86844 -19237515.82742  20759364.302    20759358.814
  21302628.523   -17599029.93744 -13673847.72242  21302631.075    21302625.142
  24586418.384    -1190425.30443   -889705.08942  24586420.495    24586419.141
 03  4  3  3 50  0.0000000  0  5G14G20G25G11G 1
  22405736.936   -15704890.21843 -12192353.89442  22405739.436    22405733.275
  23751665.853    -6709489.51543  -5223950.50942  23751668.018    23751664.773
  20755024.346   -24763458.83544 -19255277.33742  20755026.685    20755021.233
  21299134.928   -17617388.67444 -13688153.20942  21299137.510    21299131.522
  24570973.953    -1271580.52743   -952942.71842  24570976.764    24570974.465
 03  4  3  3 50 30.0000000  0  5G14G20G25G11G 1
  22420046.180   -15629694.02243 -12133759.42942  22420048.706    22420042.595
  23735188.339    -6796080.46143  -5291423.87542  23735190.548    23735187.057
  20750789.866   -24785711.43344 -19272616.99242  20750792.197    20750786.631
  21295748.098   -17635186.72544 -13702021.80042  21295750.655    21295744.583
  24555560.823    -1352575.02353  -1016055.14952  24555564.152    24555562.111
 03  4  3  3 51  0.0000000  0  5G14G20G25G11G 1
  22434369.991   -15554421.38543 -12075105.41342  22434372.525    22434366.472
  23718710.893    -6882670.14843  -5358896.26042  23718713.084    23718709.428
  20746654.513   -24807442.84444 -19289550.52342  20746656.868    20746651.204
  21292464.164   -17652444.09144 -13715469.07642  21292466.710    21292460.608
  24540175.544    -1433429.24653  -1079058.27652  24540178.347    24540176.219
 03  4  3  3 51 30.0000000  0  5G14G20G25G11G 1
  22448712.625   -15479050.62043 -12016374.94142  22448715.167    22448709.108
  23702237.637    -6969234.80543  -5426349.15542  23702239.984    23702236.519
  20742622.671   -24828629.77844 -19306059.79542  20742625.031    20742619.362
  21289287.459   -17669137.45344 -13728476.87142  21289290.022    21289283.951
  24524820.845    -1514119.73543  -1141933.84942  24524823.686    24524820.960
 03  4  3  3 52  0.0000000  0  4G14G20G25G11
  22463072.905   -15403586.89643 -11957572.03942  22463075.501    22463069.437
  23685769.088    -7055777.27843  -5493784.78742  23685771.279    23685767.797
  20738693.746   -24849275.99344 -19322147.73142  20738696.082    20738690.461
  21286217.491   -17685270.19644 -13741047.81842  21286220.019    21286213.944
 03  4  3  3 52 30.0000000  0  4G14G20G25G11
  22477449.421   -15328038.07343 -11898702.81942  22477451.981    22477446.028
  23669303.793    -7142303.05743  -5561207.40242  23669305.959    23669302.436
  20734866.709   -24869387.32344 -19337818.86942  20734869.016    20734863.402
  21283253.091   -17700848.02244 -13753186.36442  21283255.668    21283249.577
 03  4  3  3 53  0.0000000  0  4G14G20G25G11
  22491840.452   -15252412.61543 -11839773.88842  22491842.981    22491837.202
  23652840.524    -7228818.44843  -5628621.91542  23652842.763    23652839.046
  20731140.204   -24888970.45244 -19353078.42042  20731142.509    20731136.823
  21280392.981   -17715877.58944 -13764897.69942  21280395.595    21280389.506
 03  4  3  3 53 30.0000000  0  4G14G20G25G11
  22506245.335   -15176714.12543 -11780788.03742  22506247.807    22506242.205
  23636378.861    -7315324.55743  -5696029.21542  23636381.200    23636377.422
  20727513.696   -24908027.80544 -19367928.27542  20727516.016    20727510.296
  21277636.923   -17730360.81044 -13776183.30642  21277639.506    21277633.416
 03  4  3  3 54  0.0000000  0  4G14G20G25G11
  22520665.141   -15100937.99643 -11721741.69242  22520667.572    22520661.878
  23619920.321    -7401814.59743  -5763424.00542  23619922.688    23619918.832
  20723988.358   -24926553.06844 -19382363.51742  20723990.681    20723984.992
  21274986.004   -17744291.40344 -13787038.29342  21274988.609    21274982.533
 03  4  3  3 54 30.0000000  0  4G14G20G25G11
  22535097.903   -15025093.06843 -11662641.74342  22535100.368    22535094.730
  23603463.636    -7488295.04343  -5830811.31342  23603466.045    23603462.031
  20720562.993   -24944553.42444 -19396389.74742  20720565.294    20720559.589
  21272439.018   -17757676.20744 -13797467.99342  21272441.613    21272435.485
 03  4  3  3 55  0.0000000  0  4G14G20G25G11
  22549545.999   -14949168.20743 -11603479.49942  22549548.482    22549542.733
  23587011.285    -7574752.33543  -5898180.56942  23587013.724    23587009.643
  20717239.994   -24962016.03744 -19409996.94342  20717242.329    20717236.547
  21269998.205   -17770502.84144 -13807462.75942  21270000.817    21269994.606
 03  4  3  3 55 30.0000000  0  4G14G20G25G11
  22564008.917   -14873165.18543 -11544256.36742  22564011.448    22564005.529
  23570563.501    -7661186.20943  -5965531.57442  23570565.785    23570561.729
  20714019.115   -24978941.29944 -19423185.43942  20714021.523    20714015.796
  21267663.530   -17782770.89844 -13817022.25742  21267666.167    21267660.104
 03  4  3  3 56  0.0000000  0  4G14G20G25G11
  22578485.996   -14797087.78943 -11484975.27142  22578488.546    22578482.448
  23554119.777    -7747598.03343  -6032865.39942  23554122.073    23554118.008
  20710900.098   -24995331.81644 -19435957.24342  20710902.456    20710896.726
  21265434.857   -17794482.84844 -13826148.43242  21265437.446    21265431.435
 03  4  3  3 56 30.0000000  0  4G14G20G25G11
  22592977.404   -14720935.04643 -11425635.49242  22592979.965    22592973.759
  23537680.933    -7833984.53643  -6100179.48542  23537683.249    23537679.162
  20707883.295   -25011185.10144 -19448310.42542  20707885.662    20707879.937
  21263312.534   -17805635.94944 -13834839.14442  21263315.091    21263309.045
 03  4  3  3 57  0.0000000  0  4G14G20G25G11
  22607482.415   -14644710.68943 -11366239.89642  22607485.053    22607478.687
  23521246.600    -7920347.02043  -6167474.86542  23521248.879    23521244.845
  20704968.310   -25026503.45344 -19460246.78242  20704970.646    20704964.907
  21261296.160   -17816232.39744 -13843096.10842  21261298.711    21261292.512
 03  4  3  3 57 30.0000000  0  4G14G20G25G11
  22622002.897   -14568404.53243 -11306780.55142  22622005.550    22621999.136
  23504819.007    -8006673.09643  -6234741.90042  23504821.344    23504817.372
  20702157.307   -25041275.43244 -19471757.38842  20702159.653    20702153.826
  21259387.729   -17826260.55644 -13850910.23542  21259390.340    21259384.156
 03  4  3  3 58  0.0000000  0  4G14G20G25G11
  22636536.923   -14492027.37643 -11247265.88242  22636539.453    22636533.091
  23488397.128    -8092971.13843  -6301987.08842  23488399.364    23488395.322
  20699448.443   -25055510.35344 -19482849.51642  20699450.792    20699445.050
  21257585.804   -17835729.49944 -13858288.61742  21257588.392    21257582.257
 03  4  3  3 58 30.0000000  0  4G14G20G25G11
  22651083.073   -14415586.64743 -11187701.67842  22651085.518    22651079.301
  23471979.662    -8179246.76743  -6369214.76042  23471981.854    23471977.563
  20696840.701   -25069214.34744 -19493527.93042  20696843.015    20696837.260
  21255889.145   -17844645.38144 -13865236.04242  21255891.716    21255885.538
 03  4  3  3 59  0.0000000  0  4G14G20G25G11
  22665640.975   -14339084.07443 -11128089.28242  22665643.418    22665637.312
  23455566.267    -8265498.84843  -6436424.09742  23455568.579    23455564.175
  20694333.814   -25082387.92344 -19503793.03742  20694336.139    20694330.372
  21254297.661   -17853008.37344 -13871752.64842  21254300.251    21254294.043
 03  4  3  3 59 30.0000000  0  4G14G20G25G11
  22680191.369   -14262621.85343 -11068508.33842  22680193.738    22680187.658
  23439138.229    -8351827.50643  -6503693.09942  23439140.565    23439136.268
  20691908.730   -25095131.95844 -19513723.42542  20691911.033    20691905.191
  21252792.425   -17860919.27244 -13877916.96842  21252794.945    21252788.671
 03  4  3  4  0  0.0000000  0  4G14G20G25G11
  22694763.945   -14186041.81343 -11008835.56342  22694766.413    22694760.432
  23422726.141    -8438072.36543  -6570896.83142  23422728.440    23422724.513
  20689595.593   -25107287.36144 -19523195.14742  20689597.934    20689592.133
  21251403.347   -17868218.60344 -13883604.74142  21251405.934    21251399.714
 03  4  3  4  0 30.0000000  0  5G14G20G25G11G 1
  22709364.480   -14109315.04943 -10949048.46142  22709366.905    22709361.027
  23406336.513    -8524202.01643  -6638010.76742  23406338.564    23406334.875
  20687400.307   -25118823.80344 -19532184.56242  20687402.610    20687396.859
  21250136.528   -17874875.78244 -13888792.13942  21250139.130    21250132.967
  24253397.590
 03  4  3  4  1  0.0000000  0  4G14G20G25G11
  22723967.177   -14032577.62743 -10889253.06642  22723969.520    22723963.671
  23389943.013    -8610350.21043  -6705139.13142  23389945.179    23389941.557
  20685297.065   -25129876.11844 -19540796.74142  20685299.397    20685293.719
  21248966.241   -17881025.65944 -13893584.23242  21248968.841    21248962.721
 03  4  3  4  1 30.0000000  0  4G14G20G25G11
  22738570.485   -13955836.82343 -10829455.04742  22738572.906    22738567.004
  23373544.736    -8696521.85443  -6772285.79242  23373547.075    23373543.436
  20683284.817   -25140450.57344 -19549036.55642  20683287.133    20683281.490
  21247891.259   -17886674.49344 -13897985.90842  21247893.868    21247887.768
 03  4  3  4  2  0.0000000  0  4G14G20G25G11
  22753190.007   -13879010.20743 -10769590.14242  22753192.496    22753186.708
  23357158.391    -8782632.48243  -6839384.88442  23357160.525    23357156.761
  20681379.371   -25150463.80344 -19556839.05542  20681381.684    20681375.960
  21246927.456   -17891738.79344 -13901932.10442  21246930.081    21246923.981
 03  4  3  4  2 30.0000000  0  4G14G20G25G11
  22767820.469   -13802126.85643 -10709681.02842  22767822.944    22767817.215
  23340778.685    -8868708.85243  -6906457.28942  23340780.920    23340776.658
  20679575.381   -25159943.88444 -19564226.10742  20679577.695    20679571.950
  21246069.841   -17896245.84644 -13905444.08742  21246072.446    21246066.236
 03  4  3  4  3  0.0000000  0  4G14G20G25G11
  22782455.759   -13725217.93743 -10649751.99242  22782458.237    22782452.535
  23324400.029    -8954779.50743  -6973525.23642  23324402.284    23324398.057
  20677867.066   -25168920.67044 -19571220.99442  20677869.393    20677863.716
  21245312.370   -17900226.08644 -13908545.56342  21245314.983    21245308.819
